[[{"header":{"parameterUnit":"m.s-1","parameterCategory":1,"la1":30.6,"la2":29.2853,"lo1":-89.7004,"lo2":-87.6739,"dy":0.0162,"dx":0.0183,"nx":112,"ny":82,"refTime":"2023-03-17T18:00:00:Z","depth":0,"parameterNumber":2,"parameterNumberName":"U-component_of_WINDS"},"data":[0.0,0.0,0.0,0.0,0.0,0.0,0.0,0.0,0.0,0.0,0.0,0.0,0.0,0.0,0.0,0.0,0.0,0.0,0.0,0.0,0.0,0.0,0.0,0.0,0.0,0.0,0.0,0.0,0.0,0.0,0.0,0.0,0.0,0.0,0.0,0.0,0.0,0.0,0.0,0.0,0.0,0.0,0.0,0.0,0.0,0.0,0.0,0.0,0.0,0.0,0.0,0.0,0.0,0.0,0.0,0.0,0.0,0.0,0.0,0.0,0.0,0.0,0.0,0.0,0.0,0.0,0.0,0.0,0.0,0.0,0.0,0.0,0.0,0.0,0.0,0.0,0.0,0.0,0.0,0.0,0.0,0.0,0.0,0.0,0.0,0.0,0.0,0.0,0.0,0.0,0.0,2.5716,2.5958,2.5895,2.5282,2.5037,2.4443,2.3316,0.0,0.0,0.0,0.0,0.0,0.0,0.0,0.0,0.0,0.0,0.0,0.0,0.0,0.0,0.0,0.0,0.0,0.0,0.0,0.0,0.0,0.0,0.0,0.0,0.0,0.0,0.0,0.0,0.0,0.0,0.0,0.0,0.0,0.0,0.0,0.0,0.0,0.0,0.0,0.0,0.0,0.0,0.0,0.0,0.0,0.0,0.0,0.0,0.0,0.0,0.0,0.0,0.0,0.0,0.0,0.0,0.0,0.0,0.0,0.0,0.0,0.0,0.0,0.0,0.0,0.0,0.0,0.0,0.0,0.0,0.0,0.0,0.0,0.0,0.0,0.0,0.0,0.0,0.0,0.0,0.0,0.0,0.0,0.0,0.0,0.0,0.0,0.0,0.0,0.0,0.0,0.0,0.0,0.0,0.0,0.0,0.0,0.0,0.0,0.0,0.0,0.0,0.0,0.0,2.7073,2.679,2.6272,2.5897,2.579,2.4795,2.4078,2.3879,0.0,0.0,0.0,0.0,0.0,0.0,0.0,0.0,0.0,0.0,0.0,0.0,0.0,0.0,0.0,0.0,0.0,0.0,0.0,0.0,0.0,0.0,0.0,0.0,0.0,0.0,0.0,0.0,0.0,0.0,0.0,0.0,0.0,0.0,0.0,0.0,0.0,0.0,0.0,0.0,0.0,0.0,0.0,0.0,0.0,0.0,0.0,0.0,0.0,0.0,0.0,0.0,0.0,0.0,0.0,0.0,0.0,0.0,0.0,0.0,0.0,0.0,0.0,0.0,0.0,0.0,0.0,0.0,0.0,0.0,0.0,0.0,0.0,0.0,0.0,0.0,0.0,0.0,0.0,0.0,0.0,0.0,0.0,0.0,0.0,0.0,0.0,0.0,0.0,0.0,0.0,0.0,0.0,0.0,0.0,0.0,0.0,0.0,0.0,0.0,0.0,0.0,0.0,2.6521,2.6541,2.6267,2.5932,2.5736,2.5736,2.5194,2.4745,2.444,2.3901,0.0,0.0,0.0,0.0,0.0,0.0,0.0,0.0,0.0,0.0,0.0,0.0,0.0,0.0,0.0,0.0,0.0,0.0,0.0,0.0,0.0,0.0,0.0,0.0,0.0,0.0,0.0,0.0,0.0,0.0,0.0,0.0,0.0,0.0,0.0,0.0,0.0,0.0,0.0,0.0,0.0,0.0,0.0,0.0,0.0,0.0,0.0,0.0,0.0,0.0,0.0,0.0,0.0,0.0,0.0,0.0,0.0,0.0,0.0,0.0,0.0,0.0,0.0,0.0,0.0,0.0,0.0,0.0,0.0,0.0,0.0,0.0,0.0,0.0,0.0,0.0,0.0,0.0,0.0,0.0,0.0,0.0,0.0,0.0,0.0,0.0,0.0,0.0,0.0,0.0,0.0,0.0,0.0,0.0,0.0,0.0,0.0,0.0,0.0,0.0,0.0,0.0,2.6251,2.5935,2.582,2.5816,2.5816,2.5816,2.5674,2.5423,2.5005,2.4494,0.0,0.0,0.0,0.0,0.0,0.0,0.0,0.0,0.0,0.0,0.0,0.0,0.0,0.0,0.0,0.0,0.0,0.0,0.0,0.0,0.0,0.0,0.0,0.0,0.0,0.0,0.0,0.0,0.0,0.0,0.0,0.0,0.0,0.0,0.0,0.0,0.0,0.0,0.0,0.0,0.0,0.0,0.0,0.0,0.0,0.0,0.0,0.0,0.0,0.0,0.0,0.0,0.0,0.0,0.0,0.0,0.0,0.0,0.0,0.0,0.0,0.0,0.0,0.0,0.0,0.0,0.0,0.0,0.0,0.0,0.0,0.0,0.0,0.0,0.0,0.0,0.0,0.0,0.0,0.0,0.0,0.0,0.0,0.0,0.0,0.0,0.0,0.0,0.0,0.0,0.0,0.0,0.0,0.0,0.0,0.0,0.0,0.0,0.0,0.0,0.0,0.0,2.6565,2.5833,2.639,2.6436,2.6436,2.6436,2.5917,2.5573,2.5548,2.5042,0.0,0.0,0.0,0.0,0.0,0.0,0.0,0.0,0.0,0.0,0.0,0.0,0.0,0.0,0.0,0.0,0.0,0.0,0.0,0.0,0.0,0.0,0.0,0.0,0.0,0.0,0.0,0.0,0.0,0.0,0.0,0.0,0.0,0.0,0.0,0.0,0.0,0.0,0.0,0.0,0.0,0.0,0.0,0.0,0.0,0.0,0.0,0.0,0.0,0.0,0.0,0.0,0.0,0.0,0.0,0.0,0.0,0.0,0.0,0.0,0.0,0.0,0.0,0.0,0.0,0.0,0.0,0.0,0.0,0.0,0.0,0.0,0.0,0.0,0.0,0.0,0.0,0.0,0.0,0.0,0.0,0.0,0.0,0.0,0.0,0.0,0.0,0.0,0.0,0.0,0.0,0.0,0.0,0.0,0.0,0.0,0.0,0.0,0.0,0.0,0.0,0.0,2.7023,2.68,0.0,2.6499,2.6499,2.6499,2.6298,2.6172,2.6172,0.0,0.0,0.0,0.0,0.0,0.0,0.0,0.0,0.0,0.0,0.0,0.0,0.0,0.0,0.0,0.0,0.0,0.0,0.0,0.0,0.0,0.0,0.0,0.0,0.0,0.0,0.0,0.0,0.0,0.0,0.0,0.0,0.0,0.0,0.0,0.0,0.0,0.0,0.0,0.0,0.0,0.0,0.0,0.0,0.0,0.0,0.0,0.0,0.0,0.0,0.0,0.0,0.0,0.0,0.0,0.0,0.0,0.0,0.0,0.0,0.0,0.0,0.0,0.0,0.0,0.0,0.0,0.0,0.0,0.0,0.0,0.0,0.0,0.0,0.0,0.0,0.0,0.0,0.0,0.0,0.0,0.0,0.0,0.0,0.0,0.0,0.0,0.0,0.0,0.0,0.0,0.0,0.0,0.0,0.0,0.0,0.0,0.0,0.0,0.0,0.0,0.0,2.7073,2.733,2.7365,0.0,2.6914,2.7014,2.7014,2.6851,2.6751,2.6751,0.0,0.0,0.0,0.0,0.0,0.0,0.0,0.0,0.0,0.0,0.0,0.0,0.0,0.0,0.0,0.0,0.0,0.0,0.0,0.0,0.0,0.0,0.0,0.0,0.0,0.0,0.0,0.0,0.0,0.0,0.0,0.0,0.0,0.0,0.0,0.0,0.0,0.0,0.0,0.0,0.0,0.0,0.0,0.0,0.0,0.0,0.0,0.0,0.0,0.0,0.0,0.0,0.0,0.0,0.0,0.0,0.0,0.0,0.0,0.0,0.0,0.0,0.0,0.0,0.0,0.0,0.0,0.0,0.0,0.0,0.0,0.0,0.0,0.0,0.0,0.0,0.0,0.0,0.0,0.0,0.0,0.0,0.0,0.0,0.0,0.0,0.0,0.0,0.0,0.0,0.0,0.0,0.0,0.0,0.0,0.0,0.0,0.0,0.0,0.0,0.0,0.0,2.7604,2.7472,2.7311,2.7311,2.777,2.8109,2.8109,2.7607,2.7311,0.0,0.0,0.0,0.0,0.0,0.0,0.0,0.0,0.0,0.0,0.0,0.0,0.0,0.0,0.0,0.0,0.0,0.0,0.0,0.0,0.0,0.0,0.0,0.0,0.0,0.0,0.0,0.0,0.0,0.0,0.0,0.0,0.0,0.0,0.0,0.0,0.0,0.0,0.0,0.0,0.0,0.0,0.0,0.0,0.0,0.0,0.0,0.0,0.0,0.0,0.0,0.0,0.0,0.0,0.0,0.0,0.0,0.0,0.0,0.0,0.0,0.0,0.0,0.0,0.0,0.0,0.0,0.0,0.0,0.0,0.0,0.0,0.0,0.0,0.0,0.0,0.0,0.0,0.0,0.0,0.0,0.0,0.0,0.0,0.0,0.0,0.0,0.0,0.0,0.0,0.0,0.0,0.0,0.0,0.0,0.0,0.0,0.0,0.0,0.0,0.0,0.0,0.0,2.7393,2.7685,2.7858,2.7858,2.8009,2.8109,2.8109,2.7959,2.7695,2.7324,0.0,0.0,0.0,0.0,0.0,0.0,0.0,0.0,0.0,0.0,0.0,0.0,0.0,0.0,0.0,0.0,0.0,0.0,0.0,0.0,0.0,0.0,0.0,0.0,0.0,0.0,0.0,0.0,0.0,0.0,0.0,0.0,0.0,0.0,0.0,0.0,0.0,0.0,0.0,0.0,0.0,0.0,0.0,0.0,0.0,0.0,0.0,0.0,0.0,0.0,0.0,0.0,0.0,0.0,0.0,0.0,0.0,0.0,0.0,0.0,0.0,0.0,0.0,0.0,0.0,0.0,0.0,0.0,0.0,0.0,0.0,0.0,0.0,0.0,0.0,0.0,0.0,0.0,0.0,0.0,0.0,0.0,0.0,0.0,0.0,0.0,0.0,0.0,0.0,0.0,0.0,0.0,0.0,0.0,0.0,0.0,0.0,0.0,0.0,0.0,0.0,0.0,2.76,2.8298,2.8775,2.8775,2.9164,2.9327,2.9126,2.89,2.8536,2.7971,0.0,0.0,0.0,0.0,0.0,0.0,0.0,0.0,0.0,0.0,0.0,0.0,0.0,0.0,0.0,0.0,0.0,0.0,0.0,0.0,0.0,0.0,0.0,0.0,0.0,0.0,0.0,0.0,0.0,0.0,0.0,0.0,0.0,0.0,0.0,0.0,0.0,0.0,0.0,0.0,0.0,0.0,0.0,0.0,0.0,0.0,0.0,0.0,0.0,0.0,0.0,0.0,0.0,0.0,0.0,0.0,0.0,0.0,0.0,0.0,0.0,0.0,0.0,0.0,0.0,0.0,0.0,0.0,0.0,0.0,0.0,0.0,0.0,0.0,0.0,0.0,0.0,0.0,0.0,0.0,0.0,0.0,0.0,0.0,0.0,0.0,0.0,0.0,0.0,0.0,0.0,0.0,0.0,0.0,0.0,0.0,0.0,0.0,0.0,0.0,0.0,0.0,2.8197,2.9252,2.9942,2.9942,3.0809,3.1198,3.0733,3.0231,2.9679,2.9032,0.0,0.0,0.0,0.0,0.0,0.0,0.0,0.0,0.0,0.0,0.0,0.0,0.0,0.0,0.0,0.0,0.0,0.0,0.0,0.0,0.0,0.0,0.0,0.0,0.0,0.0,0.0,0.0,0.0,0.0,0.0,0.0,0.0,0.0,0.0,0.0,0.0,0.0,0.0,0.0,0.0,0.0,0.0,0.0,0.0,0.0,0.0,0.0,0.0,0.0,0.0,0.0,0.0,0.0,0.0,0.0,0.0,0.0,0.0,0.0,2.4288,0.0,0.0,0.0,0.0,0.0,0.0,0.0,0.0,0.0,0.0,0.0,0.0,0.0,0.0,0.0,0.0,0.0,0.0,0.0,0.0,0.0,0.0,0.0,0.0,0.0,0.0,0.0,0.0,0.0,0.0,0.0,0.0,0.0,0.0,0.0,0.0,0.0,0.0,0.0,0.0,0.0,2.9415,3.0382,3.1067,3.1067,3.1248,3.1348,3.1235,3.1122,3.0633,2.9666,2.9503,0.0,0.0,0.0,0.0,0.0,0.0,0.0,0.0,0.0,0.0,0.0,0.0,0.0,0.0,0.0,0.0,0.0,0.0,0.0,0.0,0.0,0.0,0.0,0.0,0.0,0.0,0.0,0.0,0.0,0.0,0.0,0.0,0.0,0.0,0.0,0.0,0.0,0.0,0.0,0.0,0.0,0.0,0.0,0.0,0.0,0.0,0.0,0.0,0.0,0.0,0.0,0.0,0.0,0.0,0.0,0.0,0.0,0.0,0.0,0.0,2.5201,0.0,0.0,0.0,0.0,0.0,0.0,0.0,0.0,0.0,0.0,0.0,0.0,0.0,0.0,0.0,0.0,0.0,0.0,0.0,0.0,0.0,0.0,0.0,0.0,0.0,0.0,0.0,0.0,0.0,0.0,0.0,0.0,0.0,0.0,0.0,0.0,0.0,0.0,0.0,0.0,3.0495,3.1273,3.1788,3.1788,3.2039,3.211,3.1813,3.1788,3.1436,3.062,3.0577,0.0,0.0,0.0,0.0,0.0,0.0,0.0,0.0,0.0,0.0,0.0,0.0,0.0,0.0,0.0,0.0,0.0,0.0,0.0,0.0,0.0,0.0,0.0,0.0,0.0,0.0,0.0,0.0,0.0,0.0,0.0,0.0,0.0,0.0,0.0,0.0,0.0,0.0,0.0,0.0,0.0,0.0,0.0,0.0,0.0,0.0,0.0,0.0,0.0,0.0,0.0,0.0,0.0,2.6761,2.6869,2.7056,2.7056,2.6767,2.6292,2.6338,2.618,2.5952,0.0,0.0,0.0,0.0,0.0,0.0,0.0,0.0,0.0,0.0,0.0,0.0,0.0,0.0,0.0,0.0,0.0,0.0,0.0,0.0,0.0,0.0,0.0,0.0,0.0,2.9073,2.9131,0.0,0.0,0.0,0.0,0.0,0.0,0.0,0.0,0.0,0.0,0.0,0.0,3.1424,3.2014,3.2365,3.2365,3.2792,3.2901,3.2403,3.2365,3.2127,3.1574,3.1537,3.1097,0.0,0.0,0.0,0.0,0.0,0.0,0.0,0.0,0.0,0.0,0.0,0.0,0.0,0.0,0.0,0.0,0.0,0.0,0.0,0.0,0.0,0.0,0.0,0.0,0.0,0.0,0.0,0.0,0.0,0.0,0.0,0.0,2.2895,2.2895,0.0,0.0,0.0,0.0,0.0,0.0,0.0,0.0,0.0,0.0,0.0,0.0,0.0,0.0,2.4852,2.5008,2.5329,2.5773,2.5773,2.6294,2.726,2.726,2.7457,2.7819,2.782,0.0,2.5906,2.5999,0.0,0.0,0.0,0.0,0.0,0.0,0.0,0.0,0.0,0.0,0.0,0.0,0.0,0.0,0.0,0.0,0.0,0.0,0.0,0.0,0.0,0.0,2.8178,2.8756,2.8941,2.9075,0.0,2.9352,2.8969,2.8284,0.0,0.0,0.0,0.0,0.0,0.0,0.0,0.0,3.2089,3.2604,3.2989,3.2989,3.3052,3.3065,3.2989,3.2989,3.2738,3.2139,3.2081,3.1825,3.1198,3.1205,0.0,0.0,0.0,0.0,0.0,0.0,0.0,0.0,0.0,0.0,0.0,0.0,0.0,0.0,0.0,0.0,0.0,0.0,0.0,0.0,0.0,0.0,0.0,0.0,0.0,0.0,0.0,0.0,0.0,2.3248,2.36,2.36,2.3876,2.4164,0.0,0.0,0.0,0.0,0.0,0.0,0.0,0.0,0.0,2.5243,2.5875,2.6201,2.6201,2.6498,2.6779,2.7005,2.7301,2.7715,2.8204,2.8549,2.8825,2.9051,2.9051,2.8689,2.8039,2.74,2.7322,2.7617,0.0,0.0,0.0,0.0,2.7617,2.7617,2.7617,2.7407,0.0,0.0,0.0,0.0,0.0,0.0,0.0,0.0,0.0,0.0,0.0,0.0,0.0,2.9797,3.0086,3.0382,3.0633,3.0615,3.0311,0.0,2.9955,3.0394,3.0645,0.0,0.0,0.0,0.0,3.2307,3.2654,3.2939,3.3102,3.3102,3.3102,3.3102,3.3102,3.3102,3.2989,3.2717,3.2726,3.2441,3.1876,3.1851,3.1486,0.0,0.0,0.0,0.0,0.0,0.0,0.0,0.0,0.0,0.0,0.0,0.0,0.0,0.0,0.0,0.0,0.0,0.0,0.0,0.0,0.0,0.0,0.0,0.0,0.0,0.0,0.0,0.0,2.3926,2.4189,2.4189,2.4553,2.4917,0.0,0.0,0.0,0.0,0.0,0.0,2.5645,2.6146,2.644,2.644,2.7406,2.7939,2.7939,2.8335,2.8612,2.8731,2.9145,2.9408,2.9546,3.0005,3.0206,3.0206,3.0206,3.0206,3.0118,2.9001,2.8536,2.8524,2.8355,2.8411,2.8524,2.8355,2.8411,2.8536,2.8536,2.8536,2.8536,2.8536,0.0,2.8536,2.8536,0.0,0.0,0.0,0.0,2.9634,3.0093,3.0507,3.0846,3.0977,3.1323,3.1637,3.1808,3.1834,3.1625,0.0,3.1235,3.1599,3.1599,0.0,0.0,0.0,0.0,3.2591,3.304,3.3102,3.3102,3.3102,3.3102,3.3102,3.3102,3.3102,3.3102,3.3102,3.3102,3.2901,3.2453,3.2441,3.2164,3.1612,0.0,0.0,0.0,0.0,0.0,0.0,0.0,0.0,0.0,0.0,0.0,0.0,0.0,0.0,0.0,0.0,0.0,0.0,0.0,0.0,0.0,0.0,0.0,0.0,0.0,0.0,0.0,0.0,0.0,2.4766,2.4791,0.0,0.0,0.0,0.0,2.7858,2.7934,2.7934,2.7934,2.8442,2.8725,2.8725,2.9352,2.9666,2.9666,2.9691,2.9967,3.0462,3.05,3.0783,3.1273,3.1319,3.1331,3.1331,3.1331,3.1331,3.1235,3.0156,2.9704,2.9654,2.9082,2.9208,2.9641,2.907,2.922,2.9704,2.9704,2.9704,2.9704,2.9704,2.9704,2.9704,2.9704,3.0068,0.0,0.0,3.0884,3.1273,3.1298,3.1336,3.1486,3.2001,3.2131,3.2315,3.2889,3.3014,3.2688,0.0,3.1788,3.2156,3.2156,0.0,3.3027,3.3052,3.3052,3.3065,3.3102,3.3102,3.3102,3.3102,3.3102,3.3102,3.3102,3.3102,3.3102,3.3102,3.3102,3.309,3.3052,3.3052,3.2776,3.2156,3.2156,0.0,0.0,0.0,0.0,0.0,0.0,0.0,0.0,0.0,0.0,0.0,0.0,0.0,0.0,0.0,0.0,0.0,0.0,0.0,0.0,0.0,0.0,0.0,0.0,0.0,0.0,0.0,0.0,2.5891,2.6502,0.0,2.7499,2.7846,2.8191,2.8593,2.8976,2.9189,2.9189,2.9697,2.9998,2.9998,3.0545,3.0841,3.0841,3.0841,3.0942,3.1122,3.1453,3.1717,3.1938,3.2324,3.2499,3.2499,3.2499,3.2499,3.2462,3.2085,3.1494,3.0796,3.0595,3.0633,3.0796,3.0583,3.0645,3.0841,3.0841,3.0841,3.0841,3.0841,3.0841,3.0841,3.0841,3.0959,3.1185,3.1516,3.1775,3.2001,3.2378,3.2499,3.255,3.2717,3.2788,3.2851,3.3052,3.3102,3.2977,3.2575,3.265,3.2788,3.2788,3.2964,3.3102,3.3102,3.3102,3.3102,3.3102,3.3102,3.3102,3.3102,3.3102,3.3102,3.3102,3.3102,3.3102,3.3102,3.3102,3.3102,3.3102,3.3102,3.3002,3.2767,3.2788,3.27,0.0,0.0,0.0,0.0,0.0,0.0,0.0,0.0,0.0,0.0,0.0,0.0,0.0,0.0,0.0,0.0,0.0,0.0,0.0,0.0,0.0,0.0,0.0,0.0,0.0,0.0,2.7097,2.7286,2.7575,2.8064,2.8875,2.8889,2.9116,2.9703,3.0118,3.0161,2.9739,3.0625,3.0945,3.0552,3.1058,3.153,3.1964,3.1551,3.1551,3.1984,3.2328,3.2503,3.2516,3.2927,3.3102,3.3102,3.3102,3.3102,3.3102,3.3102,3.265,3.1959,3.175,3.1788,3.1959,3.1738,3.1788,3.1972,3.1972,3.1972,3.1972,3.1972,3.1972,3.1972,3.1972,3.1972,3.206,3.2403,3.2503,3.2591,3.3002,3.3102,3.3102,3.3102,3.3102,3.3102,3.3102,3.3102,3.3102,3.3102,3.3102,3.3102,3.3102,3.3102,3.3102,3.3102,3.3102,3.3102,3.3102,3.3266,3.3379,3.3379,3.352,3.358,3.3391,3.3379,3.3291,3.3102,3.3102,3.3102,3.3102,3.3102,3.3102,3.3102,3.3102,3.3102,3.3102,0.0,0.0,0.0,0.0,0.0,0.0,0.0,0.0,0.0,0.0,0.0,0.0,0.0,0.0,0.0,0.0,0.0,0.0,0.0,0.0,0.0,0.0,0.0,2.7331,2.779,2.8287,2.8838,2.7871,2.8059,3.0301,2.9504,2.9534,3.1177,3.1321,3.0836,2.967,3.1203,3.157,3.0397,3.0917,3.1799,3.3025,3.1821,3.1843,3.3102,3.3059,3.3047,3.3047,3.3047,3.3025,3.2982,3.3025,3.3047,3.3047,3.3068,3.3102,3.304,3.2453,3.2591,3.3027,3.2441,3.2591,3.3102,3.3102,3.3102,3.3102,3.3102,3.3102,3.3102,3.3102,3.3102,3.3102,3.3102,3.3102,3.3102,3.3102,3.3102,3.3102,3.3128,3.3128,3.3128,3.3153,3.3153,3.3153,3.3153,3.3153,3.314,3.3128,3.314,3.3153,3.3153,3.3153,0.0,3.3153,3.3596,3.3922,3.3922,3.4377,3.449,3.3972,3.3922,3.3696,3.3178,3.3153,3.3153,3.3153,3.3128,3.3115,3.3102,3.3102,3.3102,3.3102,0.0,0.0,0.0,0.0,0.0,0.0,0.0,0.0,0.0,0.0,0.0,0.0,0.0,0.0,0.0,0.0,0.0,0.0,0.0,0.0,0.0,0.0,2.7011,2.8269,2.8173,2.8158,2.8747,2.8879,2.8786,2.8528,2.938,2.9791,2.94,2.9737,2.9811,2.9476,2.9916,3.0019,2.9704,3.0673,3.1378,3.1721,3.1378,3.1843,3.3102,3.2161,3.1721,3.1721,3.1721,3.1235,3.0463,3.1346,3.1721,3.1799,3.272,3.3102,3.3077,3.2927,3.2952,3.3077,3.2914,3.2964,3.3102,3.3102,3.3102,3.3102,3.3102,3.3102,3.3102,3.3102,3.3102,3.3102,3.3102,3.3102,3.3102,3.3102,3.3102,3.3203,3.3583,3.3671,3.3784,3.4186,3.4274,3.4274,3.4274,3.4274,3.4148,3.3746,3.401,3.4274,3.4274,3.4274,0.0,3.4274,3.4377,3.4477,3.4477,3.4603,3.464,3.449,3.4477,3.4414,3.4274,3.4274,3.4274,3.4274,3.3884,3.3504,3.3102,3.3102,3.3102,0.0,0.0,0.0,0.0,0.0,0.0,0.0,0.0,0.0,0.0,0.0,0.0,0.0,0.0,0.0,0.0,0.0,0.0,0.0,0.0,0.0,0.0,2.6313,2.7079,2.8558,2.8219,2.8036,2.864,2.852,2.8397,2.8411,2.8914,2.9162,2.8959,2.9216,2.9177,2.868,2.9131,2.9177,2.8657,2.9338,3.0023,3.0685,3.0216,3.0663,3.2104,3.1341,3.0986,3.0986,3.0986,3.0617,0.0,3.0686,3.0986,3.1043,3.1786,3.2092,0.0,0.0,0.0,0.0,0.0,3.3102,3.3102,3.3102,3.3102,3.3102,3.3102,3.3102,3.3102,3.3102,3.3102,3.3102,3.3102,3.285,3.2604,3.2604,3.2764,3.3022,3.3306,3.3821,3.4314,3.4628,3.4703,3.4703,3.4703,3.4891,0.0,3.4615,3.464,3.4703,3.4703,3.4703,3.4703,3.4703,3.4904,3.5042,3.5042,3.5255,3.5316,3.5067,3.5042,0.0,0.0,0.0,3.4703,3.4703,3.4389,0.0,0.0,0.0,3.3771,3.3771,0.0,0.0,0.0,3.3002,3.2751,0.0,0.0,0.0,0.0,0.0,0.0,0.0,0.0,0.0,0.0,0.0,0.0,0.0,0.0,0.0,0.0,2.6703,2.7064,2.8108,2.781,2.7745,2.841,2.749,2.7384,2.8834,2.8132,2.7979,2.8901,2.897,2.8518,2.7447,0.0,0.0,0.0,0.0,2.8414,2.9848,2.8796,2.9082,3.0695,3.055,3.0489,3.0489,3.0489,3.0405,3.0295,3.044,3.0489,3.0502,3.0647,3.0695,3.0833,3.2266,3.2919,3.3028,3.2885,3.2903,3.2962,3.2798,0.0,0.0,3.2729,3.2754,3.2754,3.2807,3.2819,3.2819,3.2819,3.2331,3.177,3.177,3.2228,3.2711,3.277,3.3701,3.4587,3.4661,3.4547,3.4421,3.4421,3.4945,3.5374,3.5374,3.5113,3.4879,3.4879,3.4879,3.4879,3.4879,3.5305,3.5596,3.5596,0.0,0.0,3.5656,3.5596,3.5406,3.4916,3.4879,3.4853,3.4791,3.4791,3.4766,3.4703,3.4703,3.4703,3.4703,3.4703,3.4703,3.4678,3.3721,3.3291,0.0,0.0,0.0,0.0,0.0,0.0,0.0,0.0,0.0,0.0,0.0,0.0,0.0,0.0,0.0,2.5532,2.5448,2.5638,2.6179,2.6156,2.6496,2.7666,2.7593,2.7164,2.649,2.7125,2.7268,2.6476,2.6428,2.6308,2.6086,2.6658,0.0,2.6646,2.7889,2.8712,2.9042,2.8796,2.9354,3.0695,0.0,0.0,2.9169,2.9169,2.8645,2.7769,2.8744,2.9169,2.9243,3.0284,3.0695,3.0732,3.1031,3.1821,3.2656,3.1564,3.1646,3.2137,3.0986,3.04,3.0159,3.048,3.0605,3.0662,3.105,3.1152,0.0,3.1152,3.1055,3.092,3.092,3.1807,3.2806,3.3244,3.3541,3.3862,3.4354,3.3566,3.2771,3.2771,3.3771,3.4607,3.4607,3.5433,3.6067,3.6067,3.6067,3.6067,3.6067,3.6168,3.623,3.623,3.6318,3.6344,3.6243,3.623,3.618,3.608,3.6067,3.5843,3.5357,3.5345,3.5132,3.4703,3.4703,3.4703,3.4703,3.4703,3.4703,3.469,3.4477,3.4377,0.0,0.0,0.0,0.0,0.0,0.0,0.0,0.0,0.0,0.0,0.0,2.6627,0.0,0.0,2.6169,2.5513,2.54,2.5478,2.5679,2.5693,2.5951,2.6572,2.6644,2.6404,2.5757,2.6269,2.648,2.6069,2.604,2.6128,2.6342,2.6557,2.6699,2.6699,2.7482,2.8011,2.8233,2.8233,2.8666,2.9483,2.8855,2.8567,2.8567,2.8567,2.8215,2.7682,2.8293,2.8567,2.8592,2.9239,2.9508,2.9508,2.9508,3.0392,3.1616,3.0947,3.1004,3.1295,3.0589,3.0218,3.0086,3.0273,3.0351,3.0396,3.0628,3.0695,3.0695,3.0695,3.0411,3.009,3.009,3.0809,3.1571,3.1831,3.2419,3.2981,3.3271,3.2794,3.2306,3.2306,3.2869,3.3353,3.3353,3.3897,3.4824,3.6179,3.6405,3.6405,3.6405,3.581,3.5667,3.6334,3.5786,3.5667,3.6334,3.6405,3.6405,3.6405,3.6405,3.6256,3.5968,3.5956,3.5818,3.5554,3.5542,3.5542,3.5542,3.5542,3.5542,3.5542,3.5542,3.5253,0.0,0.0,0.0,0.0,0.0,0.0,0.0,0.0,2.6852,2.6071,2.6601,2.6796,2.5452,2.5923,2.634,2.5795,2.5693,2.5693,2.5693,2.5786,2.5835,2.5835,2.5767,2.5747,2.5835,2.5835,2.602,2.6475,2.6514,2.666,2.6967,2.71,2.7139,2.7139,2.7217,2.7432,2.7809,2.7809,2.7985,2.8291,2.8291,2.8291,2.8291,2.8291,2.8291,2.8291,2.8291,2.8291,2.8291,2.8291,2.8291,2.8291,2.8291,2.909,3.0226,3.0226,3.0343,3.0486,3.0218,3.0065,3.0,3.0087,3.012,3.0142,3.0204,3.0226,3.0226,3.0226,2.977,2.9271,2.9271,2.9787,3.0292,3.0292,3.1122,3.1901,3.1901,3.1709,3.1553,3.1615,3.1867,3.2078,3.2141,3.2393,3.3261,3.5307,3.5669,3.5743,3.5743,3.4857,3.4671,3.5733,3.5149,3.5235,3.6576,3.6708,3.6708,3.6708,3.6708,3.6708,3.6708,3.6708,3.6658,3.6545,3.6568,3.6494,3.6405,3.6405,3.6444,3.6568,3.6568,3.6017,2.3054,2.3503,2.4163,2.5169,2.5014,2.4633,0.0,0.0,2.4858,2.5147,2.531,2.5449,2.56,2.5727,2.5795,2.5698,2.5693,2.5693,2.5693,2.6074,2.6318,2.6318,2.5952,2.5864,2.6279,2.6318,2.6484,2.6914,2.6918,2.6937,2.6986,2.7409,2.7624,2.7624,2.7985,2.8174,2.8223,2.8223,2.8252,2.8291,2.8291,2.8291,2.8291,2.8291,2.8291,2.8291,2.8291,2.8291,2.8291,2.8291,2.8291,2.8291,2.8291,2.8409,2.8575,2.8575,2.9089,2.9638,2.8465,2.7752,2.7494,2.7907,2.8046,2.8115,2.8466,2.8575,2.8575,2.8575,2.8509,2.8426,2.8426,2.9367,3.0292,3.0292,3.0421,3.0514,3.0514,2.9581,2.886,2.922,3.0282,3.1248,3.1623,3.2665,3.3313,3.2818,3.3118,3.3376,3.3376,3.3554,3.3735,3.3892,3.4951,3.6234,3.7691,3.7826,3.7826,3.7826,3.7826,3.7826,3.7826,3.7826,3.76,3.7122,3.7122,3.6884,3.6405,3.6405,3.6632,3.7122,3.7122,3.6783,2.3747,2.3991,2.4264,2.4698,2.4809,2.4818,2.4818,2.5,2.521,2.542,2.5459,2.5493,2.5679,2.5693,2.5693,0.0,2.5693,2.5806,2.6084,2.6279,2.6484,2.6728,2.6567,2.6528,2.6738,2.6758,2.6934,2.7363,2.7418,2.75,2.7744,2.793,2.8054,2.8054,2.8203,2.8291,2.8291,2.8291,2.8291,2.8291,2.8291,2.8291,2.8291,2.8291,2.8291,2.8291,2.8291,2.8291,2.8291,2.8291,2.8291,2.8291,2.8291,2.8291,2.8291,2.8291,2.8536,2.8814,2.8229,2.791,2.7793,2.7995,2.8054,2.8093,2.8242,2.8291,2.8291,2.8291,2.8291,2.8291,2.8291,2.8724,2.9128,2.9128,2.9319,2.9474,2.9474,2.9273,2.9119,2.9258,2.9774,3.0236,3.0417,3.0894,3.116,3.0777,3.2219,3.3339,3.3339,3.2804,3.2454,3.2454,3.3693,3.5114,3.6592,3.673,3.7094,3.7953,3.8002,3.7618,3.6755,3.7531,3.7083,3.5131,3.5951,3.5856,3.4777,3.564,3.5723,3.5131,3.6002,3.5806,2.4336,2.4479,2.459,2.459,2.4922,2.5278,2.5278,2.5484,2.5693,2.5693,2.5693,2.5693,2.5693,2.5693,2.5693,2.5693,2.5815,2.6001,2.6338,2.6617,2.6881,2.7158,2.7295,2.7373,2.7373,2.7266,2.7373,2.7829,2.7868,2.7995,2.8271,2.8291,2.8291,2.8291,2.8291,2.8291,2.8291,2.8291,2.8291,2.8291,2.8291,2.8291,2.8291,2.8291,2.8291,2.8291,2.8291,2.8291,2.8291,2.8291,2.8291,2.8291,2.8291,2.8291,2.8291,2.8291,2.8291,2.8291,2.8291,2.8291,2.8291,2.8291,2.8291,2.8291,2.8291,2.8291,2.8291,2.8291,2.8291,2.8291,2.8291,2.8379,2.8467,2.8467,2.8789,2.9092,2.9092,2.9373,2.9627,2.9745,2.9774,2.9813,2.994,2.996,2.996,2.996,3.1595,3.2798,3.2685,3.1942,3.1567,3.196,3.2868,3.4053,3.553,3.566,3.6102,3.7193,3.7269,3.6771,3.5712,3.6694,3.6161,3.3867,3.488,3.4811,3.3614,3.4673,3.4716,3.3841,3.4906,3.4934,0.0,0.0,2.5072,2.5072,2.5381,2.5689,2.5689,2.5698,2.5693,2.5693,2.5693,2.5693,2.5693,2.5693,2.5693,2.5693,2.6094,2.6367,2.6387,2.7125,2.7663,2.7673,2.8034,2.8252,0.0,2.7917,2.7848,2.8242,2.8271,2.8281,2.8291,2.8291,2.8291,2.8291,2.8291,2.8291,2.8291,2.8291,2.8291,2.8291,2.8291,2.8291,2.8291,2.8291,2.8291,2.8291,2.8291,2.8291,2.8291,2.8291,2.8291,2.8291,2.8291,2.8291,2.8291,2.8291,2.8291,2.8291,2.8291,2.8291,2.8291,2.8291,2.8291,2.8291,2.8291,2.8291,2.8291,2.8291,2.8291,2.8291,2.8291,2.8594,2.8869,2.8869,2.9238,2.9579,2.9579,2.9588,2.9715,3.0098,3.0176,3.0322,3.0771,3.085,3.085,3.085,3.0937,3.0828,3.0367,3.0653,3.1477,3.2894,3.3092,3.3701,3.5189,3.5326,3.5326,3.5392,3.5392,3.5353,3.5326,3.5353,3.5063,3.4381,3.4423,3.4162,3.3614,3.364,3.3901,3.437,3.4423,3.4719,0.0,0.0,2.5493,2.5493,2.5601,2.5693,2.5693,2.5693,2.5693,2.5693,2.5693,2.5693,2.5693,2.5693,2.5693,2.5693,2.6079,2.6484,2.6768,2.733,2.78,2.8073,2.8203,0.0,0.0,0.0,0.0,2.8281,2.8291,2.8291,2.8291,2.8291,2.8291,2.8291,2.8291,2.8291,2.8291,2.8291,2.8291,2.8301,2.8574,2.8857,2.9168,2.9168,2.9168,2.9168,2.9168,2.9168,2.9168,2.9168,2.9168,2.9168,2.9168,2.9168,2.9168,2.9168,2.9168,2.909,2.8486,2.8291,2.8291,2.8291,2.8291,2.8291,2.8291,2.8486,2.8711,2.8711,2.8916,2.9168,2.9168,2.9266,2.9346,2.9346,2.9706,2.999,2.999,3.0225,3.0488,3.0635,3.0654,3.0703,3.0859,3.0889,3.0889,3.0889,3.0889,3.083,3.0674,3.0791,3.1083,3.1575,3.1633,3.2236,3.3715,3.3856,3.4264,3.5233,3.5288,3.4847,3.3884,3.4792,3.4282,3.2125,3.3033,3.2959,3.1804,3.2773,3.2857,3.2086,3.3089,3.3128,0.0,2.5693,2.5693,2.5693,2.5693,2.5693,2.5693,2.5693,2.5693,2.5693,2.5693,2.5693,2.5693,2.5693,2.5693,2.5693,2.6206,2.6709,2.6947,2.7519,2.8015,2.8262,2.8291,2.8291,0.0,0.0,0.0,2.8291,2.8291,2.8291,2.8291,2.8291,2.8291,2.8291,2.8291,2.8291,2.8291,2.8437,2.8594,2.8777,2.9023,2.9297,2.9598,2.9598,2.9598,2.9598,2.9598,2.9598,2.9598,2.9598,2.9598,2.9598,2.9598,2.9598,2.9598,2.9598,2.9598,2.952,2.8963,2.875,2.875,2.875,2.875,2.875,2.875,2.8935,2.915,2.915,2.9383,2.9598,2.9598,2.9715,2.9823,2.9823,3.0155,3.0449,3.0449,3.0684,3.0889,3.0889,3.0889,3.0889,3.0889,3.0889,3.0889,3.0889,3.0889,3.0889,3.0889,3.0889,3.0889,3.0889,3.0889,3.1276,3.2226,3.2311,3.2729,3.367,3.3726,3.3314,3.234,3.3229,3.2853,3.0947,3.1815,3.1854,3.0889,3.1854,3.1825,3.0918,3.1872,3.1825,2.5693,2.5693,2.5693,2.5693,2.5693,2.5693,2.5693,2.5693,2.5693,2.5693,2.5693,2.5693,0.0,0.0,2.5693,2.5693,2.643,2.6986,2.6986,2.7754,2.8291,0.0,0.0,0.0,0.0,0.0,0.0,2.8291,0.0,2.8291,2.8291,2.8291,2.8291,2.8291,2.8291,2.8301,2.833,2.874,2.917,2.9627,2.9627,2.9647,2.9667,2.9667,2.9667,2.9667,2.9667,2.9667,2.9667,2.9667,2.9667,2.9667,2.9667,2.9667,2.9667,2.9667,2.9667,2.9667,2.9667,2.9637,2.9598,2.9598,2.9598,2.9598,2.9598,2.9618,2.9627,2.9627,2.9647,2.9667,2.9667,2.996,3.0234,3.0234,3.0566,3.0889,3.0889,3.0889,3.0889,3.0889,3.0889,3.0889,3.0889,3.0889,3.0889,3.0889,3.0889,3.0889,3.0889,3.0889,3.0889,3.0889,3.0889,3.0889,3.0889,3.0889,3.0889,3.0889,3.0889,3.0889,3.0889,3.0889,3.0889,3.0889,3.0889,3.0889,3.0889,3.0889,3.0889,3.0889,3.0889,3.0889,2.5693,2.5693,2.5693,2.5693,2.5693,2.5693,2.5693,2.5693,2.5693,2.5693,2.5693,2.5693,0.0,0.0,0.0,2.5693,2.643,0.0,2.6986,2.7754,0.0,2.8291,0.0,2.8291,2.8291,2.8291,0.0,0.0,2.8291,2.8291,2.8291,2.8291,2.8291,2.8291,2.8291,2.8437,2.875,2.9189,2.9619,3.0039,3.0039,3.0215,3.0585,3.0585,3.0585,3.0585,3.0585,3.0585,3.0585,3.0585,3.0585,3.0585,3.0585,3.0585,3.0585,3.0585,3.0585,3.0585,3.0585,3.0146,2.9598,2.9598,2.9598,2.9598,2.9598,2.9813,3.0039,3.0039,3.0283,3.0585,3.0585,3.0635,3.0713,3.0713,3.0801,3.0889,3.0889,3.0889,3.0889,3.0889,3.0889,3.0889,3.0889,3.0889,3.0889,3.0889,3.0889,3.0889,3.0889,3.0889,3.0889,3.0889,3.0889,3.0889,3.0889,3.0889,3.0889,3.0889,3.0889,3.0889,3.0889,3.0889,3.0889,3.0889,3.0889,3.0889,3.0889,3.0889,3.0889,3.0889,3.0889,3.0889,2.5693,2.5693,2.5693,2.5693,2.5693,2.5693,2.5693,2.5693,2.5693,2.5693,2.5693,0.0,2.5693,2.5693,0.0,0.0,0.0,0.0,2.6102,2.681,2.7555,0.0,2.8291,0.0,2.7394,2.7924,2.804,0.0,2.7924,2.8291,2.8291,2.8291,2.8291,2.8291,2.8467,2.8857,2.9445,2.9726,3.0068,3.0508,3.0508,3.0635,3.0889,3.0889,3.0889,3.0889,0.0,3.0889,3.0889,3.0889,3.0889,3.0889,3.0889,3.0889,3.0889,3.0889,3.0889,3.0889,3.0889,3.0595,3.0175,3.0175,3.0175,3.0175,3.0175,3.0341,3.0508,3.0508,3.0693,3.0889,3.0889,3.0889,3.0889,3.0889,3.0889,3.0889,3.0889,3.0889,3.0889,3.0889,3.0889,3.0889,3.0889,3.0889,3.0889,3.0889,3.0889,3.0889,3.0889,3.0889,3.0889,3.0889,3.0889,3.0889,3.0889,3.0889,3.0889,3.0889,3.0889,3.0889,3.0889,3.0889,3.0889,3.0889,3.0889,3.0889,3.0889,3.0889,3.0889,3.0889,3.0889,3.0889,2.5693,2.5693,2.5693,2.5693,2.5693,2.5693,2.5693,2.5693,2.5693,2.5693,0.0,2.5693,2.5693,2.5562,2.5045,2.389,0.0,2.4577,2.4681,2.5326,2.6273,2.7565,2.7699,2.7195,2.5936,2.6943,2.7168,2.59,2.7168,2.8094,2.8291,2.8291,2.831,2.8369,2.8789,2.9394,3.0185,3.0264,3.0488,3.0889,3.0889,3.0889,3.0889,3.0889,3.0889,3.0889,0.0,0.0,3.0889,3.0889,3.0889,3.0889,3.0889,3.0889,3.0889,3.0889,3.0889,3.0889,3.0889,3.0889,3.0889,3.0889,3.0889,3.0889,3.0889,3.0889,3.0889,3.0889,3.0889,3.0889,3.0889,3.0889,3.0889,3.0889,3.0889,3.0889,3.0889,3.0889,3.0889,3.0889,3.0889,3.0889,3.0889,3.0889,3.0889,3.0889,3.0889,3.0889,3.0889,3.0889,3.0889,3.0889,3.0889,3.0889,3.0889,3.0889,3.0889,3.0889,3.0889,3.0889,3.0889,3.0889,3.0889,3.0889,3.0889,3.0889,3.0889,3.0889,3.0889,3.0889,3.0889,3.0889,2.5693,2.5693,2.5693,2.5693,2.5693,2.5693,2.5693,2.5693,0.0,0.0,2.5693,2.5693,2.5693,2.479,2.3973,2.3741,2.3341,2.3059,2.3094,2.3722,2.4294,0.0,2.458,2.4488,0.0,0.0,0.0,0.0,0.0,2.7024,2.8237,2.8291,2.8447,2.8799,2.9228,2.9725,3.0195,3.0576,3.081,3.0889,3.0889,3.0889,3.0889,3.0889,3.0889,3.0889,3.0889,0.0,3.0889,3.0889,3.0889,3.0889,3.0889,3.0889,3.0889,3.0889,3.0889,3.0889,3.0889,3.0889,3.0889,3.0889,3.0889,3.0889,3.0889,3.0889,3.0889,3.0889,3.0889,3.0889,3.0889,3.0889,3.0889,3.0889,3.0889,3.0889,3.0889,3.0889,3.0889,3.0889,3.0889,3.0889,3.0889,3.0889,3.0889,3.0889,3.0889,3.0889,3.0889,3.0889,3.0889,3.0889,3.0889,3.0889,3.0889,3.0889,3.0889,3.0889,3.0889,3.0889,3.0889,3.0889,3.0889,3.0889,3.0889,3.0889,3.0889,3.0889,3.0889,3.0889,3.0889,3.0889,2.5693,2.5693,2.5693,2.5693,2.5693,2.5504,2.4815,0.0,0.0,0.0,2.3617,2.3617,2.3617,2.3101,0.0,2.1684,2.1438,2.1421,2.1621,2.2084,0.0,2.3686,2.3794,2.3487,0.0,0.0,0.0,0.0,0.0,2.5572,2.7078,2.8072,2.8818,2.9248,2.9706,3.0107,3.0557,3.0781,3.0889,3.0889,3.0889,3.0889,3.0889,3.0889,3.0889,3.0889,3.0889,0.0,3.0889,3.0889,3.0889,3.0889,3.0889,3.0889,3.0889,3.0889,3.0889,3.0889,3.0889,3.0889,3.0889,3.0889,3.0889,3.0889,3.0889,3.0889,3.0889,3.0889,3.0889,3.0889,3.0889,3.0889,3.0889,3.0889,3.0889,3.0889,3.0889,3.0889,3.0889,3.0889,3.0889,3.0889,3.0889,3.0889,3.0889,3.0889,3.0889,3.0889,3.0889,3.0889,3.0889,3.0889,3.0889,3.0889,3.0889,3.0889,3.0889,3.0889,3.0889,3.0889,3.0889,3.0889,3.0889,3.0889,3.0889,3.0889,3.0889,3.0889,3.0889,3.0889,3.0889,3.0889,2.5693,2.5693,2.5635,2.5323,2.5274,2.4996,2.3939,2.3692,0.0,2.2366,2.2131,2.203,2.1752,2.1448,2.0896,0.0,1.963,1.9794,2.0162,2.0457,2.1192,0.0,2.285,0.0,0.0,0.0,0.0,0.0,0.0,0.0,2.5991,2.7581,2.8781,2.9588,2.998,3.042,3.0889,3.0889,3.0889,3.0889,3.0889,3.0889,3.0889,3.0889,3.0889,3.0889,3.0889,0.0,0.0,3.0889,3.0889,3.0889,3.0889,3.0889,3.0889,3.0889,3.0889,3.0889,3.0889,3.0889,3.0889,3.0889,3.0889,3.0889,3.0889,3.0889,3.0889,3.0889,3.0889,3.0889,3.0889,3.0889,3.0889,3.0889,3.0889,3.0889,3.0889,3.0889,3.0889,3.0889,3.0889,3.0889,3.0889,3.0889,3.0889,3.0889,3.0889,3.0889,3.0889,3.0889,3.0889,3.0889,3.0889,3.0889,3.0889,3.0889,3.0889,3.0889,3.0889,3.0889,3.0889,3.0889,3.0889,3.0889,3.0889,3.0889,3.0889,3.0889,3.0889,3.0889,3.0889,3.0889,2.5693,2.5693,2.5406,2.4196,2.3865,2.384,2.3741,0.0,2.3667,2.3534,2.3509,2.3151,2.1929,2.0666,1.9757,0.0,0.0,1.8306,1.8665,1.8927,1.9281,1.9752,0.0,0.0,0.0,0.0,0.0,0.0,0.0,0.0,2.5955,2.6608,2.7726,2.9523,2.998,3.042,3.0889,3.0889,3.0889,3.0889,3.0889,3.0889,3.0889,3.0889,3.0889,3.0889,3.0889,0.0,0.0,3.0889,3.0889,3.0889,3.0889,3.0889,3.0889,3.0889,3.0889,3.0889,3.0889,3.0889,3.0889,3.0889,3.0889,3.0889,3.0889,3.0889,3.0889,3.0889,3.0889,3.0889,3.0889,3.0889,3.0889,3.0889,3.0889,3.0889,3.0889,3.0889,3.0889,3.0889,3.0889,3.0889,3.0889,3.0889,3.0889,3.0889,3.0889,3.0889,3.0889,3.0889,3.0889,3.0889,3.0889,3.0889,3.0889,3.0889,3.0889,3.0889,3.0889,3.0889,3.0889,3.0889,3.0889,3.0889,3.0889,3.0889,3.0889,3.0889,3.0889,3.0889,3.0889,3.0889,2.5693,2.5693,2.5562,2.5045,2.4304,2.3484,2.2667,0.0,2.0998,2.0179,2.0033,1.9878,1.9343,1.8779,1.8401,1.8401,1.8046,0.0,1.8424,1.8591,1.8838,1.9341,1.9395,0.0,0.0,0.0,0.0,0.0,0.0,0.0,2.3283,2.5715,2.7432,2.8192,2.9776,3.0703,3.0889,3.0889,3.0889,3.0889,3.0889,3.0889,3.0889,3.0889,3.0889,3.0889,3.0889,0.0,0.0,3.0889,3.0889,3.0889,3.0889,3.0889,3.0889,3.0889,3.0889,3.0889,3.0889,3.0889,3.0889,3.0889,3.0889,3.0889,3.0889,3.0889,3.0889,3.0889,3.0889,3.0889,3.0889,3.0889,3.0889,3.0889,3.0889,3.0889,3.0889,3.0889,3.0889,3.0889,3.0889,3.0889,3.0889,3.0889,3.0889,3.0889,3.0889,3.0889,3.0889,3.0889,3.0889,3.0889,3.0889,3.0889,3.0889,3.0889,3.0889,3.0889,3.0889,3.0889,3.0889,3.0889,3.0889,3.0889,3.0889,3.0889,3.0889,3.0889,3.0889,3.0889,3.0889,3.0889,2.4596,2.4535,2.4427,2.3998,2.3185,2.224,0.0,0.0,1.9324,1.8375,1.8199,1.8068,1.7661,1.7608,1.7608,1.7608,1.7608,1.7789,1.8283,1.8437,1.8677,0.0,0.0,0.0,0.0,0.0,0.0,0.0,0.0,0.0,0.0,2.4036,2.6274,2.7264,2.9651,3.0889,3.0889,3.0889,3.0889,3.0889,3.0889,3.0889,3.0889,3.0889,3.0889,3.0889,0.0,0.0,0.0,3.0889,3.0889,3.0889,3.0889,3.0889,3.0889,3.0889,3.0889,3.0889,3.0889,3.0889,3.0889,3.0889,3.0889,3.0889,3.0889,3.0889,3.0889,3.0889,3.0889,3.0889,3.0889,3.0889,3.0889,3.0889,3.0889,3.0889,3.0889,3.0889,3.0889,3.0889,3.0889,3.0889,3.0889,3.0889,3.0889,3.0889,3.0889,3.0889,3.0889,3.0889,3.0889,3.0889,3.0889,3.0889,3.0889,3.0889,3.0889,3.0889,3.0889,3.0889,3.0889,3.0889,3.0889,3.0889,3.0889,3.0889,3.0889,3.0889,3.0889,3.0889,3.0889,3.0889,2.1979,2.1752,2.1423,2.0007,1.9653,1.9627,1.9627,1.9602,1.9602,1.9576,1.9576,1.9169,1.7838,1.7608,1.7608,1.7608,1.7608,1.7695,1.7982,1.8276,1.8597,0.0,0.0,0.0,0.0,0.0,0.0,0.0,0.0,0.0,0.0,2.122,2.3804,2.7198,2.9651,3.0889,3.0889,3.0889,3.0889,3.0889,3.0889,3.0889,3.0889,3.0889,3.0889,0.0,0.0,0.0,0.0,3.0889,3.0889,3.0889,3.0889,3.0889,3.0889,3.0889,3.0889,3.0889,3.0889,3.0889,3.0889,3.0889,3.0889,3.0889,3.0889,3.0889,3.0889,3.0889,3.0889,3.0889,3.0889,3.0889,3.0889,3.0889,3.0889,3.0889,3.0889,3.0889,3.0889,3.0889,3.0889,3.0889,3.0889,3.0889,3.0889,3.0889,3.0889,3.0889,3.0889,3.0889,3.0889,3.0889,3.0889,3.0889,3.0889,3.0889,3.0889,3.0889,3.0889,3.0889,3.0889,3.0889,3.0889,3.0889,3.0889,3.0889,3.0889,3.0889,3.0889,3.0889,3.0889,3.0889,2.26,2.1999,2.1312,2.1087,2.0308,1.9602,1.9602,1.889,1.8225,1.8225,1.8225,1.8094,1.7687,1.7608,1.7608,1.7608,1.7608,0.0,0.0,0.0,0.0,1.8856,0.0,0.0,0.0,0.0,0.0,0.0,0.0,0.0,0.0,2.1191,2.3312,2.5736,2.7837,2.9551,3.0889,3.0889,3.0889,3.0889,3.0889,3.0889,3.0889,3.0889,0.0,0.0,0.0,0.0,0.0,3.0889,3.0889,3.0889,3.0889,3.0889,3.0889,3.0889,3.0889,3.0889,3.0889,3.0889,3.0889,3.0889,3.0889,3.0889,3.0889,3.0889,3.0889,3.0889,3.0889,3.0889,3.0889,3.0889,3.0889,3.0889,3.0889,3.0889,3.0889,3.0889,3.0889,3.0889,3.0889,3.0889,3.0889,3.0889,3.0889,3.0889,3.0889,3.0889,3.0889,3.0889,3.0889,3.0889,3.0889,3.0889,3.0889,3.0889,3.0889,3.0889,3.0889,3.0889,3.0889,3.0889,3.0889,3.0889,3.0889,3.0889,3.0889,3.0889,3.0889,3.0889,3.0889,3.0889,0.0,2.0073,1.9589,1.9928,1.9338,0.0,1.8809,1.8199,1.7608,1.7608,1.7608,1.7608,1.7608,1.7608,1.7608,1.7608,1.7608,0.0,0.0,0.0,0.0,0.0,0.0,0.0,0.0,0.0,0.0,0.0,0.0,0.0,0.0,2.0518,2.2013,2.3956,2.6429,2.8403,2.9783,3.0364,3.0713,3.0889,3.0889,3.0889,3.0889,3.0889,0.0,0.0,0.0,0.0,0.0,3.0889,3.0889,3.0889,3.0889,3.0889,3.0889,3.0889,3.0889,3.0889,3.0889,3.0889,3.0889,3.0889,3.0889,3.0889,3.0889,3.0889,3.0889,3.0889,3.0889,3.0889,3.0889,3.0889,3.0889,3.0889,3.0889,3.0889,3.0889,3.0889,3.0889,3.0889,3.0889,3.0889,3.0889,3.0889,3.0889,3.0889,3.0889,3.0889,3.0889,3.0889,3.0889,3.0889,3.0889,3.0889,3.0889,3.0889,3.0889,3.0889,3.0889,3.0889,3.0889,3.0889,3.0889,3.0889,3.0889,3.0889,3.0889,3.0889,3.0889,3.0889,3.0889,3.0889,0.0,1.666,1.6747,1.7066,1.7186,1.7273,1.7515,1.7595,0.0,1.7608,1.7608,1.7608,1.7608,1.7608,1.7608,1.7608,0.0,0.0,0.0,1.813,0.0,0.0,0.0,0.0,0.0,0.0,0.0,0.0,0.0,0.0,0.0,1.9395,2.0193,2.194,2.5165,2.7247,2.7941,2.9413,3.0371,3.0801,3.083,3.084,3.084,3.0869,0.0,0.0,0.0,0.0,0.0,3.0889,3.0889,3.0889,3.0889,3.0889,3.0889,3.0889,3.0889,3.0889,3.0889,3.0889,3.0889,3.0889,3.0889,3.0889,3.0889,3.0889,3.0889,3.0889,3.0889,3.0889,3.0889,3.0889,3.0889,3.0889,3.0889,3.0889,3.0889,3.0889,3.0889,3.0889,3.0889,3.0889,3.0889,3.0889,3.0889,3.0889,3.0889,3.0889,3.0889,3.0889,3.0889,3.0889,3.0889,3.0889,3.0889,3.0889,3.0889,3.0889,3.0889,3.0889,3.0889,3.0889,3.0889,3.0889,3.0889,3.0889,3.0889,3.0889,3.0889,3.0889,3.0889,3.0889,1.6399,0.0,1.6471,1.6765,1.7006,1.7219,0.0,0.0,0.0,0.0,0.0,0.0,0.0,1.7608,1.7608,0.0,0.0,0.0,1.7608,0.0,0.0,0.0,0.0,0.0,0.0,0.0,0.0,0.0,0.0,0.0,0.0,1.9395,1.9596,2.0056,2.1923,2.4412,2.7429,2.8984,2.9803,2.9911,3.0205,3.0361,3.0371,3.0732,0.0,0.0,0.0,0.0,3.0889,3.0889,3.0889,3.0889,3.0889,3.0889,3.0889,3.0889,3.0889,3.0889,3.0889,3.0889,3.0889,3.0889,3.0889,3.0889,3.0889,3.0889,3.0889,3.0889,3.0889,3.0889,3.0889,3.0889,3.0889,3.0889,3.0889,3.0889,3.0889,3.0889,3.0889,3.0889,3.0889,3.0889,3.0889,3.0889,3.0889,3.0889,3.0889,3.0889,3.0889,3.0889,3.0889,3.0889,3.0889,3.0889,3.0889,3.0889,3.0889,3.0889,3.0889,3.0889,3.0889,3.0889,3.0889,3.0889,3.0889,3.0889,3.0889,3.0889,3.0889,3.0889,3.0889,3.0889,1.6157,1.5921,1.6139,1.6433,1.6752,1.7006,1.7172,0.0,0.0,0.0,0.0,0.0,0.0,0.0,0.0,0.0,1.7608,0.0,0.0,0.0,0.0,0.0,0.0,0.0,0.0,0.0,0.0,0.0,0.0,0.0,0.0,1.9395,1.9395,1.9395,2.0838,2.3018,2.5983,2.7519,2.8715,2.9598,2.9823,2.9912,2.9912,3.0204,3.0312,0.0,0.0,0.0,3.0312,3.0312,3.0312,3.0312,3.0312,3.0312,3.0341,3.0498,3.0576,3.0605,3.082,3.0889,3.0889,3.0889,3.0889,3.0889,3.0889,3.0889,3.0889,3.0889,3.0889,3.0889,3.0889,3.0889,3.0889,3.0889,3.0889,3.0889,3.0889,3.0889,3.0889,3.0889,3.0889,3.0889,3.0889,3.0889,3.0889,3.0889,3.0889,3.0889,3.0889,3.0889,3.0889,3.0889,3.0889,3.0889,3.0889,3.0889,3.0889,3.0889,3.0889,3.0889,3.0889,3.0889,3.0889,3.0889,3.0889,3.0889,3.0889,3.0889,3.0889,3.0889,3.0889,3.0889,1.6072,1.5808,1.5861,1.6146,1.6453,1.6774,1.7046,0.0,0.0,0.0,0.0,0.0,0.0,1.7608,0.0,0.0,0.0,0.0,0.0,0.0,0.0,0.0,0.0,0.0,0.0,0.0,0.0,0.0,0.0,0.0,0.0,1.9395,1.9395,1.9395,2.0616,2.2169,2.4028,2.574,2.7447,2.9078,2.935,2.95,2.95,2.9569,2.9598,0.0,0.0,0.0,2.9598,2.9598,2.9598,2.9598,2.9598,2.9598,2.9647,2.9971,3.0098,3.0166,3.0625,3.083,3.0889,3.0889,3.0889,3.0889,3.0889,3.0889,3.0889,3.0889,3.0889,3.0889,3.0889,3.0889,3.0889,3.0889,3.0889,3.0889,3.0889,3.0889,3.0889,3.0889,3.0889,3.0889,3.0889,3.0889,3.0889,3.0889,3.0889,3.0889,3.0889,3.0889,3.0889,3.0889,3.0889,3.0889,3.0889,3.0889,3.0889,3.0889,3.0889,3.0889,3.0889,3.0889,3.0889,3.0889,3.0889,3.0889,3.0889,3.0889,3.0889,3.0889,3.0889,3.0889,1.5782,1.5808,1.5815,1.5861,1.6282,1.6714,1.6767,0.0,0.0,0.0,0.0,0.0,0.0,1.7608,1.7608,0.0,0.0,0.0,0.0,0.0,0.0,0.0,0.0,0.0,0.0,0.0,0.0,0.0,0.0,0.0,0.0,1.9395,1.9395,1.9395,1.962,2.0479,2.2023,2.4795,2.6336,2.6646,2.8245,2.9023,2.9033,2.9432,2.9598,0.0,0.0,2.9598,2.9598,2.9598,2.9598,2.9598,2.9598,2.9598,2.9608,2.9676,2.9696,2.9755,3.0156,3.0566,3.0889,3.0889,3.0889,3.0889,3.0889,3.0889,3.0889,3.0889,3.0889,3.0889,3.0889,3.0889,3.0889,3.0889,3.0889,3.0889,3.0889,3.0889,3.0889,3.0889,3.0889,3.0889,3.0889,3.0889,3.0889,3.0889,3.0889,3.0889,3.0889,3.0889,3.0889,3.0889,3.0889,3.0889,3.0889,3.0889,3.0889,3.0889,3.0889,3.0889,3.0889,3.0889,3.0889,3.0889,3.0889,3.0889,3.0889,3.0889,3.0889,3.0889,3.0889,3.0889,1.5728,1.5808,1.5808,1.5808,1.6248,1.6707,1.6707,0.0,0.0,0.0,0.0,0.0,0.0,0.0,1.7608,1.7608,0.0,0.0,0.0,0.0,0.0,0.0,0.0,0.0,0.0,0.0,0.0,0.0,0.0,0.0,0.0,0.0,1.9395,1.9395,1.9395,1.9729,2.0393,2.2597,2.448,2.61,2.6956,2.7814,2.8584,2.8789,2.8904,2.8904,0.0,2.8904,2.8904,2.8904,2.8904,2.8904,2.8904,2.8904,2.8906,2.9131,2.9365,2.9657,3.0049,3.0332,3.0557,3.081,3.0889,3.0889,3.0889,3.0889,3.0889,3.0889,3.0889,3.0889,3.0889,3.0889,3.0889,3.0889,3.0889,3.0889,3.0889,3.0889,3.0889,3.0889,3.0889,3.0889,3.0889,3.0889,3.0889,3.0889,3.0889,3.0889,3.0889,3.0889,3.0889,3.0889,3.0889,3.0889,3.0889,3.0889,3.0889,3.0889,3.0889,3.0889,3.0889,3.0889,3.0889,3.0889,3.0889,3.0889,3.0889,3.0889,3.0889,3.0889,3.0889,3.0889,1.5628,1.5755,1.5821,1.5888,0.0,0.0,0.0,0.0,0.0,0.0,0.0,0.0,0.0,1.7608,0.0,1.7608,0.0,0.0,0.0,0.0,0.0,0.0,0.0,0.0,0.0,0.0,0.0,0.0,0.0,0.0,0.0,0.0,1.9395,1.9395,1.9395,1.9395,1.9395,2.0508,2.2589,2.5572,2.5927,2.6852,2.8291,2.8291,2.8291,2.8291,2.8291,2.8291,2.8291,2.8291,2.8291,2.8291,2.8291,2.8291,2.833,2.8652,2.9043,2.9491,2.9785,3.0029,3.0254,3.0615,3.0801,3.0889,3.0889,3.0889,3.0889,3.0889,3.0889,3.0889,3.0889,3.0889,3.0889,3.0889,3.0889,3.0889,3.0889,3.0889,3.0889,3.0889,3.0889,3.0889,3.0889,3.0889,3.0889,3.0889,3.0889,3.0889,3.0889,3.0889,3.0889,3.0889,3.0889,3.0889,3.0889,3.0889,3.0889,3.0889,3.0889,3.0889,3.0889,3.0889,3.0889,3.0889,3.0889,3.0889,3.0889,3.0889,3.0889,3.0889,3.0889,3.0889,1.5351,1.5601,1.5868,1.6197,1.6473,0.0,1.6707,1.7161,0.0,1.7608,0.0,0.0,0.0,1.7608,1.7608,0.0,0.0,0.0,0.0,0.0,0.0,0.0,0.0,0.0,0.0,0.0,0.0,0.0,0.0,0.0,0.0,0.0,0.0,1.9395,1.9395,1.9395,1.9395,1.9511,2.1045,2.3989,2.5407,2.6852,2.8291,2.8291,2.8291,2.8291,2.8291,2.8291,2.8291,2.8291,2.8291,2.8291,2.8291,2.8291,2.8301,2.833,2.8603,2.8947,2.8976,2.9531,3.0205,3.0234,3.0537,3.0889,3.0889,3.0889,3.0889,3.0889,3.0889,3.0889,3.0889,3.0889,3.0889,3.0889,3.0889,3.0889,3.0889,3.0889,3.0889,3.0889,3.0889,3.0889,3.0889,3.0889,3.0889,3.0889,3.0889,3.0889,3.0889,3.0889,3.0889,3.0889,3.0889,3.0889,3.0889,3.0889,3.0889,3.0889,3.0889,3.0889,3.0889,3.0889,3.0889,3.0889,3.0889,3.0889,3.0889,3.0889,3.0889,3.0889,3.0889,3.0889,1.534,1.5611,1.5875,1.6223,1.6486,0.0,0.0,1.7321,1.7608,1.7608,1.7608,0.0,0.0,0.0,1.7608,0.0,0.0,0.0,0.0,0.0,0.0,0.0,0.0,0.0,0.0,0.0,0.0,0.0,0.0,0.0,0.0,0.0,0.0,1.9395,1.9395,1.9395,1.9395,1.9395,2.0429,2.2448,2.3961,2.5936,2.8291,2.8291,2.8291,2.8291,2.8291,2.8291,2.8291,2.8291,2.8291,2.8291,2.8291,2.8291,2.8291,2.8291,2.8398,2.8564,2.8801,2.9103,2.9492,3.0019,3.0322,3.0518,3.0801,3.0889,3.0889,3.0889,3.0889,3.0889,3.0889,3.0889,3.0889,3.0889,3.0889,3.0889,3.0889,3.0889,3.0889,3.0889,3.0889,3.0889,3.0889,3.0889,3.0889,3.0889,3.0889,3.0889,3.0889,3.0889,3.0889,3.0889,3.0889,3.0889,3.0889,3.0889,3.0889,3.0889,3.0889,3.0889,3.0889,3.0889,3.0889,3.0889,3.0889,3.0889,3.0889,3.0889,3.0889,3.0889,3.0889,3.0889,1.5227,1.5605,1.6039,1.6364,0.0,0.0,1.7247,1.7468,1.7608,1.7608,1.7608,0.0,0.0,0.0,0.0,0.0,0.0,0.0,0.0,0.0,0.0,0.0,0.0,0.0,0.0,0.0,0.0,0.0,0.0,0.0,0.0,0.0,0.0,0.0,1.9395,1.9395,1.9395,1.9395,2.0148,2.1607,2.2617,2.4682,2.7618,2.8094,2.8291,2.8291,2.8291,2.8291,2.8291,2.8291,2.8291,2.8291,2.8291,2.8291,2.8291,2.8291,2.8291,2.833,2.8623,2.8781,2.8986,2.9609,2.998,3.0254,3.0576,3.0771,3.0889,3.0889,3.0889,3.0889,3.0889,3.0889,3.0889,3.0889,3.0889,3.0889,3.0889,3.0889,3.0889,3.0889,3.0889,3.0889,3.0889,3.0889,3.0889,3.0889,3.0889,3.0889,3.0889,3.0889,3.0889,3.0889,3.0889,3.0889,3.0889,3.0889,3.0889,3.0889,3.0889,3.0889,3.0889,3.0889,3.0889,3.0889,3.0889,3.0889,3.0889,3.0889,3.0889,3.0889,3.0889,3.0889,1.5008,1.5651,1.6364,1.6633,0.0,0.0,1.7541,1.7608,1.7608,1.7608,1.7608,1.7608,1.7608,0.0,0.0,0.0,0.0,0.0,0.0,0.0,0.0,0.0,0.0,0.0,0.0,0.0,0.0,0.0,0.0,0.0,0.0,0.0,0.0,0.0,1.9395,1.9395,1.9395,1.9395,2.0119,2.1586,2.1578,2.3171,2.6155,2.7609,2.8291,2.8291,2.8291,2.8291,2.8291,2.8291,2.8291,2.8291,2.8291,2.8291,2.8291,2.8291,2.8291,2.8291,2.8291,2.8564,2.8889,2.8889,2.9492,3.0185,3.0195,3.0518,3.0889,3.0889,3.0889,3.0889,3.0889,3.0889,3.0889,3.0889,3.0889,3.0889,3.0889,3.0889,3.0889,3.0889,3.0889,3.0889,3.0889,3.0889,3.0889,3.0889,3.0889,3.0889,3.0889,3.0889,3.0889,3.0889,3.0889,3.0889,3.0889,3.0889,3.0889,3.0889,3.0889,3.0889,3.0889,3.0889,3.0889,3.0889,3.0889,3.0889,3.0889,3.0889,3.0889,3.0889,3.0889,3.0889,1.5008,1.5651,1.6364,1.6633,0.0,0.0,0.0,1.7608,0.0,0.0,1.7608,1.7608,1.7608,0.0,0.0,0.0,0.0,0.0,0.0,0.0,0.0,0.0,0.0,0.0,0.0,0.0,0.0,0.0,0.0,0.0,0.0,0.0,0.0,0.0,1.9395,1.9395,1.9395,1.9395,1.962,2.0061,2.1088,2.3171,2.6127,2.6545,2.7313,2.8291,2.8291,2.8291,2.8291,2.8291,2.8291,2.8291,2.8291,2.8291,2.8291,2.8291,2.8291,2.8291,2.8291,2.8369,2.8525,2.8818,2.9297,2.9843,3.0107,3.0518,3.0889,3.0889,3.0889,3.0889,3.0889,3.0889,3.0889,3.0889,3.0889,3.0889,3.0889,3.0889,3.0889,3.0889,3.0889,3.0889,3.0889,3.0889,3.0889,3.0889,3.0889,3.0889,3.0889,3.0889,3.0889,3.0889,3.0889,3.0889,3.0889,3.0889,3.0889,3.0889,3.0889,3.0889,3.0889,3.0889,3.0889,3.0889,3.0889,3.0889,3.0889,3.0889,3.0889,3.0889,3.0889,3.0889,1.5008,1.5715,1.6511,1.666,1.7014,1.7394,1.7568,0.0,0.0,0.0,0.0,1.7608,1.7608,0.0,0.0,0.0,0.0,0.0,0.0,0.0,0.0,0.0,0.0,0.0,0.0,0.0,0.0,0.0,0.0,0.0,0.0,0.0,0.0,0.0,1.9395,1.9395,1.9395,1.9395,1.9395,1.9424,2.0314,2.1983,2.4341,2.5544,2.6906,2.8291,2.8291,2.8291,2.8291,2.8291,2.8291,2.8291,2.8291,2.8291,2.8291,2.8291,2.8291,2.8291,2.8291,2.8291,2.833,2.8584,2.8955,2.9394,2.9814,3.0264,3.0654,3.084,3.0889,3.0889,3.0889,3.0889,3.0889,3.0889,3.0889,3.0889,3.0889,3.0889,3.0889,3.0889,3.0889,3.0889,3.0889,3.0889,3.0889,3.0889,3.0889,3.0889,3.0889,3.0889,3.0889,3.0889,3.0889,3.0889,3.0889,3.0889,3.0889,3.0889,3.0889,3.0889,3.0889,3.0889,3.0889,3.0889,3.0889,3.0889,3.0889,3.0889,3.0889,3.0889,3.0889,3.0889,1.5008,1.5842,1.6707,1.6707,1.7148,0.0,1.7608,1.7608,1.7608,1.7608,0.0,1.7608,0.0,0.0,0.0,0.0,0.0,0.0,0.0,0.0,0.0,0.0,0.0,0.0,0.0,0.0,0.0,0.0,0.0,0.0,0.0,0.0,0.0,1.9395,1.9395,1.9395,1.9395,1.9395,1.9395,0.0,1.9395,2.017,2.1699,2.4452,2.6581,2.8094,2.8237,2.8291,2.8291,2.8291,2.8291,2.8291,2.8291,2.8291,2.8291,2.8291,2.8291,2.8291,2.8291,2.8291,2.8291,2.8291,2.8574,2.9004,2.9471,2.9891,3.0293,3.0762,3.0889,3.0889,3.0889,3.0889,3.0889,3.0889,3.0889,3.0889,3.0889,3.0889,3.0889,3.0889,3.0889,3.0889,3.0889,3.0889,3.0889,3.0889,3.0889,3.0889,3.0889,3.0889,3.0889,3.0889,3.0889,3.0889,3.0889,3.0889,3.0889,3.0889,3.0889,3.0889,3.0889,3.0889,3.0889,3.0889,3.0889,3.0889,3.0889,3.0889,3.0889,3.0889,3.0889,3.0889,1.5008,1.5842,1.6707,1.6707,1.7148,1.7608,1.7608,1.7608,1.7608,1.7608,1.7608,1.7608,0.0,0.0,0.0,0.0,0.0,0.0,0.0,0.0,0.0,0.0,0.0,0.0,0.0,0.0,0.0,0.0,0.0,0.0,0.0,0.0,0.0,1.9395,1.9395,1.9395,1.9395,1.9395,1.9395,0.0,1.9395,2.017,2.1614,2.2279,2.4036,2.6635,2.7816,2.8291,2.8291,2.8291,2.8291,2.8291,2.8291,2.8291,2.8291,2.8291,2.8291,2.8291,2.8291,2.8291,2.8291,2.8291,2.8574,2.9004,2.9471,2.9891,3.0293,3.0762,3.0889,3.0889,3.0889,3.0889,3.0889,3.0889,3.0889,3.0889,3.0889,3.0889,3.0889,3.0889,3.0889,3.0889,3.0889,3.0889,3.0889,3.0889,3.0889,3.0889,3.0889,3.0889,3.0889,3.0889,3.0889,3.0889,3.0889,3.0889,3.0889,3.0889,3.0889,3.0889,3.0889,3.0889,3.0889,3.0889,3.0889,3.0889,3.0889,3.0889,3.0889,3.0889,3.0889,3.0889,1.5008,1.5842,1.6774,1.7054,0.0,1.7608,1.7608,1.7608,1.7608,1.7608,1.7608,0.0,0.0,0.0,0.0,0.0,0.0,0.0,0.0,0.0,0.0,0.0,0.0,0.0,0.0,0.0,0.0,0.0,0.0,0.0,0.0,1.9395,1.9395,1.9395,1.9395,1.9395,1.9395,1.9395,1.9395,1.9395,1.9395,1.9815,2.0587,2.2011,2.3515,2.5041,2.58,2.6136,2.6191,2.6943,2.7249,2.7313,2.8014,2.8291,2.8291,2.8291,2.8291,2.8291,2.8291,2.8291,2.8291,2.8291,2.8437,2.8701,2.9131,2.956,2.999,3.043,3.0723,3.0889,3.0889,3.0889,3.0889,3.0889,3.0889,3.0889,3.0889,3.0889,3.0889,3.0889,3.0889,3.0889,3.0889,3.0889,3.0889,3.0889,3.0889,3.0889,3.0889,3.0889,3.0889,3.0889,3.0889,3.0889,3.0889,3.0889,3.0889,3.0889,3.0889,3.0889,3.0889,3.0889,3.0889,3.0889,3.0889,3.0889,3.0889,3.0889,3.0889,3.0889,3.0889,3.0889,1.5008,1.5842,1.6834,1.7401,1.7575,0.0,1.7608,1.7608,1.7608,1.7608,1.7608,0.0,0.0,0.0,0.0,0.0,0.0,0.0,0.0,0.0,0.0,0.0,0.0,0.0,0.0,0.0,0.0,0.0,0.0,0.0,1.9395,1.9395,1.9395,1.9395,1.9395,1.9395,1.9395,1.9395,1.9395,1.9395,1.9395,1.9395,1.9482,2.1934,2.3179,2.3431,2.3682,2.3794,2.3905,2.5178,2.5845,2.6209,2.7447,2.8067,2.8291,2.8291,2.8291,2.8291,2.8291,2.8291,2.8291,2.8291,2.8291,2.8369,2.8762,2.9228,2.9686,3.0078,3.0537,3.0889,3.0889,3.0889,3.0889,3.0889,3.0889,3.0889,3.0889,3.0889,3.0889,3.0889,3.0889,3.0889,3.0889,3.0889,3.0889,3.0889,3.0889,3.0889,3.0889,3.0889,3.0889,3.0889,3.0889,3.0889,3.0889,3.0889,3.0889,3.0889,3.0889,3.0889,3.0889,3.0889,3.0889,3.0889,3.0889,3.0889,3.0889,3.0889,3.0889,3.0889,3.0889,3.0889,1.5008,1.5842,1.6787,0.0,1.7421,1.7608,0.0,0.0,1.7608,0.0,0.0,0.0,0.0,0.0,0.0,0.0,0.0,0.0,0.0,0.0,0.0,0.0,0.0,0.0,0.0,0.0,0.0,0.0,0.0,0.0,1.9395,1.9395,1.9395,1.9395,1.9395,1.9395,1.9395,1.9395,1.9395,1.9395,1.9395,1.9395,1.9424,1.9815,2.0673,2.1975,2.3263,2.3794,2.3822,2.4017,2.4875,2.6127,2.6318,2.7168,2.8291,2.8291,2.8291,2.8291,2.8291,2.8291,2.8291,2.8291,2.8291,2.8369,2.8762,2.9228,2.9686,3.0078,3.0537,3.0889,3.0889,3.0889,3.0889,3.0889,3.0889,3.0889,3.0889,3.0889,3.0889,3.0889,3.0889,3.0889,3.0889,3.0889,3.0889,3.0889,3.0889,3.0889,3.0889,3.0889,3.0889,3.0889,3.0889,3.0889,3.0889,3.0889,3.0889,3.0889,3.0889,3.0889,3.0889,3.0889,3.0889,3.0889,3.0889,3.0889,3.0889,3.0889,3.0889,3.0889,3.0889,3.0889,1.5611,1.6192,1.6774,0.0,1.7394,1.7608,1.7608,1.7608,1.7608,1.7608,0.0,0.0,0.0,0.0,0.0,0.0,0.0,0.0,0.0,0.0,0.0,0.0,0.0,0.0,0.0,0.0,0.0,0.0,1.9395,1.9395,1.9395,1.9395,1.9395,1.9395,1.9395,1.9395,1.9395,1.9395,1.9395,1.9395,1.9395,1.9395,1.9395,1.9395,1.9758,2.0393,2.1038,2.1323,2.1401,2.223,2.2983,2.3646,2.4488,2.5215,2.5891,2.6744,2.7078,2.7195,2.8014,2.8291,2.8291,2.8291,2.8291,2.833,2.8516,2.9043,2.9637,2.9823,3.0351,3.0889,3.0889,3.0889,3.0889,3.0889,3.0889,3.0889,3.0889,3.0889,3.0889,3.0889,3.0889,3.0889,3.0889,3.0889,3.0889,3.0889,3.0889,3.0889,3.0889,3.0889,3.0889,3.0889,3.0889,3.0889,3.0889,3.0889,3.0889,3.0889,3.0889,3.0889,3.0889,3.0889,3.0889,3.0889,3.0889,3.0889,3.0889,3.0889,3.0889,3.0889,3.0889,3.0889,1.5963,0.0,1.6667,1.6986,1.728,1.7521,0.0,0.0,1.7608,0.0,0.0,0.0,0.0,0.0,0.0,0.0,0.0,0.0,0.0,0.0,0.0,0.0,0.0,0.0,0.0,0.0,0.0,0.0,1.9395,1.9395,1.9395,1.9395,1.9395,1.9395,1.9395,1.9395,1.9395,1.9395,1.9395,1.9395,1.9395,1.9395,1.9395,1.9395,1.9395,1.9395,1.9395,1.9395,1.9482,2.0594,2.1252,2.172,2.2814,2.3459,2.3933,2.5096,2.5763,2.6209,2.6916,2.7645,2.8237,2.787,2.7977,2.8291,2.8291,2.8846,2.9461,2.9569,3.0146,3.0742,3.0859,3.0889,3.0889,3.0889,3.0889,3.0889,3.0889,3.0889,3.0889,3.0889,3.0889,3.0889,3.0889,3.0889,3.0889,3.0889,3.0889,3.0889,3.0889,3.0889,3.0889,3.0889,3.0889,3.0889,3.0889,3.0889,3.0889,3.0889,3.0889,3.0889,3.0889,3.0889,3.0889,3.0889,3.0889,3.0889,3.0889,3.0889,3.0889,3.0889,3.0889,3.0889,0.0,1.6072,0.0,1.6653,1.6979,1.7293,0.0,0.0,0.0,0.0,0.0,0.0,0.0,0.0,0.0,0.0,0.0,0.0,0.0,0.0,0.0,0.0,0.0,0.0,0.0,0.0,0.0,0.0,1.9395,1.9395,1.9395,1.9395,1.9395,1.9395,1.9395,1.9395,1.9395,1.9395,1.9395,1.9395,1.9395,1.9395,1.9395,1.9395,1.9395,1.9395,1.9395,1.9395,1.9395,1.9482,2.0342,2.1614,2.1663,2.2561,2.3794,2.3877,2.4848,2.59,2.4516,2.5918,2.8067,2.6662,2.7168,2.8291,2.8291,2.8603,2.9033,2.9481,2.9921,3.0332,3.0771,3.0889,3.0889,3.0889,3.0889,3.0889,3.0889,3.0889,3.0889,3.0889,3.0889,3.0889,3.0889,3.0889,3.0889,3.0889,3.0889,3.0889,3.0889,3.0889,3.0889,3.0889,3.0889,3.0889,3.0889,3.0889,3.0889,3.0889,3.0889,3.0889,3.0889,3.0889,3.0889,3.0889,3.0889,3.0889,3.0889,3.0889,3.0889,3.0889,3.0889,3.0889,0.0,0.0,0.0,1.6633,1.6953,1.728,1.7541,1.7608,0.0,0.0,0.0,0.0,0.0,0.0,0.0,0.0,0.0,0.0,0.0,0.0,0.0,0.0,0.0,0.0,0.0,0.0,0.0,0.0,0.0,1.9395,1.9395,1.9395,1.9395,1.9395,1.9395,1.9395,1.9395,1.9395,1.9395,1.9395,1.9395,1.9395,1.9395,1.9395,1.9395,1.9395,1.9395,1.9395,1.9395,1.9395,1.97,2.0206,2.0206,2.0508,2.1102,2.204,2.3347,2.4544,2.3989,2.5772,2.8067,2.6572,2.7114,2.8291,2.8291,2.8584,2.9014,2.9471,2.9146,2.8765,2.9173,2.8516,2.803,2.9039,3.0118,3.0889,3.0889,3.0889,3.0889,3.0889,3.0889,3.0889,3.0889,3.0889,3.0889,3.0889,3.0889,3.0889,3.0889,3.0889,3.0889,3.0889,3.0889,3.0889,3.0889,3.0889,3.0889,3.0889,3.0889,3.0889,3.0889,3.0889,3.0889,3.0889,3.0889,3.0889,3.0889,3.0889,3.0889,3.0889,3.0889,3.0889,1.5675,0.0,0.0,0.0,1.6879,1.7127,1.7515,0.0,0.0,0.0,0.0,0.0,0.0,0.0,0.0,0.0,0.0,0.0,0.0,0.0,0.0,0.0,0.0,0.0,0.0,0.0,0.0,0.0,0.0,0.0,1.9395,1.9395,1.9395,1.9395,1.9395,1.9395,1.9395,1.9395,1.9395,1.9395,1.9395,1.9395,1.9395,1.9395,1.9395,1.9395,1.9395,1.9395,1.9395,1.9395,1.9395,1.9395,1.9395,1.9395,1.9511,2.0508,2.1784,2.2983,2.2492,2.4267,2.6554,2.5068,2.5936,2.7565,2.7565,2.8089,2.8828,2.9432,2.9012,2.8531,2.9077,2.8456,2.791,2.8979,3.0089,3.0889,3.0889,3.0889,3.0889,3.0889,3.0889,3.0889,3.0889,3.0889,3.0889,3.0889,3.0889,3.0889,3.0889,3.0889,3.0889,3.0889,3.0889,3.0889,3.0889,3.0889,3.0889,3.0889,3.0889,3.0889,3.0889,3.0889,3.0889,3.0889,3.0889,3.0889,3.0889,3.0889,3.0889,3.0889,3.0889,3.0889,0.0,0.0,0.0,0.0,0.0,0.0,1.7474,0.0,0.0,0.0,0.0,0.0,0.0,0.0,0.0,0.0,0.0,0.0,0.0,0.0,0.0,0.0,0.0,0.0,0.0,0.0,0.0,0.0,1.9192,1.9388,1.9395,1.9395,1.9395,1.9395,1.9395,1.9395,1.9395,1.9395,1.9395,1.9395,1.9395,1.9395,1.9395,1.9395,1.9395,1.9395,1.9395,1.9395,1.9395,1.9395,1.9395,1.9395,1.9395,1.9395,1.9395,1.9395,2.0335,2.1394,1.9924,2.1323,2.3571,2.2117,2.3674,2.61,2.6155,2.7168,2.8476,2.9354,2.957,2.9719,3.0538,3.0801,3.083,3.083,3.0859,3.0889,3.0889,3.0889,3.0889,3.0889,3.0889,3.0889,3.0889,3.0889,3.0889,3.0889,3.0889,3.0889,3.0889,3.0889,3.0889,3.0889,3.0889,3.0889,3.0889,3.0889,3.0889,3.0889,3.0889,3.0889,3.0889,3.0889,3.0889,3.0889,3.0889,3.0889,3.0889,3.0889,3.0889,3.0889,3.0889,3.0889,1.5728,0.0,0.0,0.0,0.0,0.0,0.0,0.0,0.0,0.0,0.0,0.0,0.0,0.0,0.0,0.0,0.0,0.0,0.0,0.0,0.0,0.0,0.0,0.0,0.0,0.0,0.0,0.0,1.8998,1.9138,1.9388,1.9395,1.9395,1.9395,1.9395,1.9395,1.9395,1.9395,1.9395,1.9395,1.9395,1.9395,1.9395,1.9395,1.9395,1.9395,1.9395,1.9395,1.9395,1.9395,1.9395,1.9395,1.9395,1.9395,1.9395,1.9395,2.0335,2.1394,1.9924,2.1323,2.3738,2.3319,2.4516,2.6291,2.7357,2.7987,2.8476,2.9354,2.8728,2.7712,2.743,2.8209,2.9098,2.9098,3.002,3.0889,3.0889,3.0889,3.0889,3.0889,3.0889,3.0889,3.0889,3.0889,3.0889,3.0889,3.0889,3.0889,3.0889,3.0889,3.0889,3.0889,3.0889,3.0889,3.0889,3.0889,3.0889,3.0889,3.0889,3.0889,3.0889,3.0889,3.0889,3.0889,3.0889,3.0889,3.0889,3.0889,3.0889,3.0889,3.0889,3.0889,0.0,0.0,0.0,0.0,0.0,0.0,1.7474,1.7608,1.7608,0.0,0.0,0.0,0.0,0.0,0.0,0.0,0.0,0.0,0.0,0.0,0.0,0.0,0.0,0.0,0.0,1.7916,1.8163,1.8503,1.8643,1.8871,1.9165,1.9328,1.9395,1.9395,1.9395,1.9395,1.9395,1.9395,1.9395,1.9395,1.9395,1.9395,1.9395,1.9395,1.9395,1.9395,1.9395,1.9395,1.9395,1.9395,1.9395,1.9395,1.9395,1.9395,1.9395,1.9395,1.9953,2.0558,1.97,2.0544,2.2076,2.2681,2.3487,2.4618,2.6744,2.7394,2.7682,2.9178,2.9155,2.8595,2.8161,2.8733,2.9433,2.9433,3.0177,3.0889,3.0889,3.0889,3.0889,3.0889,3.0889,3.0889,3.0889,3.0889,3.0889,3.0889,3.0889,3.0889,3.0889,3.0889,3.0889,3.0889,3.0889,3.0889,3.0889,3.0889,3.0889,3.0889,3.0889,3.0889,3.0889,3.0889,3.0889,3.0889,3.0889,3.0889,3.0889,3.0889,3.0889,3.0889,3.0889,3.0889,0.0,0.0,0.0,0.0,0.0,0.0,1.7481,1.7608,1.7608,1.7608,0.0,0.0,0.0,0.0,0.0,0.0,0.0,0.0,0.0,0.0,0.0,0.0,0.0,0.0,1.7608,1.7836,1.7955,1.7989,1.8296,1.8617,1.8883,1.9172,1.9361,1.9395,1.9395,1.9395,1.9395,1.9395,1.9395,1.9395,1.9395,1.9395,1.9395,1.9395,1.9395,1.9395,1.9395,1.9395,1.9395,1.9395,1.9395,1.9395,1.9395,1.9395,1.9395,1.9395,1.9395,1.9395,1.9395,1.9395,1.9649,2.1116,2.1614,2.2138,2.4986,2.5845,2.6318,2.8686,3.0052,3.083,3.0879,3.0889,3.0889,3.0889,3.0889,3.0889,3.0889,3.0889,3.0889,3.0889,3.0889,3.0889,3.0889,3.0889,3.0889,3.0889,3.0889,3.0889,3.0889,3.0889,3.0889,3.0889,3.0889,3.0889,3.0889,3.0889,3.0889,3.0889,3.0889,3.0889,3.0889,3.0889,3.0889,3.0889,3.0889,3.0889,3.0889,3.0889,3.0889,3.0889,3.0889,3.0889,0.0,0.0,0.0,0.0,0.0,0.0,1.7528,1.7608,1.7608,0.0,0.0,0.0,0.0,0.0,0.0,0.0,0.0,0.0,0.0,0.0,0.0,0.0,0.0,0.0,1.7608,1.7662,1.7776,1.7975,1.8296,1.8617,1.8883,1.895,1.9118,1.9388,1.9395,1.9395,1.9395,1.9395,1.9395,1.9395,1.9395,1.9395,1.9395,1.9395,1.9395,1.9395,1.9395,1.9395,1.9395,1.9395,1.9395,1.9395,1.9395,1.9395,1.9395,1.9395,1.9395,1.9395,1.9395,1.9395,1.9649,2.1116,2.1614,2.1919,2.371,2.4239,2.4733,2.7104,2.8994,3.042,3.0791,3.0889,3.0889,3.0889,3.0889,3.0889,3.0889,3.0889,3.0889,3.0889,3.0889,3.0889,3.0889,3.0889,3.0889,3.0889,3.0889,3.0889,3.0889,3.0889,3.0889,3.0889,3.0889,3.0889,3.0889,3.0889,3.0889,3.0889,3.0889,3.0889,3.0889,3.0889,3.0889,3.0889,3.0889,3.0889,3.0889,3.0889,3.0889,3.0889,3.0889,3.0889,0.0,0.0,0.0,1.6879,0.0,0.0,0.0,1.7608,1.7608,1.7608,0.0,0.0,0.0,0.0,0.0,0.0,0.0,0.0,0.0,0.0,0.0,0.0,0.0,0.0,1.7608,1.7608,1.7649,1.7776,1.8069,1.8309,1.8449,1.8736,1.8991,1.9145,1.9321,1.9395,1.9395,1.9395,1.9395,1.9395,1.9395,1.9395,1.9395,1.9395,1.9395,1.9395,1.9395,1.9395,1.9395,1.9395,1.9395,1.9395,1.9395,1.9395,1.9395,1.9395,1.9395,1.9395,1.9395,1.9395,1.9649,2.1116,2.1088,2.0923,2.3123,2.4485,2.5541,2.6894,2.869,3.0303,3.0771,3.0889,3.0889,3.0889,3.0889,3.0889,3.0889,3.0889,3.0889,3.0889,3.0889,3.0889,3.0889,3.0889,3.0889,3.0889,3.0889,3.0889,3.0889,3.0889,3.0889,3.0889,3.0889,3.0889,3.0889,3.0889,3.0889,3.0889,3.0889,3.0889,3.0889,3.0889,3.0889,3.0889,3.0889,3.0889,3.0889,3.0889,3.0889,3.0889,3.0889,3.0889,0.0,0.0,0.0,0.0,0.0,1.7321,0.0,0.0,0.0,0.0,0.0,0.0,0.0,0.0,0.0,0.0,0.0,0.0,0.0,0.0,0.0,0.0,0.0,0.0,0.0,1.7608,1.7608,1.7608,1.7789,1.7956,1.7989,1.8523,1.8836,1.8896,1.9241,1.9395,1.9395,1.9395,1.9395,1.9395,1.9395,1.9395,1.9395,1.9395,1.9395,1.9395,1.9395,1.9395,1.9395,1.9395,1.9395,1.9395,1.9395,1.9395,1.9395,1.9395,1.9395,1.9395,1.9395,1.9395,1.9591,2.0788,2.0364,1.9844,2.2238,2.4457,2.624,2.6731,2.8434,3.0205,3.0752,3.0889,3.0889,3.0889,3.0889,3.0889,3.0889,3.0889,3.0889,3.0889,3.0889,3.0889,3.0889,3.0889,3.0889,3.0889,3.0889,3.0889,3.0889,3.0889,3.0889,3.0889,3.0889,3.0889,3.0889,3.0889,3.0889,3.0889,3.0889,3.0889,3.0889,3.0889,3.0889,3.0889,3.0889,3.0889,3.0889,3.0889,3.0889,3.0889,3.0889,3.0889,0.0,0.0,0.0,0.0,1.7367,0.0,0.0,0.0,1.7608,1.7608,0.0,0.0,0.0,0.0,0.0,0.0,0.0,0.0,0.0,0.0,0.0,0.0,0.0,0.0,0.0,1.7608,1.7608,1.7608,1.7642,1.7756,1.7975,1.8364,1.8657,1.889,1.9241,1.9395,1.9395,1.9395,1.9395,1.9395,1.9395,1.9395,1.9395,1.9395,1.9395,1.9395,1.9395,1.9395,1.9395,1.9395,1.9395,1.9395,1.9395,1.9395,1.9395,1.9395,1.9395,1.9395,1.9395,1.9395,1.9424,1.9591,1.9533,1.9453,1.9786,2.1879,2.4309,2.5109,2.7434,2.9862,3.0703,3.0889,3.0889,3.0889,3.0889,3.0889,3.0889,3.0889,3.0889,3.0889,3.0889,3.0889,3.0889,3.0889,3.0889,3.0889,3.0889,3.0889,3.0889,3.0889,3.0889,3.0889,3.0889,3.0889,3.0889,3.0889,3.0889,3.0889,3.0889,3.0889,3.0889,3.0889,3.0889,3.0889,3.0889,3.0889,3.0889,3.0889,3.0889,3.0889,3.0889,3.0889,0.0,0.0,0.0,0.0,0.0,0.0,1.7608,0.0,1.7608,0.0,0.0,0.0,0.0,0.0,0.0,0.0,0.0,0.0,0.0,0.0,0.0,0.0,0.0,0.0,0.0,0.0,0.0,0.0,1.7608,1.7642,1.7769,1.8042,1.8343,1.8664,1.8958,1.9192,1.9395,1.9395,1.9395,1.9395,1.9395,1.9395,1.9395,1.9395,1.9395,1.9395,1.9395,1.9395,1.9395,1.9395,1.9395,1.9395,1.9395,1.9395,1.9395,1.9395,1.9395,1.9395,1.9395,1.9395,1.9395,1.9395,1.9395,1.9395,1.9395,2.0873,2.2879,2.4602,2.6617,2.8653,3.0451,3.0889,3.0889,3.0889,3.0889,3.0889,3.0889,3.0889,3.0889,3.0889,3.0889,3.0889,3.0889,3.0889,3.0889,3.0889,3.0889,3.0889,3.0889,3.0889,3.0889,3.0889,3.0889,3.0889,3.0889,3.0889,3.0889,3.0889,3.0889,3.0889,3.0889,3.0889,3.0889,3.0889,3.0889,3.0889,3.0889,3.0889,3.0889,3.0889,3.0889,3.0889,1.7608,0.0,0.0,0.0,0.0,0.0,0.0,0.0,0.0,0.0,0.0,0.0,0.0,0.0,0.0,0.0,0.0,0.0,0.0,0.0,0.0,0.0,0.0,0.0,0.0,0.0,0.0,1.7608,1.7608,1.7608,1.7608,1.7849,1.8116,1.8364,1.8703,1.9025,1.9274,1.9354,1.9395,1.9395,1.9395,1.9395,1.9395,1.9395,1.9395,1.9395,1.9395,1.9395,1.9395,1.9395,1.9395,1.9395,1.9395,1.9395,1.9395,1.9395,1.9395,1.9395,1.9395,1.9395,1.9395,1.9395,1.9395,1.9395,1.9395,2.0422,2.1998,2.3922,2.5811,2.775,2.9714,3.0548,3.0889,3.0889,3.0889,3.0889,3.0889,3.0889,3.0889,3.0889,3.0889,3.0889,3.0889,3.0889,3.0889,3.0889,3.0889,3.0889,3.0889,3.0889,3.0889,3.0889,3.0889,3.0889,3.0889,3.0889,3.0889,3.0889,3.0889,3.0889,3.0889,3.0889,3.0889,3.0889,3.0889,3.0889,3.0889,3.0889,3.0889,3.0889,3.0889,3.0889,0.0,0.0,0.0,1.7608,0.0,0.0,0.0,0.0,1.7608,0.0,0.0,0.0,0.0,0.0,0.0,0.0,0.0,0.0,0.0,0.0,0.0,0.0,0.0,0.0,0.0,0.0,0.0,1.7608,1.7608,1.7608,1.7608,1.7849,1.7995,1.8009,1.8589,1.8896,1.891,1.9254,1.9395,1.9395,1.9395,1.9395,1.9395,1.9395,1.9395,1.9395,1.9395,1.9395,1.9395,1.9395,1.9395,1.9395,1.9395,1.9395,1.9395,1.9395,1.9395,1.9395,1.9395,1.9395,1.9395,1.9395,1.9395,1.9395,1.9395,2.0422,2.1749,2.2548,2.4949,2.7483,2.8269,2.9687,3.0889,3.0889,3.0889,3.0889,3.0889,3.0889,3.0889,3.0889,3.0889,3.0889,3.0889,3.0889,3.0889,3.0889,3.0889,3.0889,3.0889,3.0889,3.0889,3.0889,3.0889,3.0889,3.0889,3.0889,3.0889,3.0889,3.0889,3.0889,3.0889,3.0889,3.0889,3.0889,3.0889,3.0889,3.0889,3.0889,3.0889,3.0889,3.0889,3.0889,0.0,0.0,1.7608,1.7608,0.0,0.0,0.0,0.0,0.0,0.0,0.0,0.0,0.0,0.0,0.0,0.0,0.0,0.0,0.0,0.0,0.0,0.0,0.0,0.0,0.0,0.0,0.0,1.7608,1.7608,1.7608,1.7608,1.7682,1.7836,1.7982,1.8403,1.8731,1.889,1.9219,1.9395,1.9395,1.9395,1.9395,1.9395,1.9395,1.9395,1.9395,1.9395,1.9395,1.9395,1.9395,1.9395,1.9395,1.9395,1.9395,1.9395,1.9395,1.9395,1.9395,1.9395,1.9395,1.9395,1.9395,1.9395,1.9395,1.9395,1.9758,2.0498,2.2231,2.4218,2.6244,2.7973,2.9648,3.0889,3.0889,3.0889,3.0889,3.0889,3.0889,3.0889,3.0889,3.0889,3.0889,3.0889,3.0889,3.0889,3.0889,3.0889,3.0889,3.0889,3.0889,3.0889,3.0889,3.0889,3.0889,3.0889,3.0889,3.0889,3.0889,3.0889,3.0889,3.0889,3.0889,3.0889,3.0889,3.0889,3.0889,3.0889,3.0889,3.0889,3.0889,3.0889,3.0889,1.7608,1.7608,0.0,1.7608,1.7608,0.0,1.7608,0.0,0.0,0.0,0.0,0.0,0.0,0.0,0.0,0.0,0.0,0.0,0.0,0.0,0.0,0.0,0.0,0.0,0.0,0.0,1.7608,1.7608,1.7608,1.7608,0.0,0.0,1.7675,1.7849,1.8149,1.847,1.8736,1.9065,1.9294,1.9395,1.9395,1.9395,1.9395,1.9395,1.9395,1.9395,1.9395,1.9395,1.9395,1.9395,1.9395,1.9395,1.9395,1.9395,1.9395,1.9395,1.9395,1.9395,1.9395,1.9395,1.9395,1.9395,1.9395,1.9395,1.9395,1.9395,1.9748,2.1356,2.3394,2.5478,2.7123,2.9226,3.0889,3.0889,3.0889,3.0889,3.0889,3.0889,3.0889,3.0889,3.0889,3.0889,3.0889,3.0889,3.0889,3.0889,3.0889,3.0889,3.0889,3.0889,3.0889,3.0889,3.0889,3.0889,3.0889,3.0889,3.0889,3.0889,3.0889,3.0889,3.0889,3.0889,3.0889,3.0889,3.0889,3.0889,3.0889,3.0889,3.0889,3.0889,3.0889,3.0889]},{"header":{"parameterUnit":"m.s-1","parameterCategory":1,"la1":30.6,"la2":29.2853,"lo1":-89.7004,"lo2":-87.6739,"dy":0.0162,"dx":0.0183,"nx":112,"ny":82,"refTime":"2023-03-17T18:00:00:Z","depth":0,"parameterNumber":3,"parameterNumberName":"V-component_of_WINDS"},"data":[0.0,0.0,0.0,0.0,0.0,0.0,0.0,0.0,0.0,0.0,0.0,0.0,0.0,0.0,0.0,0.0,0.0,0.0,0.0,0.0,0.0,0.0,0.0,0.0,0.0,0.0,0.0,0.0,0.0,0.0,0.0,0.0,0.0,0.0,0.0,0.0,0.0,0.0,0.0,0.0,0.0,0.0,0.0,0.0,0.0,0.0,0.0,0.0,0.0,0.0,0.0,0.0,0.0,0.0,0.0,0.0,0.0,0.0,0.0,0.0,0.0,0.0,0.0,0.0,0.0,0.0,0.0,0.0,0.0,0.0,0.0,0.0,0.0,0.0,0.0,0.0,0.0,0.0,0.0,0.0,0.0,0.0,0.0,0.0,0.0,0.0,0.0,0.0,0.0,0.0,0.0,2.5604,2.63,2.6962,2.759,2.7655,2.7688,2.7756,0.0,0.0,0.0,0.0,0.0,0.0,0.0,0.0,0.0,0.0,0.0,0.0,0.0,0.0,0.0,0.0,0.0,0.0,0.0,0.0,0.0,0.0,0.0,0.0,0.0,0.0,0.0,0.0,0.0,0.0,0.0,0.0,0.0,0.0,0.0,0.0,0.0,0.0,0.0,0.0,0.0,0.0,0.0,0.0,0.0,0.0,0.0,0.0,0.0,0.0,0.0,0.0,0.0,0.0,0.0,0.0,0.0,0.0,0.0,0.0,0.0,0.0,0.0,0.0,0.0,0.0,0.0,0.0,0.0,0.0,0.0,0.0,0.0,0.0,0.0,0.0,0.0,0.0,0.0,0.0,0.0,0.0,0.0,0.0,0.0,0.0,0.0,0.0,0.0,0.0,0.0,0.0,0.0,0.0,0.0,0.0,0.0,0.0,0.0,0.0,0.0,0.0,0.0,0.0,2.5551,2.6878,2.7655,2.8139,2.8237,2.8367,2.8442,2.8457,0.0,0.0,0.0,0.0,0.0,0.0,0.0,0.0,0.0,0.0,0.0,0.0,0.0,0.0,0.0,0.0,0.0,0.0,0.0,0.0,0.0,0.0,0.0,0.0,0.0,0.0,0.0,0.0,0.0,0.0,0.0,0.0,0.0,0.0,0.0,0.0,0.0,0.0,0.0,0.0,0.0,0.0,0.0,0.0,0.0,0.0,0.0,0.0,0.0,0.0,0.0,0.0,0.0,0.0,0.0,0.0,0.0,0.0,0.0,0.0,0.0,0.0,0.0,0.0,0.0,0.0,0.0,0.0,0.0,0.0,0.0,0.0,0.0,0.0,0.0,0.0,0.0,0.0,0.0,0.0,0.0,0.0,0.0,0.0,0.0,0.0,0.0,0.0,0.0,0.0,0.0,0.0,0.0,0.0,0.0,0.0,0.0,0.0,0.0,0.0,0.0,0.0,0.0,2.629,2.7424,2.8886,2.9343,2.9541,2.9541,2.9596,2.949,2.9159,2.8515,0.0,0.0,0.0,0.0,0.0,0.0,0.0,0.0,0.0,0.0,0.0,0.0,0.0,0.0,0.0,0.0,0.0,0.0,0.0,0.0,0.0,0.0,0.0,0.0,0.0,0.0,0.0,0.0,0.0,0.0,0.0,0.0,0.0,0.0,0.0,0.0,0.0,0.0,0.0,0.0,0.0,0.0,0.0,0.0,0.0,0.0,0.0,0.0,0.0,0.0,0.0,0.0,0.0,0.0,0.0,0.0,0.0,0.0,0.0,0.0,0.0,0.0,0.0,0.0,0.0,0.0,0.0,0.0,0.0,0.0,0.0,0.0,0.0,0.0,0.0,0.0,0.0,0.0,0.0,0.0,0.0,0.0,0.0,0.0,0.0,0.0,0.0,0.0,0.0,0.0,0.0,0.0,0.0,0.0,0.0,0.0,0.0,0.0,0.0,0.0,0.0,0.0,2.7997,2.9315,3.0601,3.0732,3.0732,3.0732,3.0597,3.0298,2.9832,2.919,0.0,0.0,0.0,0.0,0.0,0.0,0.0,0.0,0.0,0.0,0.0,0.0,0.0,0.0,0.0,0.0,0.0,0.0,0.0,0.0,0.0,0.0,0.0,0.0,0.0,0.0,0.0,0.0,0.0,0.0,0.0,0.0,0.0,0.0,0.0,0.0,0.0,0.0,0.0,0.0,0.0,0.0,0.0,0.0,0.0,0.0,0.0,0.0,0.0,0.0,0.0,0.0,0.0,0.0,0.0,0.0,0.0,0.0,0.0,0.0,0.0,0.0,0.0,0.0,0.0,0.0,0.0,0.0,0.0,0.0,0.0,0.0,0.0,0.0,0.0,0.0,0.0,0.0,0.0,0.0,0.0,0.0,0.0,0.0,0.0,0.0,0.0,0.0,0.0,0.0,0.0,0.0,0.0,0.0,0.0,0.0,0.0,0.0,0.0,0.0,0.0,0.0,2.9407,3.0616,3.1347,3.1436,3.1436,3.1436,3.0852,3.0477,3.0447,2.9877,0.0,0.0,0.0,0.0,0.0,0.0,0.0,0.0,0.0,0.0,0.0,0.0,0.0,0.0,0.0,0.0,0.0,0.0,0.0,0.0,0.0,0.0,0.0,0.0,0.0,0.0,0.0,0.0,0.0,0.0,0.0,0.0,0.0,0.0,0.0,0.0,0.0,0.0,0.0,0.0,0.0,0.0,0.0,0.0,0.0,0.0,0.0,0.0,0.0,0.0,0.0,0.0,0.0,0.0,0.0,0.0,0.0,0.0,0.0,0.0,0.0,0.0,0.0,0.0,0.0,0.0,0.0,0.0,0.0,0.0,0.0,0.0,0.0,0.0,0.0,0.0,0.0,0.0,0.0,0.0,0.0,0.0,0.0,0.0,0.0,0.0,0.0,0.0,0.0,0.0,0.0,0.0,0.0,0.0,0.0,0.0,0.0,0.0,0.0,0.0,0.0,0.0,2.9782,3.0661,0.0,3.1511,3.1511,3.1511,3.1271,3.1122,3.1122,0.0,0.0,0.0,0.0,0.0,0.0,0.0,0.0,0.0,0.0,0.0,0.0,0.0,0.0,0.0,0.0,0.0,0.0,0.0,0.0,0.0,0.0,0.0,0.0,0.0,0.0,0.0,0.0,0.0,0.0,0.0,0.0,0.0,0.0,0.0,0.0,0.0,0.0,0.0,0.0,0.0,0.0,0.0,0.0,0.0,0.0,0.0,0.0,0.0,0.0,0.0,0.0,0.0,0.0,0.0,0.0,0.0,0.0,0.0,0.0,0.0,0.0,0.0,0.0,0.0,0.0,0.0,0.0,0.0,0.0,0.0,0.0,0.0,0.0,0.0,0.0,0.0,0.0,0.0,0.0,0.0,0.0,0.0,0.0,0.0,0.0,0.0,0.0,0.0,0.0,0.0,0.0,0.0,0.0,0.0,0.0,0.0,0.0,0.0,0.0,0.0,0.0,2.9578,3.0453,3.1204,0.0,3.2004,3.2123,3.2123,3.1929,3.1809,3.1809,0.0,0.0,0.0,0.0,0.0,0.0,0.0,0.0,0.0,0.0,0.0,0.0,0.0,0.0,0.0,0.0,0.0,0.0,0.0,0.0,0.0,0.0,0.0,0.0,0.0,0.0,0.0,0.0,0.0,0.0,0.0,0.0,0.0,0.0,0.0,0.0,0.0,0.0,0.0,0.0,0.0,0.0,0.0,0.0,0.0,0.0,0.0,0.0,0.0,0.0,0.0,0.0,0.0,0.0,0.0,0.0,0.0,0.0,0.0,0.0,0.0,0.0,0.0,0.0,0.0,0.0,0.0,0.0,0.0,0.0,0.0,0.0,0.0,0.0,0.0,0.0,0.0,0.0,0.0,0.0,0.0,0.0,0.0,0.0,0.0,0.0,0.0,0.0,0.0,0.0,0.0,0.0,0.0,0.0,0.0,0.0,0.0,0.0,0.0,0.0,0.0,0.0,3.0257,3.1603,3.2512,3.2512,3.3095,3.3499,3.3499,3.2901,3.2512,0.0,0.0,0.0,0.0,0.0,0.0,0.0,0.0,0.0,0.0,0.0,0.0,0.0,0.0,0.0,0.0,0.0,0.0,0.0,0.0,0.0,0.0,0.0,0.0,0.0,0.0,0.0,0.0,0.0,0.0,0.0,0.0,0.0,0.0,0.0,0.0,0.0,0.0,0.0,0.0,0.0,0.0,0.0,0.0,0.0,0.0,0.0,0.0,0.0,0.0,0.0,0.0,0.0,0.0,0.0,0.0,0.0,0.0,0.0,0.0,0.0,0.0,0.0,0.0,0.0,0.0,0.0,0.0,0.0,0.0,0.0,0.0,0.0,0.0,0.0,0.0,0.0,0.0,0.0,0.0,0.0,0.0,0.0,0.0,0.0,0.0,0.0,0.0,0.0,0.0,0.0,0.0,0.0,0.0,0.0,0.0,0.0,0.0,0.0,0.0,0.0,0.0,0.0,3.1827,3.2631,3.32,3.32,3.338,3.3499,3.3499,3.332,3.3006,3.2527,0.0,0.0,0.0,0.0,0.0,0.0,0.0,0.0,0.0,0.0,0.0,0.0,0.0,0.0,0.0,0.0,0.0,0.0,0.0,0.0,0.0,0.0,0.0,0.0,0.0,0.0,0.0,0.0,0.0,0.0,0.0,0.0,0.0,0.0,0.0,0.0,0.0,0.0,0.0,0.0,0.0,0.0,0.0,0.0,0.0,0.0,0.0,0.0,0.0,0.0,0.0,0.0,0.0,0.0,0.0,0.0,0.0,0.0,0.0,0.0,0.0,0.0,0.0,0.0,0.0,0.0,0.0,0.0,0.0,0.0,0.0,0.0,0.0,0.0,0.0,0.0,0.0,0.0,0.0,0.0,0.0,0.0,0.0,0.0,0.0,0.0,0.0,0.0,0.0,0.0,0.0,0.0,0.0,0.0,0.0,0.0,0.0,0.0,0.0,0.0,0.0,0.0,3.2856,3.3724,3.4292,3.4292,3.4756,3.4951,3.4711,3.4442,3.4008,3.3335,0.0,0.0,0.0,0.0,0.0,0.0,0.0,0.0,0.0,0.0,0.0,0.0,0.0,0.0,0.0,0.0,0.0,0.0,0.0,0.0,0.0,0.0,0.0,0.0,0.0,0.0,0.0,0.0,0.0,0.0,0.0,0.0,0.0,0.0,0.0,0.0,0.0,0.0,0.0,0.0,0.0,0.0,0.0,0.0,0.0,0.0,0.0,0.0,0.0,0.0,0.0,0.0,0.0,0.0,0.0,0.0,0.0,0.0,0.0,0.0,0.0,0.0,0.0,0.0,0.0,0.0,0.0,0.0,0.0,0.0,0.0,0.0,0.0,0.0,0.0,0.0,0.0,0.0,0.0,0.0,0.0,0.0,0.0,0.0,0.0,0.0,0.0,0.0,0.0,0.0,0.0,0.0,0.0,0.0,0.0,0.0,0.0,0.0,0.0,0.0,0.0,0.0,3.3604,3.4861,3.5684,3.5684,3.6716,3.718,3.6626,3.6028,3.537,3.4637,0.0,0.0,0.0,0.0,0.0,0.0,0.0,0.0,0.0,0.0,0.0,0.0,0.0,0.0,0.0,0.0,0.0,0.0,0.0,0.0,0.0,0.0,0.0,0.0,0.0,0.0,0.0,0.0,0.0,0.0,0.0,0.0,0.0,0.0,0.0,0.0,0.0,0.0,0.0,0.0,0.0,0.0,0.0,0.0,0.0,0.0,0.0,0.0,0.0,0.0,0.0,0.0,0.0,0.0,0.0,0.0,0.0,0.0,0.0,0.0,2.3686,0.0,0.0,0.0,0.0,0.0,0.0,0.0,0.0,0.0,0.0,0.0,0.0,0.0,0.0,0.0,0.0,0.0,0.0,0.0,0.0,0.0,0.0,0.0,0.0,0.0,0.0,0.0,0.0,0.0,0.0,0.0,0.0,0.0,0.0,0.0,0.0,0.0,0.0,0.0,0.0,0.0,3.5055,3.6207,3.6984,3.6984,3.724,3.736,3.7225,3.709,3.6507,3.5355,3.516,0.0,0.0,0.0,0.0,0.0,0.0,0.0,0.0,0.0,0.0,0.0,0.0,0.0,0.0,0.0,0.0,0.0,0.0,0.0,0.0,0.0,0.0,0.0,0.0,0.0,0.0,0.0,0.0,0.0,0.0,0.0,0.0,0.0,0.0,0.0,0.0,0.0,0.0,0.0,0.0,0.0,0.0,0.0,0.0,0.0,0.0,0.0,0.0,0.0,0.0,0.0,0.0,0.0,0.0,0.0,0.0,0.0,0.0,0.0,0.0,2.4819,0.0,0.0,0.0,0.0,0.0,0.0,0.0,0.0,0.0,0.0,0.0,0.0,0.0,0.0,0.0,0.0,0.0,0.0,0.0,0.0,0.0,0.0,0.0,0.0,0.0,0.0,0.0,0.0,0.0,0.0,0.0,0.0,0.0,0.0,0.0,0.0,0.0,0.0,0.0,0.0,3.6342,3.727,3.7883,3.7883,3.8182,3.8225,3.7913,3.7883,3.7464,3.6492,3.64,0.0,0.0,0.0,0.0,0.0,0.0,0.0,0.0,0.0,0.0,0.0,0.0,0.0,0.0,0.0,0.0,0.0,0.0,0.0,0.0,0.0,0.0,0.0,0.0,0.0,0.0,0.0,0.0,0.0,0.0,0.0,0.0,0.0,0.0,0.0,0.0,0.0,0.0,0.0,0.0,0.0,0.0,0.0,0.0,0.0,0.0,0.0,0.0,0.0,0.0,0.0,0.0,0.0,2.7863,2.7976,2.8202,2.8202,2.861,2.9232,2.8183,2.7983,2.8353,0.0,0.0,0.0,0.0,0.0,0.0,0.0,0.0,0.0,0.0,0.0,0.0,0.0,0.0,0.0,0.0,0.0,0.0,0.0,0.0,0.0,0.0,0.0,0.0,0.0,3.1348,3.2036,0.0,0.0,0.0,0.0,0.0,0.0,0.0,0.0,0.0,0.0,0.0,0.0,3.7449,3.8153,3.8571,3.8571,3.908,3.9167,3.8616,3.8571,3.8287,3.7629,3.7584,3.706,0.0,0.0,0.0,0.0,0.0,0.0,0.0,0.0,0.0,0.0,0.0,0.0,0.0,0.0,0.0,0.0,0.0,0.0,0.0,0.0,0.0,0.0,0.0,0.0,0.0,0.0,0.0,0.0,0.0,0.0,0.0,0.0,2.7345,2.7345,0.0,0.0,0.0,0.0,0.0,0.0,0.0,0.0,0.0,0.0,0.0,0.0,0.0,0.0,2.9066,2.9216,2.9558,3.0077,3.0077,3.0685,3.1812,3.1812,3.2184,3.2825,3.2645,0.0,2.8396,2.8311,0.0,0.0,0.0,0.0,0.0,0.0,0.0,0.0,0.0,0.0,0.0,0.0,0.0,0.0,0.0,0.0,0.0,0.0,0.0,0.0,0.0,0.0,3.3212,3.3669,3.3998,3.4269,0.0,3.3176,3.2209,3.3044,0.0,0.0,0.0,0.0,0.0,0.0,0.0,0.0,3.8242,3.8856,3.9272,3.9272,3.9346,3.9361,3.9272,3.9272,3.8973,3.8302,3.8275,3.7928,3.718,3.7148,0.0,0.0,0.0,0.0,0.0,0.0,0.0,0.0,0.0,0.0,0.0,0.0,0.0,0.0,0.0,0.0,0.0,0.0,0.0,0.0,0.0,0.0,0.0,0.0,0.0,0.0,0.0,0.0,0.0,2.7737,2.8156,2.8156,2.8485,2.883,0.0,0.0,0.0,0.0,0.0,0.0,0.0,0.0,0.0,3.0117,3.0836,3.1225,3.1225,3.1614,3.1913,3.2183,3.2572,3.3066,3.3649,3.4023,3.4352,3.4622,3.4622,3.3777,3.2327,3.1589,3.1086,3.0772,0.0,0.0,0.0,0.0,3.0772,3.0772,3.0772,3.1012,0.0,0.0,0.0,0.0,0.0,0.0,0.0,0.0,0.0,0.0,0.0,0.0,0.0,3.555,3.5895,3.6207,3.6507,3.5805,3.5139,0.0,3.5699,3.6222,3.6522,0.0,0.0,0.0,0.0,3.8544,3.8916,3.9212,3.9406,3.9406,3.9406,3.9406,3.9406,3.9406,3.9272,3.899,3.8958,3.8661,3.7988,3.7958,3.7524,0.0,0.0,0.0,0.0,0.0,0.0,0.0,0.0,0.0,0.0,0.0,0.0,0.0,0.0,0.0,0.0,0.0,0.0,0.0,0.0,0.0,0.0,0.0,0.0,0.0,0.0,0.0,0.0,2.8545,2.8859,2.8859,2.9294,2.9728,0.0,0.0,0.0,0.0,0.0,0.0,3.0596,3.1195,3.1509,3.1509,3.2662,3.326,3.326,3.3769,3.4098,3.4278,3.4772,3.5086,3.5251,3.5759,3.5998,3.5998,3.5998,3.5998,3.5893,3.4562,3.4008,3.3993,3.3829,3.3858,3.3993,3.3829,3.3858,3.4008,3.4008,3.4008,3.4008,3.4008,0.0,3.4008,3.4008,0.0,0.0,0.0,0.0,3.5356,3.5863,3.6357,3.6761,3.6958,3.733,3.7704,3.7866,3.7896,3.7689,0.0,3.7225,3.7659,3.7659,0.0,0.0,0.0,0.0,3.8841,3.9331,3.9406,3.9406,3.9406,3.9406,3.9406,3.9406,3.9406,3.9406,3.9406,3.9406,3.9167,3.8676,3.8661,3.8332,3.7674,0.0,0.0,0.0,0.0,0.0,0.0,0.0,0.0,0.0,0.0,0.0,0.0,0.0,0.0,0.0,0.0,0.0,0.0,0.0,0.0,0.0,0.0,0.0,0.0,0.0,0.0,0.0,0.0,0.0,2.9548,2.9578,0.0,0.0,0.0,0.0,3.32,3.329,3.329,3.329,3.3934,3.4309,3.4309,3.4981,3.5355,3.5355,3.5385,3.5714,3.6344,3.6389,3.6686,3.727,3.7283,3.7298,3.7298,3.7298,3.7298,3.7225,3.5938,3.54,3.534,3.4697,3.4847,3.5325,3.4682,3.4862,3.54,3.54,3.54,3.54,3.54,3.54,3.54,3.54,3.5833,0.0,0.0,3.6806,3.727,3.73,3.7345,3.7524,3.8138,3.8335,3.8512,3.9152,3.9302,3.8913,0.0,3.7883,3.8365,3.8365,0.0,3.9316,3.9346,3.9346,3.9361,3.9406,3.9406,3.9406,3.9406,3.9406,3.9406,3.9406,3.9406,3.9406,3.9406,3.9406,3.9391,3.9346,3.9346,3.9017,3.8365,3.8365,0.0,0.0,0.0,0.0,0.0,0.0,0.0,0.0,0.0,0.0,0.0,0.0,0.0,0.0,0.0,0.0,0.0,0.0,0.0,0.0,0.0,0.0,0.0,0.0,0.0,0.0,0.0,0.0,3.0822,3.1584,0.0,3.2736,3.3185,3.3634,3.4113,3.4532,3.4786,3.4786,3.5431,3.579,3.579,3.6402,3.6714,3.6714,3.6714,3.6834,3.709,3.7526,3.7841,3.8063,3.8479,3.8688,3.8688,3.8688,3.8688,3.8644,3.8195,3.7492,3.6701,3.6462,3.6507,3.6701,3.6447,3.6522,3.6714,3.6714,3.6714,3.6714,3.6714,3.6714,3.6714,3.6714,3.6896,3.7165,3.7601,3.7868,3.8138,3.8586,3.8688,3.8748,3.899,3.9032,3.9107,3.9346,3.9406,3.9257,3.8778,3.8868,3.9032,3.9032,3.9242,3.9406,3.9406,3.9406,3.9406,3.9406,3.9406,3.9406,3.9406,3.9406,3.9406,3.9406,3.9406,3.9406,3.9406,3.9406,3.9406,3.9406,3.9406,3.9287,3.905,3.9032,3.8928,0.0,0.0,0.0,0.0,0.0,0.0,0.0,0.0,0.0,0.0,0.0,0.0,0.0,0.0,0.0,0.0,0.0,0.0,0.0,0.0,0.0,0.0,0.0,0.0,0.0,0.0,3.2258,3.2482,3.3563,3.4348,3.4488,3.5162,3.5557,3.5477,3.5893,3.6265,3.6561,3.6945,3.7289,3.7561,3.8182,3.8377,3.8093,3.8359,3.8359,3.8075,3.8527,3.8736,3.8751,3.9197,3.9406,3.9406,3.9406,3.9406,3.9406,3.9406,3.8868,3.8045,3.7838,3.7883,3.8045,3.7823,3.7883,3.806,3.806,3.806,3.806,3.806,3.806,3.806,3.806,3.806,3.8165,3.8616,3.8736,3.8841,3.9287,3.9406,3.9406,3.9406,3.9406,3.9406,3.9406,3.9406,3.9406,3.9406,3.9406,3.9406,3.9406,3.9406,3.9406,3.9406,3.9406,3.9406,3.9406,3.9601,3.9735,3.9735,3.9948,3.9975,3.975,3.9735,3.9631,3.9406,3.9406,3.9406,3.9406,3.9406,3.9406,3.9406,3.9406,3.9406,3.9406,0.0,0.0,0.0,0.0,0.0,0.0,0.0,0.0,0.0,0.0,0.0,0.0,0.0,0.0,0.0,0.0,0.0,0.0,0.0,0.0,0.0,0.0,0.0,3.2572,3.3155,3.386,3.452,3.5355,3.6076,3.6555,3.73,3.7675,3.7528,3.7535,3.791,3.8755,3.8618,3.8899,3.9748,4.0383,4.0291,3.9445,4.0274,4.0257,3.9406,3.9442,3.9427,3.9427,3.9427,3.9445,3.9481,3.9445,3.9427,3.9427,3.9409,3.9406,3.9331,3.8676,3.8841,3.9316,3.8661,3.8841,3.9406,3.9406,3.9406,3.9406,3.9406,3.9406,3.9406,3.9406,3.9406,3.9406,3.9406,3.9406,3.9406,3.9406,3.9406,3.9406,3.9436,3.9436,3.9436,3.9466,3.9466,3.9466,3.9466,3.9466,3.9451,3.9436,3.9451,3.9466,3.9466,3.9466,0.0,3.9466,4.0038,4.0427,4.0427,4.1014,4.1149,4.0487,4.0427,4.0157,3.9496,3.9466,3.9466,3.9466,3.9436,3.9421,3.9406,3.9406,3.9406,3.9406,0.0,0.0,0.0,0.0,0.0,0.0,0.0,0.0,0.0,0.0,0.0,0.0,0.0,0.0,0.0,0.0,0.0,0.0,0.0,0.0,0.0,0.0,3.5845,3.4179,3.5064,3.6122,3.6753,3.7466,3.82,3.8952,3.9122,3.9399,3.9959,4.0463,4.0844,4.1087,4.1034,4.1128,4.1356,4.0936,4.0571,4.0328,4.0571,4.0257,3.9406,4.0028,4.0328,4.0328,4.0328,4.0706,4.1262,4.062,4.0328,4.0291,3.9648,3.9406,3.9376,3.9197,3.9227,3.9376,3.9182,3.9242,3.9406,3.9406,3.9406,3.9406,3.9406,3.9406,3.9406,3.9406,3.9406,3.9406,3.9406,3.9406,3.9406,3.9406,3.9406,3.9526,4.0023,4.0127,4.0262,4.0741,4.0846,4.0846,4.0846,4.0846,4.0696,4.0217,4.0531,4.0846,4.0846,4.0846,0.0,4.0846,4.1014,4.1134,4.1134,4.1283,4.1328,4.1149,4.1134,4.1059,4.0846,4.0846,4.0846,4.0846,4.0382,3.9885,3.9406,3.9406,3.9406,0.0,0.0,0.0,0.0,0.0,0.0,0.0,0.0,0.0,0.0,0.0,0.0,0.0,0.0,0.0,0.0,0.0,0.0,0.0,0.0,0.0,0.0,3.8107,3.8095,3.7344,3.7747,3.8368,3.9015,3.9754,4.0368,4.0811,4.1055,4.1263,4.1405,4.1773,4.2157,4.252,4.2189,4.2157,4.2536,4.2046,4.1752,4.1705,4.207,4.1963,4.1416,4.1923,4.2163,4.2163,4.2163,4.2432,0.0,4.2381,4.2163,4.2145,4.1612,4.1401,0.0,0.0,0.0,0.0,0.0,3.9406,3.9406,3.9406,3.9406,3.9406,3.9406,3.9406,3.9406,3.9406,3.9406,3.9406,3.9406,3.9895,4.0398,4.0398,4.0596,4.0915,4.1313,4.112,4.0939,4.1313,4.1403,4.1403,4.1403,4.1628,0.0,4.1298,4.1328,4.1403,4.1403,4.1403,4.1403,4.1403,4.1643,4.1807,4.1807,4.2062,4.2087,4.1837,4.1807,0.0,0.0,0.0,4.1403,4.1403,4.1029,0.0,0.0,0.0,4.0247,4.0247,0.0,0.0,0.0,3.9287,3.8987,0.0,0.0,0.0,0.0,0.0,0.0,0.0,0.0,0.0,0.0,0.0,0.0,0.0,0.0,0.0,0.0,3.9496,3.9936,4.1233,4.0893,4.0701,4.1192,4.1929,4.237,4.2298,4.2909,4.3032,4.2347,4.23,4.263,4.3396,0.0,0.0,0.0,0.0,4.3494,4.3379,4.4131,4.4411,4.4195,4.4295,4.4361,4.4361,4.4361,4.4395,4.4494,4.4394,4.4361,4.4328,4.4228,4.4195,4.3932,4.1067,3.9889,3.9799,3.9892,3.9826,3.9676,3.9787,0.0,0.0,3.9792,3.9823,3.9823,3.9931,3.9946,3.9946,3.9946,4.0966,4.2065,4.2065,4.2429,4.2823,4.29,4.2273,4.1678,4.1768,4.1863,4.1942,4.1942,4.2345,4.2675,4.2675,4.2079,4.1613,4.1613,4.1613,4.1613,4.1613,4.2122,4.2515,4.2515,0.0,0.0,4.2541,4.2515,4.2241,4.1658,4.1613,4.1583,4.1508,4.1508,4.1478,4.1403,4.1403,4.1403,4.1403,4.1403,4.1403,4.1373,4.0187,3.9631,0.0,0.0,0.0,0.0,0.0,0.0,0.0,0.0,0.0,0.0,0.0,0.0,0.0,0.0,0.0,4.2284,4.2562,4.2881,4.3786,4.38,4.3504,4.2909,4.3002,4.3367,4.4032,4.3621,4.3532,4.4064,4.4093,4.4164,4.4341,4.4752,0.0,4.5235,4.5124,4.5069,4.5043,4.52,4.4933,4.4195,0.0,0.0,4.524,4.524,4.5619,4.6272,4.5557,4.524,4.5192,4.4478,4.4195,4.4145,4.3504,4.2808,4.2224,4.2998,4.2427,4.1366,4.2114,4.1986,4.1606,4.2193,4.2367,4.2495,4.3082,4.3273,0.0,4.3273,4.3487,4.3751,4.3751,4.328,4.2947,4.3472,4.3466,4.3488,4.4021,4.4747,4.5261,4.5261,4.4764,4.4344,4.4344,4.3561,4.2936,4.2936,4.2936,4.2936,4.2936,4.3055,4.313,4.313,4.3235,4.3265,4.3145,4.313,4.307,4.2951,4.2936,4.2716,4.2231,4.2216,4.1961,4.1403,4.1403,4.1403,4.1403,4.1403,4.1403,4.1388,4.1134,4.1014,0.0,0.0,0.0,0.0,0.0,0.0,0.0,0.0,0.0,0.0,0.0,3.9523,0.0,0.0,4.2238,4.3748,4.3995,4.413,4.4533,4.4615,4.4443,4.4006,4.3962,4.4107,4.4556,4.421,4.4289,4.5097,4.5159,4.5311,4.5684,4.6056,4.6244,4.6244,4.6193,4.6331,4.6699,4.6699,4.6664,4.6615,4.7029,4.7251,4.7251,4.7251,4.7484,4.7887,4.7438,4.7251,4.7235,4.6792,4.6599,4.6599,4.6599,4.5324,4.3565,4.4043,4.3667,4.3025,4.3483,4.3408,4.3167,4.3537,4.3649,4.3713,4.4099,4.4195,4.4195,4.4195,4.4769,4.5407,4.5407,4.5302,4.5298,4.5617,4.5345,4.5083,4.5428,4.5869,4.6191,4.6191,4.5816,4.5488,4.5488,4.5085,4.4422,4.3453,4.329,4.329,4.329,4.3732,4.3849,4.3349,4.3752,4.3849,4.3349,4.329,4.329,4.329,4.329,4.316,4.2865,4.2851,4.2686,4.2372,4.2357,4.2357,4.2357,4.2357,4.2357,4.2357,4.2357,4.2013,0.0,0.0,0.0,0.0,0.0,0.0,0.0,0.0,4.0665,4.147,4.1109,4.1262,4.3264,4.3143,4.3141,4.4398,4.4615,4.4615,4.4615,4.4719,4.4804,4.4804,4.4685,4.4651,4.4804,4.4804,4.5125,4.5855,4.5923,4.6177,4.6766,4.6938,4.7005,4.7005,4.7141,4.7513,4.8107,4.8107,4.8411,4.9001,4.9001,4.9001,4.9001,4.9001,4.9001,4.9001,4.9001,4.9001,4.9001,4.9001,4.9001,4.9001,4.9001,4.7412,4.5129,4.5129,4.4933,4.467,4.4852,4.4837,4.474,4.487,4.4918,4.4951,4.5097,4.5129,4.5129,4.5129,4.6061,4.7071,4.7071,4.7324,4.7605,4.7605,4.702,4.6471,4.6471,4.6626,4.6779,4.6926,4.6802,4.6729,4.6875,4.6749,4.5991,4.4139,4.3998,4.409,4.409,4.4917,4.5184,4.4374,4.4838,4.4795,4.3783,4.3698,4.3698,4.3698,4.3698,4.3698,4.3698,4.3698,4.3638,4.3504,4.3484,4.3444,4.329,4.329,4.3384,4.3484,4.3484,4.2876,3.9531,4.015,4.0463,3.9891,4.077,4.1819,0.0,0.0,4.2253,4.3012,4.3075,4.3311,4.4285,4.4392,4.4398,4.4567,4.4615,4.4615,4.4615,4.5162,4.5585,4.5585,4.5007,4.4855,4.5517,4.5585,4.5872,4.6616,4.6682,4.6716,4.68,4.7413,4.7785,4.7785,4.8411,4.8798,4.8883,4.8883,4.8934,4.9001,4.9001,4.9001,4.9001,4.9001,4.9001,4.9001,4.9001,4.9001,4.9001,4.9001,4.9001,4.9001,4.9001,4.8775,4.8451,4.8451,4.7527,4.6354,4.7198,4.7055,4.6617,4.7258,4.7494,4.7611,4.8266,4.8451,4.8451,4.8451,4.8581,4.8742,4.8742,4.8158,4.7605,4.7605,4.7523,4.744,4.744,4.8096,4.8873,4.9544,4.8995,4.864,4.9281,4.8714,4.7631,4.6116,4.643,4.6846,4.6846,4.7533,4.7956,4.7845,4.7126,4.6221,4.5168,4.508,4.508,4.508,4.508,4.508,4.508,4.508,4.4811,4.4192,4.4192,4.3908,4.329,4.329,4.3609,4.4192,4.4192,4.3788,4.1183,4.1606,4.1764,4.1463,4.2169,4.2932,4.2932,4.3301,4.3721,4.4028,4.4096,4.4212,4.4533,4.4615,4.4615,0.0,4.4615,4.4753,4.5179,4.5517,4.5872,4.6295,4.6073,4.6005,4.6312,4.6346,4.665,4.7394,4.743,4.7631,4.8054,4.8376,4.8529,4.8529,4.8849,4.9001,4.9001,4.9001,4.9001,4.9001,4.9001,4.9001,4.9001,4.9001,4.9001,4.9001,4.9001,4.9001,4.9001,4.9001,4.9001,4.9001,4.9001,4.9001,4.9001,4.9001,4.8565,4.8014,4.8405,4.8342,4.8139,4.8428,4.8529,4.8597,4.8917,4.9001,4.9001,4.9001,4.9001,4.9001,4.9001,4.8703,4.8417,4.8417,4.8735,4.9053,4.9053,4.9695,5.0372,5.0676,5.042,5.0258,5.056,5.0292,4.9806,4.9193,4.8448,4.7946,4.7946,4.8691,4.9207,4.9207,4.8343,4.7345,4.6312,4.6227,4.5961,4.5331,4.5289,4.5584,4.6207,4.563,4.5743,4.6674,4.6119,4.5946,4.6256,4.5669,4.5827,4.6674,4.608,4.5985,4.2151,4.2452,4.2591,4.2591,4.3166,4.3727,4.3727,4.4195,4.4615,4.4615,4.4615,4.4615,4.4615,4.4615,4.4615,4.4615,4.477,4.5091,4.5618,4.6044,4.65,4.7039,4.7276,4.7411,4.7411,4.7225,4.7411,4.814,4.8208,4.8428,4.8968,4.9001,4.9001,4.9001,4.9001,4.9001,4.9001,4.9001,4.9001,4.9001,4.9001,4.9001,4.9001,4.9001,4.9001,4.9001,4.9001,4.9001,4.9001,4.9001,4.9001,4.9001,4.9001,4.9001,4.9001,4.9001,4.9001,4.9001,4.9001,4.9001,4.9001,4.9001,4.9001,4.9001,4.9001,4.9001,4.9001,4.9001,4.9001,4.9001,4.9001,4.9154,4.9306,4.9306,4.9864,5.0388,5.0388,5.0812,5.1252,5.1455,5.1505,5.1573,5.1793,5.1827,5.1827,5.1827,5.0685,4.9728,4.9499,5.0259,5.0703,5.041,4.9776,4.8973,4.7961,4.7864,4.7531,4.6758,4.6697,4.7065,4.7825,4.7125,4.7339,4.865,4.7953,4.7858,4.8398,4.7669,4.7782,4.8668,4.7934,4.8083,0.0,0.0,4.3372,4.3372,4.3961,4.455,4.455,4.4567,4.4615,4.4615,4.4615,4.4615,4.4615,4.4615,4.4615,4.4615,4.5196,4.5669,4.5703,4.6923,4.7853,4.787,4.8496,4.8934,0.0,4.8293,4.8174,4.8917,4.8968,4.8984,4.9001,4.9001,4.9001,4.9001,4.9001,4.9001,4.9001,4.9001,4.9001,4.9001,4.9001,4.9001,4.9001,4.9001,4.9001,4.9001,4.9001,4.9001,4.9001,4.9001,4.9001,4.9001,4.9001,4.9001,4.9001,4.9001,4.9001,4.9001,4.9001,4.9001,4.9001,4.9001,4.9001,4.9001,4.9001,4.9001,4.9001,4.9001,4.9001,4.9001,4.9001,4.9526,5.0066,5.0066,5.0642,5.1167,5.1167,5.1184,5.1404,5.2131,5.2266,5.252,5.3298,5.3433,5.3433,5.3433,5.3382,5.3062,5.2268,5.2892,5.2975,5.1945,5.1819,5.1402,5.0371,5.0275,5.0275,5.0253,5.0253,5.0256,5.0275,5.0256,4.9959,4.9387,4.9333,4.9016,4.8398,4.8379,4.8698,4.9371,4.9333,4.9699,0.0,0.0,4.4212,4.4212,4.4398,4.4615,4.4615,4.4615,4.4615,4.4615,4.4615,4.4615,4.4615,4.4615,4.4615,4.4615,4.5227,4.5872,4.6363,4.7278,4.809,4.8563,4.8849,0.0,0.0,0.0,0.0,4.8984,4.9001,4.9001,4.9001,4.9001,4.9001,4.9001,4.9001,4.9001,4.9001,4.9001,4.9001,4.9018,4.9492,4.9982,5.0457,5.0457,5.0457,5.0457,5.0457,5.0457,5.0457,5.0457,5.0457,5.0457,5.0457,5.0457,5.0457,5.0457,5.0457,5.0322,4.934,4.9001,4.9001,4.9001,4.9001,4.9001,4.9001,4.934,4.9729,4.9729,5.0084,5.0457,5.0457,5.0626,5.0828,5.0828,5.1387,5.1944,5.1944,5.235,5.2807,5.3061,5.3095,5.3179,5.345,5.3501,5.3501,5.3501,5.3501,5.3399,5.3129,5.3331,5.3365,5.3007,5.2973,5.254,5.1486,5.1394,5.1099,5.0435,5.0397,5.0703,5.1375,5.0741,5.0945,5.2103,5.1417,5.1302,5.1773,5.1073,5.1204,5.2104,5.138,5.1564,0.0,4.4615,4.4615,4.4615,4.4615,4.4615,4.4615,4.4615,4.4615,4.4615,4.4615,4.4615,4.4615,4.4615,4.4615,4.4615,4.5447,4.6261,4.6733,4.7665,4.8462,4.8951,4.9001,4.9001,0.0,0.0,0.0,4.9001,4.9001,4.9001,4.9001,4.9001,4.9001,4.9001,4.9001,4.9001,4.9001,4.9255,4.9526,4.9781,5.027,5.0744,5.1201,5.1201,5.1201,5.1201,5.1201,5.1201,5.1201,5.1201,5.1201,5.1201,5.1201,5.1201,5.1201,5.1201,5.1201,5.1066,5.0102,4.9796,4.9796,4.9796,4.9796,4.9796,4.9796,5.0118,5.049,5.049,5.0829,5.1201,5.1201,5.1404,5.159,5.159,5.2165,5.2739,5.2739,5.3145,5.3501,5.3501,5.3501,5.3501,5.3501,5.3501,5.3501,5.3501,5.3501,5.3501,5.3501,5.3501,5.3501,5.3501,5.3501,5.323,5.2523,5.247,5.2187,5.1539,5.1502,5.1793,5.2453,5.1847,5.2132,5.3467,5.2818,5.2818,5.3501,5.2818,5.2835,5.3484,5.2784,5.2835,4.4615,4.4615,4.4615,4.4615,4.4615,4.4615,4.4615,4.4615,4.4615,4.4615,4.4615,4.4615,0.0,0.0,4.4615,4.4615,4.5836,4.68,4.68,4.8071,4.9001,0.0,0.0,0.0,0.0,0.0,0.0,4.9001,0.0,4.9001,4.9001,4.9001,4.9001,4.9001,4.9001,4.9018,4.9069,4.9779,5.0524,5.1252,5.1252,5.1286,5.1319,5.1319,5.1319,5.1319,5.1319,5.1319,5.1319,5.1319,5.1319,5.1319,5.1319,5.1319,5.1319,5.1319,5.1319,5.1319,5.1319,5.1269,5.1201,5.1201,5.1201,5.1201,5.1201,5.1235,5.1252,5.1252,5.1286,5.1319,5.1319,5.1827,5.2367,5.2367,5.2942,5.3501,5.3501,5.3501,5.3501,5.3501,5.3501,5.3501,5.3501,5.3501,5.3501,5.3501,5.3501,5.3501,5.3501,5.3501,5.3501,5.3501,5.3501,5.3501,5.3501,5.3501,5.3501,5.3501,5.3501,5.3501,5.3501,5.3501,5.3501,5.3501,5.3501,5.3501,5.3501,5.3501,5.3501,5.3501,5.3501,5.3501,4.4615,4.4615,4.4615,4.4615,4.4615,4.4615,4.4615,4.4615,4.4615,4.4615,4.4615,4.4615,0.0,0.0,0.0,4.4615,4.5836,0.0,4.68,4.8071,0.0,4.9001,0.0,4.9001,4.9001,4.9001,0.0,0.0,4.9001,4.9001,4.9001,4.9001,4.9001,4.9001,4.9001,4.9255,4.9796,5.0557,5.1302,5.2029,5.2029,5.2334,5.2909,5.2909,5.2909,5.2909,5.2909,5.2909,5.2909,5.2909,5.2909,5.2909,5.2909,5.2909,5.2909,5.2909,5.2909,5.2909,5.2909,5.2148,5.1201,5.1201,5.1201,5.1201,5.1201,5.1573,5.2029,5.2029,5.2452,5.2909,5.2909,5.3061,5.3196,5.3196,5.3348,5.3501,5.3501,5.3501,5.3501,5.3501,5.3501,5.3501,5.3501,5.3501,5.3501,5.3501,5.3501,5.3501,5.3501,5.3501,5.3501,5.3501,5.3501,5.3501,5.3501,5.3501,5.3501,5.3501,5.3501,5.3501,5.3501,5.3501,5.3501,5.3501,5.3501,5.3501,5.3501,5.3501,5.3501,5.3501,5.3501,5.3501,4.4615,4.4615,4.4615,4.4615,4.4615,4.4615,4.4615,4.4615,4.4615,4.4615,4.4615,0.0,4.4615,4.4615,0.0,0.0,0.0,0.0,4.721,4.8492,4.9329,0.0,4.9001,0.0,4.9419,4.9167,4.9123,0.0,4.9167,4.9001,4.9001,4.9001,4.9001,4.9001,4.9306,4.9982,5.1064,5.1488,5.208,5.2841,5.2841,5.3061,5.3501,5.3501,5.3501,5.3501,0.0,5.3501,5.3501,5.3501,5.3501,5.3501,5.3501,5.3501,5.3501,5.3501,5.3501,5.3501,5.3501,5.2926,5.2199,5.2199,5.2199,5.2199,5.2199,5.2486,5.2841,5.2841,5.3162,5.3501,5.3501,5.3501,5.3501,5.3501,5.3501,5.3501,5.3501,5.3501,5.3501,5.3501,5.3501,5.3501,5.3501,5.3501,5.3501,5.3501,5.3501,5.3501,5.3501,5.3501,5.3501,5.3501,5.3501,5.3501,5.3501,5.3501,5.3501,5.3501,5.3501,5.3501,5.3501,5.3501,5.3501,5.3501,5.3501,5.3501,5.3501,5.3501,5.3501,5.3501,5.3501,5.3501,4.4615,4.4615,4.4615,4.4615,4.4615,4.4615,4.4615,4.4615,4.4615,4.4615,0.0,4.4615,4.4615,4.4668,4.4893,4.5407,0.0,4.7912,4.7858,4.9174,4.9936,4.9346,4.9271,4.9506,5.009,4.9622,4.9521,5.0086,4.9521,4.9092,4.9001,4.9001,4.9035,4.9137,4.9864,5.0913,5.2283,5.2418,5.2807,5.3501,5.3501,5.3501,5.3501,5.3501,5.3501,5.3501,0.0,0.0,5.3501,5.3501,5.3501,5.3501,5.3501,5.3501,5.3501,5.3501,5.3501,5.3501,5.3501,5.3501,5.3501,5.3501,5.3501,5.3501,5.3501,5.3501,5.3501,5.3501,5.3501,5.3501,5.3501,5.3501,5.3501,5.3501,5.3501,5.3501,5.3501,5.3501,5.3501,5.3501,5.3501,5.3501,5.3501,5.3501,5.3501,5.3501,5.3501,5.3501,5.3501,5.3501,5.3501,5.3501,5.3501,5.3501,5.3501,5.3501,5.3501,5.3501,5.3501,5.3501,5.3501,5.3501,5.3501,5.3501,5.3501,5.3501,5.3501,5.3501,5.3501,5.3501,5.3501,5.3501,4.4615,4.4615,4.4615,4.4615,4.4615,4.4615,4.4615,4.4615,0.0,0.0,4.4615,4.4615,4.4615,4.5012,4.5385,4.5485,4.7266,4.8617,4.8622,4.9945,5.0863,0.0,5.0747,5.077,0.0,0.0,0.0,0.0,0.0,4.9578,4.9032,4.9001,4.9272,4.9881,5.0625,5.1421,5.23,5.2959,5.3365,5.3501,5.3501,5.3501,5.3501,5.3501,5.3501,5.3501,5.3501,0.0,5.3501,5.3501,5.3501,5.3501,5.3501,5.3501,5.3501,5.3501,5.3501,5.3501,5.3501,5.3501,5.3501,5.3501,5.3501,5.3501,5.3501,5.3501,5.3501,5.3501,5.3501,5.3501,5.3501,5.3501,5.3501,5.3501,5.3501,5.3501,5.3501,5.3501,5.3501,5.3501,5.3501,5.3501,5.3501,5.3501,5.3501,5.3501,5.3501,5.3501,5.3501,5.3501,5.3501,5.3501,5.3501,5.3501,5.3501,5.3501,5.3501,5.3501,5.3501,5.3501,5.3501,5.3501,5.3501,5.3501,5.3501,5.3501,5.3501,5.3501,5.3501,5.3501,5.3501,5.3501,4.4615,4.4615,4.4615,4.4615,4.4615,4.4679,4.4998,0.0,0.0,0.0,4.555,4.555,4.555,4.577,0.0,4.6436,4.7731,4.8828,4.921,5.0265,0.0,5.1085,5.1099,5.1241,0.0,0.0,0.0,0.0,0.0,5.0255,4.9548,4.9554,4.9915,5.0659,5.1387,5.2147,5.2926,5.3315,5.3501,5.3501,5.3501,5.3501,5.3501,5.3501,5.3501,5.3501,5.3501,0.0,5.3501,5.3501,5.3501,5.3501,5.3501,5.3501,5.3501,5.3501,5.3501,5.3501,5.3501,5.3501,5.3501,5.3501,5.3501,5.3501,5.3501,5.3501,5.3501,5.3501,5.3501,5.3501,5.3501,5.3501,5.3501,5.3501,5.3501,5.3501,5.3501,5.3501,5.3501,5.3501,5.3501,5.3501,5.3501,5.3501,5.3501,5.3501,5.3501,5.3501,5.3501,5.3501,5.3501,5.3501,5.3501,5.3501,5.3501,5.3501,5.3501,5.3501,5.3501,5.3501,5.3501,5.3501,5.3501,5.3501,5.3501,5.3501,5.3501,5.3501,5.3501,5.3501,5.3501,5.3501,4.4615,4.4615,4.4626,4.4759,4.4786,4.492,4.5381,4.5511,0.0,4.6112,4.6204,4.6252,4.6383,4.6524,4.6796,0.0,4.8207,4.9068,4.9825,5.0633,5.124,0.0,5.1549,0.0,0.0,0.0,0.0,0.0,0.0,0.0,5.0061,5.0208,5.0612,5.1184,5.1928,5.2689,5.3501,5.3501,5.3501,5.3501,5.3501,5.3501,5.3501,5.3501,5.3501,5.3501,5.3501,0.0,0.0,5.3501,5.3501,5.3501,5.3501,5.3501,5.3501,5.3501,5.3501,5.3501,5.3501,5.3501,5.3501,5.3501,5.3501,5.3501,5.3501,5.3501,5.3501,5.3501,5.3501,5.3501,5.3501,5.3501,5.3501,5.3501,5.3501,5.3501,5.3501,5.3501,5.3501,5.3501,5.3501,5.3501,5.3501,5.3501,5.3501,5.3501,5.3501,5.3501,5.3501,5.3501,5.3501,5.3501,5.3501,5.3501,5.3501,5.3501,5.3501,5.3501,5.3501,5.3501,5.3501,5.3501,5.3501,5.3501,5.3501,5.3501,5.3501,5.3501,5.3501,5.3501,5.3501,5.3501,4.4615,4.4615,4.4734,4.5267,4.542,4.5433,4.5485,0.0,4.5524,4.5571,4.5584,4.5745,4.63,4.6898,4.7331,0.0,0.0,4.9788,5.0593,5.1391,5.2176,5.2918,0.0,0.0,0.0,0.0,0.0,0.0,0.0,0.0,5.0058,5.0708,5.1131,5.1199,5.1928,5.2689,5.3501,5.3501,5.3501,5.3501,5.3501,5.3501,5.3501,5.3501,5.3501,5.3501,5.3501,0.0,0.0,5.3501,5.3501,5.3501,5.3501,5.3501,5.3501,5.3501,5.3501,5.3501,5.3501,5.3501,5.3501,5.3501,5.3501,5.3501,5.3501,5.3501,5.3501,5.3501,5.3501,5.3501,5.3501,5.3501,5.3501,5.3501,5.3501,5.3501,5.3501,5.3501,5.3501,5.3501,5.3501,5.3501,5.3501,5.3501,5.3501,5.3501,5.3501,5.3501,5.3501,5.3501,5.3501,5.3501,5.3501,5.3501,5.3501,5.3501,5.3501,5.3501,5.3501,5.3501,5.3501,5.3501,5.3501,5.3501,5.3501,5.3501,5.3501,5.3501,5.3501,5.3501,5.3501,5.3501,4.4615,4.4615,4.4668,4.4893,4.5232,4.5597,4.5965,0.0,4.6751,4.711,4.7194,4.7259,4.7502,4.7749,4.7937,4.7937,4.8427,0.0,5.0618,5.1077,5.1756,5.3049,5.3196,0.0,0.0,0.0,0.0,0.0,0.0,0.0,5.1312,5.1647,5.1864,5.1855,5.2629,5.3179,5.3501,5.3501,5.3501,5.3501,5.3501,5.3501,5.3501,5.3501,5.3501,5.3501,5.3501,0.0,0.0,5.3501,5.3501,5.3501,5.3501,5.3501,5.3501,5.3501,5.3501,5.3501,5.3501,5.3501,5.3501,5.3501,5.3501,5.3501,5.3501,5.3501,5.3501,5.3501,5.3501,5.3501,5.3501,5.3501,5.3501,5.3501,5.3501,5.3501,5.3501,5.3501,5.3501,5.3501,5.3501,5.3501,5.3501,5.3501,5.3501,5.3501,5.3501,5.3501,5.3501,5.3501,5.3501,5.3501,5.3501,5.3501,5.3501,5.3501,5.3501,5.3501,5.3501,5.3501,5.3501,5.3501,5.3501,5.3501,5.3501,5.3501,5.3501,5.3501,5.3501,5.3501,5.3501,5.3501,4.5007,4.5129,4.5165,4.5372,4.5749,4.6173,0.0,0.0,4.753,4.7947,4.8035,4.8085,4.8277,4.8296,4.8296,4.8296,4.8296,4.8792,5.0233,5.0655,5.1316,0.0,0.0,0.0,0.0,0.0,0.0,0.0,0.0,0.0,0.0,5.2514,5.2482,5.2305,5.3081,5.3501,5.3501,5.3501,5.3501,5.3501,5.3501,5.3501,5.3501,5.3501,5.3501,5.3501,0.0,0.0,0.0,5.3501,5.3501,5.3501,5.3501,5.3501,5.3501,5.3501,5.3501,5.3501,5.3501,5.3501,5.3501,5.3501,5.3501,5.3501,5.3501,5.3501,5.3501,5.3501,5.3501,5.3501,5.3501,5.3501,5.3501,5.3501,5.3501,5.3501,5.3501,5.3501,5.3501,5.3501,5.3501,5.3501,5.3501,5.3501,5.3501,5.3501,5.3501,5.3501,5.3501,5.3501,5.3501,5.3501,5.3501,5.3501,5.3501,5.3501,5.3501,5.3501,5.3501,5.3501,5.3501,5.3501,5.3501,5.3501,5.3501,5.3501,5.3501,5.3501,5.3501,5.3501,5.3501,5.3501,4.6016,4.6383,4.6536,4.7205,4.7374,4.7385,4.7385,4.7396,4.7396,4.7406,4.7406,4.7593,4.8191,4.8296,4.8296,4.8296,4.8296,4.8618,4.949,5.0298,5.1096,0.0,0.0,0.0,0.0,0.0,0.0,0.0,0.0,0.0,0.0,5.3189,5.292,5.2317,5.3081,5.3501,5.3501,5.3501,5.3501,5.3501,5.3501,5.3501,5.3501,5.3501,5.3501,0.0,0.0,0.0,0.0,5.3501,5.3501,5.3501,5.3501,5.3501,5.3501,5.3501,5.3501,5.3501,5.3501,5.3501,5.3501,5.3501,5.3501,5.3501,5.3501,5.3501,5.3501,5.3501,5.3501,5.3501,5.3501,5.3501,5.3501,5.3501,5.3501,5.3501,5.3501,5.3501,5.3501,5.3501,5.3501,5.3501,5.3501,5.3501,5.3501,5.3501,5.3501,5.3501,5.3501,5.3501,5.3501,5.3501,5.3501,5.3501,5.3501,5.3501,5.3501,5.3501,5.3501,5.3501,5.3501,5.3501,5.3501,5.3501,5.3501,5.3501,5.3501,5.3501,5.3501,5.3501,5.3501,5.3501,4.4776,4.5292,4.5769,4.6539,4.7055,4.7396,4.7396,4.7726,4.8025,4.8025,4.8025,4.8075,4.8267,4.8296,4.8296,4.8296,4.8296,0.0,0.0,0.0,0.0,5.1895,0.0,0.0,0.0,0.0,0.0,0.0,0.0,0.0,0.0,5.32,5.3138,5.2987,5.3262,5.3449,5.3501,5.3501,5.3501,5.3501,5.3501,5.3501,5.3501,5.3501,0.0,0.0,0.0,0.0,0.0,5.3501,5.3501,5.3501,5.3501,5.3501,5.3501,5.3501,5.3501,5.3501,5.3501,5.3501,5.3501,5.3501,5.3501,5.3501,5.3501,5.3501,5.3501,5.3501,5.3501,5.3501,5.3501,5.3501,5.3501,5.3501,5.3501,5.3501,5.3501,5.3501,5.3501,5.3501,5.3501,5.3501,5.3501,5.3501,5.3501,5.3501,5.3501,5.3501,5.3501,5.3501,5.3501,5.3501,5.3501,5.3501,5.3501,5.3501,5.3501,5.3501,5.3501,5.3501,5.3501,5.3501,5.3501,5.3501,5.3501,5.3501,5.3501,5.3501,5.3501,5.3501,5.3501,5.3501,0.0,4.5217,4.5663,4.6453,4.6976,0.0,4.7674,4.8035,4.8296,4.8296,4.8296,4.8296,4.8296,4.8296,4.8296,4.8296,4.8296,0.0,0.0,0.0,0.0,0.0,0.0,0.0,0.0,0.0,0.0,0.0,0.0,0.0,0.0,5.3191,5.3225,5.3258,5.3081,5.3139,5.3454,5.3194,5.3196,5.3501,5.3501,5.3501,5.3501,5.3501,0.0,0.0,0.0,0.0,0.0,5.3501,5.3501,5.3501,5.3501,5.3501,5.3501,5.3501,5.3501,5.3501,5.3501,5.3501,5.3501,5.3501,5.3501,5.3501,5.3501,5.3501,5.3501,5.3501,5.3501,5.3501,5.3501,5.3501,5.3501,5.3501,5.3501,5.3501,5.3501,5.3501,5.3501,5.3501,5.3501,5.3501,5.3501,5.3501,5.3501,5.3501,5.3501,5.3501,5.3501,5.3501,5.3501,5.3501,5.3501,5.3501,5.3501,5.3501,5.3501,5.3501,5.3501,5.3501,5.3501,5.3501,5.3501,5.3501,5.3501,5.3501,5.3501,5.3501,5.3501,5.3501,5.3501,5.3501,0.0,4.5773,4.6012,4.681,4.7058,4.7296,4.8039,4.826,0.0,4.8296,4.8296,4.8296,4.8296,4.8296,4.8296,4.8296,0.0,0.0,0.0,4.9728,0.0,0.0,0.0,0.0,0.0,0.0,0.0,0.0,0.0,0.0,0.0,5.3196,5.3211,5.3213,5.2612,5.2622,5.3318,5.2587,5.2604,5.3348,5.3399,5.3416,5.3416,5.3467,0.0,0.0,0.0,0.0,0.0,5.3501,5.3501,5.3501,5.3501,5.3501,5.3501,5.3501,5.3501,5.3501,5.3501,5.3501,5.3501,5.3501,5.3501,5.3501,5.3501,5.3501,5.3501,5.3501,5.3501,5.3501,5.3501,5.3501,5.3501,5.3501,5.3501,5.3501,5.3501,5.3501,5.3501,5.3501,5.3501,5.3501,5.3501,5.3501,5.3501,5.3501,5.3501,5.3501,5.3501,5.3501,5.3501,5.3501,5.3501,5.3501,5.3501,5.3501,5.3501,5.3501,5.3501,5.3501,5.3501,5.3501,5.3501,5.3501,5.3501,5.3501,5.3501,5.3501,5.3501,5.3501,5.3501,5.3501,4.3788,0.0,4.5177,4.5984,4.6645,4.7149,0.0,0.0,0.0,0.0,0.0,0.0,0.0,4.8296,4.8296,0.0,0.0,0.0,4.8296,0.0,0.0,0.0,0.0,0.0,0.0,0.0,0.0,0.0,0.0,0.0,0.0,5.3196,5.3205,5.32,5.2522,5.2276,5.255,5.182,5.1556,5.1742,5.2317,5.2587,5.2604,5.323,0.0,0.0,0.0,0.0,5.3501,5.3501,5.3501,5.3501,5.3501,5.3501,5.3501,5.3501,5.3501,5.3501,5.3501,5.3501,5.3501,5.3501,5.3501,5.3501,5.3501,5.3501,5.3501,5.3501,5.3501,5.3501,5.3501,5.3501,5.3501,5.3501,5.3501,5.3501,5.3501,5.3501,5.3501,5.3501,5.3501,5.3501,5.3501,5.3501,5.3501,5.3501,5.3501,5.3501,5.3501,5.3501,5.3501,5.3501,5.3501,5.3501,5.3501,5.3501,5.3501,5.3501,5.3501,5.3501,5.3501,5.3501,5.3501,5.3501,5.3501,5.3501,5.3501,5.3501,5.3501,5.3501,5.3501,5.3501,4.3357,4.3818,4.4342,4.5149,4.5948,4.6645,4.7021,0.0,0.0,0.0,0.0,0.0,0.0,0.0,0.0,0.0,4.8296,0.0,0.0,0.0,0.0,0.0,0.0,0.0,0.0,0.0,0.0,0.0,0.0,0.0,0.0,5.3196,5.3196,5.3196,5.2479,5.2158,5.2256,5.1552,5.1209,5.1201,5.159,5.1809,5.1809,5.2249,5.2435,0.0,0.0,0.0,5.2435,5.2435,5.2435,5.2435,5.2435,5.2435,5.2486,5.2824,5.2959,5.301,5.3382,5.3501,5.3501,5.3501,5.3501,5.3501,5.3501,5.3501,5.3501,5.3501,5.3501,5.3501,5.3501,5.3501,5.3501,5.3501,5.3501,5.3501,5.3501,5.3501,5.3501,5.3501,5.3501,5.3501,5.3501,5.3501,5.3501,5.3501,5.3501,5.3501,5.3501,5.3501,5.3501,5.3501,5.3501,5.3501,5.3501,5.3501,5.3501,5.3501,5.3501,5.3501,5.3501,5.3501,5.3501,5.3501,5.3501,5.3501,5.3501,5.3501,5.3501,5.3501,5.3501,5.3501,4.3347,4.3506,4.3653,4.436,4.5204,4.6085,4.6755,0.0,0.0,0.0,0.0,0.0,0.0,4.8296,0.0,0.0,0.0,0.0,0.0,0.0,0.0,0.0,0.0,0.0,0.0,0.0,0.0,0.0,0.0,0.0,0.0,5.3196,5.3196,5.3196,5.2588,5.2228,5.2196,5.1417,5.1015,5.1004,5.1028,5.1032,5.1032,5.115,5.1201,0.0,0.0,0.0,5.1201,5.1201,5.1201,5.1201,5.1201,5.1201,5.1286,5.1911,5.2131,5.2249,5.3044,5.3399,5.3501,5.3501,5.3501,5.3501,5.3501,5.3501,5.3501,5.3501,5.3501,5.3501,5.3501,5.3501,5.3501,5.3501,5.3501,5.3501,5.3501,5.3501,5.3501,5.3501,5.3501,5.3501,5.3501,5.3501,5.3501,5.3501,5.3501,5.3501,5.3501,5.3501,5.3501,5.3501,5.3501,5.3501,5.3501,5.3501,5.3501,5.3501,5.3501,5.3501,5.3501,5.3501,5.3501,5.3501,5.3501,5.3501,5.3501,5.3501,5.3501,5.3501,5.3501,5.3501,4.3287,4.3506,4.3524,4.3653,4.4809,4.592,4.6067,0.0,0.0,0.0,0.0,0.0,0.0,4.8296,4.8296,0.0,0.0,0.0,0.0,0.0,0.0,0.0,0.0,0.0,0.0,0.0,0.0,0.0,0.0,0.0,0.0,5.3196,5.3196,5.3196,5.3092,5.2746,5.212,5.0838,5.0189,5.018,5.0242,5.027,5.0287,5.0914,5.1201,0.0,0.0,5.1201,5.1201,5.1201,5.1201,5.1201,5.1201,5.1201,5.1218,5.1336,5.137,5.1472,5.2232,5.2942,5.3501,5.3501,5.3501,5.3501,5.3501,5.3501,5.3501,5.3501,5.3501,5.3501,5.3501,5.3501,5.3501,5.3501,5.3501,5.3501,5.3501,5.3501,5.3501,5.3501,5.3501,5.3501,5.3501,5.3501,5.3501,5.3501,5.3501,5.3501,5.3501,5.3501,5.3501,5.3501,5.3501,5.3501,5.3501,5.3501,5.3501,5.3501,5.3501,5.3501,5.3501,5.3501,5.3501,5.3501,5.3501,5.3501,5.3501,5.3501,5.3501,5.3501,5.3501,5.3501,4.3286,4.3506,4.3506,4.3506,4.4718,4.5902,4.5902,0.0,0.0,0.0,0.0,0.0,0.0,0.0,4.8296,4.8296,0.0,0.0,0.0,0.0,0.0,0.0,0.0,0.0,0.0,0.0,0.0,0.0,0.0,0.0,0.0,0.0,5.3196,5.3196,5.3196,5.3031,5.2695,5.1661,5.0752,5.0004,5.0037,4.9856,4.9509,4.9864,5.0,5.0,0.0,5.0,5.0,5.0,5.0,5.0,5.0,5.0,5.0067,5.0456,5.0862,5.1302,5.2046,5.2536,5.2926,5.3365,5.3501,5.3501,5.3501,5.3501,5.3501,5.3501,5.3501,5.3501,5.3501,5.3501,5.3501,5.3501,5.3501,5.3501,5.3501,5.3501,5.3501,5.3501,5.3501,5.3501,5.3501,5.3501,5.3501,5.3501,5.3501,5.3501,5.3501,5.3501,5.3501,5.3501,5.3501,5.3501,5.3501,5.3501,5.3501,5.3501,5.3501,5.3501,5.3501,5.3501,5.3501,5.3501,5.3501,5.3501,5.3501,5.3501,5.3501,5.3501,5.3501,5.3501,4.301,4.3359,4.3543,4.3726,0.0,0.0,0.0,0.0,0.0,0.0,0.0,0.0,0.0,4.8296,0.0,4.8296,0.0,0.0,0.0,0.0,0.0,0.0,0.0,0.0,0.0,0.0,0.0,0.0,0.0,0.0,0.0,0.0,5.3196,5.3196,5.3196,5.3196,5.3196,5.2651,5.1643,5.0255,5.0072,4.9649,4.9001,4.9001,4.9001,4.9001,4.9001,4.9001,4.9001,4.9001,4.9001,4.9001,4.9001,4.9001,4.9069,4.9627,5.0304,5.1015,5.1589,5.2012,5.2401,5.3027,5.3348,5.3501,5.3501,5.3501,5.3501,5.3501,5.3501,5.3501,5.3501,5.3501,5.3501,5.3501,5.3501,5.3501,5.3501,5.3501,5.3501,5.3501,5.3501,5.3501,5.3501,5.3501,5.3501,5.3501,5.3501,5.3501,5.3501,5.3501,5.3501,5.3501,5.3501,5.3501,5.3501,5.3501,5.3501,5.3501,5.3501,5.3501,5.3501,5.3501,5.3501,5.3501,5.3501,5.3501,5.3501,5.3501,5.3501,5.3501,5.3501,5.3501,4.2176,4.2937,4.3671,4.4425,4.5259,0.0,4.5902,4.715,0.0,4.8296,0.0,0.0,0.0,4.8296,4.8296,0.0,0.0,0.0,0.0,0.0,0.0,0.0,0.0,0.0,0.0,0.0,0.0,0.0,0.0,0.0,0.0,0.0,0.0,5.3196,5.3196,5.3196,5.3196,5.3153,5.2417,5.1008,5.0338,4.9649,4.9001,4.9001,4.9001,4.9001,4.9001,4.9001,4.9001,4.9001,4.9001,4.9001,4.9001,4.9001,4.9018,4.9069,4.9543,5.0201,5.0252,5.115,5.2317,5.2367,5.2892,5.3501,5.3501,5.3501,5.3501,5.3501,5.3501,5.3501,5.3501,5.3501,5.3501,5.3501,5.3501,5.3501,5.3501,5.3501,5.3501,5.3501,5.3501,5.3501,5.3501,5.3501,5.3501,5.3501,5.3501,5.3501,5.3501,5.3501,5.3501,5.3501,5.3501,5.3501,5.3501,5.3501,5.3501,5.3501,5.3501,5.3501,5.3501,5.3501,5.3501,5.3501,5.3501,5.3501,5.3501,5.3501,5.3501,5.3501,5.3501,5.3501,4.2076,4.2892,4.369,4.4498,4.5296,0.0,0.0,4.7507,4.8296,4.8296,4.8296,0.0,0.0,0.0,4.8296,0.0,0.0,0.0,0.0,0.0,0.0,0.0,0.0,0.0,0.0,0.0,0.0,0.0,0.0,0.0,0.0,0.0,0.0,5.3196,5.3196,5.3196,5.3196,5.3196,5.2702,5.1704,5.1021,5.009,4.9001,4.9001,4.9001,4.9001,4.9001,4.9001,4.9001,4.9001,4.9001,4.9001,4.9001,4.9001,4.9001,4.9001,4.9187,4.9475,4.9947,5.0472,5.1082,5.1995,5.252,5.2858,5.3348,5.3501,5.3501,5.3501,5.3501,5.3501,5.3501,5.3501,5.3501,5.3501,5.3501,5.3501,5.3501,5.3501,5.3501,5.3501,5.3501,5.3501,5.3501,5.3501,5.3501,5.3501,5.3501,5.3501,5.3501,5.3501,5.3501,5.3501,5.3501,5.3501,5.3501,5.3501,5.3501,5.3501,5.3501,5.3501,5.3501,5.3501,5.3501,5.3501,5.3501,5.3501,5.3501,5.3501,5.3501,5.3501,5.3501,5.3501,4.1764,4.2873,4.4066,4.4883,0.0,0.0,4.7305,4.7911,4.8296,4.8296,4.8296,0.0,0.0,0.0,0.0,0.0,0.0,0.0,0.0,0.0,0.0,0.0,0.0,0.0,0.0,0.0,0.0,0.0,0.0,0.0,0.0,0.0,0.0,0.0,5.3196,5.3196,5.3196,5.3196,5.2831,5.2083,5.163,5.0676,4.9316,4.9092,4.9001,4.9001,4.9001,4.9001,4.9001,4.9001,4.9001,4.9001,4.9001,4.9001,4.9001,4.9001,4.9001,4.9069,4.9576,4.9914,5.0269,5.1285,5.1928,5.2401,5.2959,5.3298,5.3501,5.3501,5.3501,5.3501,5.3501,5.3501,5.3501,5.3501,5.3501,5.3501,5.3501,5.3501,5.3501,5.3501,5.3501,5.3501,5.3501,5.3501,5.3501,5.3501,5.3501,5.3501,5.3501,5.3501,5.3501,5.3501,5.3501,5.3501,5.3501,5.3501,5.3501,5.3501,5.3501,5.3501,5.3501,5.3501,5.3501,5.3501,5.3501,5.3501,5.3501,5.3501,5.3501,5.3501,5.3501,5.3501,4.1095,4.2856,4.4883,4.57,0.0,0.0,4.8113,4.8296,4.8296,4.8296,4.8296,4.8296,4.8296,0.0,0.0,0.0,0.0,0.0,0.0,0.0,0.0,0.0,0.0,0.0,0.0,0.0,0.0,0.0,0.0,0.0,0.0,0.0,0.0,0.0,5.3196,5.3196,5.3196,5.3196,5.2842,5.2112,5.2094,5.1363,4.9976,4.9299,4.9001,4.9001,4.9001,4.9001,4.9001,4.9001,4.9001,4.9001,4.9001,4.9001,4.9001,4.9001,4.9001,4.9001,4.9001,4.9475,5.01,5.01,5.1082,5.2283,5.23,5.2858,5.3501,5.3501,5.3501,5.3501,5.3501,5.3501,5.3501,5.3501,5.3501,5.3501,5.3501,5.3501,5.3501,5.3501,5.3501,5.3501,5.3501,5.3501,5.3501,5.3501,5.3501,5.3501,5.3501,5.3501,5.3501,5.3501,5.3501,5.3501,5.3501,5.3501,5.3501,5.3501,5.3501,5.3501,5.3501,5.3501,5.3501,5.3501,5.3501,5.3501,5.3501,5.3501,5.3501,5.3501,5.3501,5.3501,4.1095,4.2856,4.4883,4.57,0.0,0.0,0.0,4.8296,0.0,0.0,4.8296,4.8296,4.8296,0.0,0.0,0.0,0.0,0.0,0.0,0.0,0.0,0.0,0.0,0.0,0.0,0.0,0.0,0.0,0.0,0.0,0.0,0.0,0.0,0.0,5.3196,5.3196,5.3196,5.3196,5.3092,5.2864,5.2358,5.1363,4.999,4.9792,4.9464,4.9001,4.9001,4.9001,4.9001,4.9001,4.9001,4.9001,4.9001,4.9001,4.9001,4.9001,4.9001,4.9001,4.9001,4.9137,4.9407,4.9915,5.0744,5.1624,5.2147,5.2858,5.3501,5.3501,5.3501,5.3501,5.3501,5.3501,5.3501,5.3501,5.3501,5.3501,5.3501,5.3501,5.3501,5.3501,5.3501,5.3501,5.3501,5.3501,5.3501,5.3501,5.3501,5.3501,5.3501,5.3501,5.3501,5.3501,5.3501,5.3501,5.3501,5.3501,5.3501,5.3501,5.3501,5.3501,5.3501,5.3501,5.3501,5.3501,5.3501,5.3501,5.3501,5.3501,5.3501,5.3501,5.3501,5.3501,4.1095,4.3103,4.5287,4.5773,4.6746,4.7709,4.8186,0.0,0.0,0.0,0.0,4.8296,4.8296,0.0,0.0,0.0,0.0,0.0,0.0,0.0,0.0,0.0,0.0,0.0,0.0,0.0,0.0,0.0,0.0,0.0,0.0,0.0,0.0,0.0,5.3196,5.3196,5.3196,5.3196,5.3196,5.3185,5.2747,5.1946,5.0819,5.0269,4.962,4.9001,4.9001,4.9001,4.9001,4.9001,4.9001,4.9001,4.9001,4.9001,4.9001,4.9001,4.9001,4.9001,4.9001,4.9001,4.9069,4.9509,5.0152,5.0913,5.164,5.2418,5.3095,5.3416,5.3501,5.3501,5.3501,5.3501,5.3501,5.3501,5.3501,5.3501,5.3501,5.3501,5.3501,5.3501,5.3501,5.3501,5.3501,5.3501,5.3501,5.3501,5.3501,5.3501,5.3501,5.3501,5.3501,5.3501,5.3501,5.3501,5.3501,5.3501,5.3501,5.3501,5.3501,5.3501,5.3501,5.3501,5.3501,5.3501,5.3501,5.3501,5.3501,5.3501,5.3501,5.3501,5.3501,5.3501,4.1095,4.3452,4.5902,4.5902,4.7113,0.0,4.8296,4.8296,4.8296,4.8296,0.0,4.8296,0.0,0.0,0.0,0.0,0.0,0.0,0.0,0.0,0.0,0.0,0.0,0.0,0.0,0.0,0.0,0.0,0.0,0.0,0.0,0.0,0.0,5.3196,5.3196,5.3196,5.3196,5.3196,5.3196,0.0,5.3196,5.2802,5.2065,5.0765,4.9795,4.9092,4.9032,4.9001,4.9001,4.9001,4.9001,4.9001,4.9001,4.9001,4.9001,4.9001,4.9001,4.9001,4.9001,4.9001,4.9001,4.9001,4.9492,5.0236,5.0981,5.1708,5.2469,5.3281,5.3501,5.3501,5.3501,5.3501,5.3501,5.3501,5.3501,5.3501,5.3501,5.3501,5.3501,5.3501,5.3501,5.3501,5.3501,5.3501,5.3501,5.3501,5.3501,5.3501,5.3501,5.3501,5.3501,5.3501,5.3501,5.3501,5.3501,5.3501,5.3501,5.3501,5.3501,5.3501,5.3501,5.3501,5.3501,5.3501,5.3501,5.3501,5.3501,5.3501,5.3501,5.3501,5.3501,5.3501,4.1095,4.3452,4.5902,4.5902,4.7113,4.8296,4.8296,4.8296,4.8296,4.8296,4.8296,4.8296,0.0,0.0,0.0,0.0,0.0,0.0,0.0,0.0,0.0,0.0,0.0,0.0,0.0,0.0,0.0,0.0,0.0,0.0,0.0,0.0,0.0,5.3196,5.3196,5.3196,5.3196,5.3196,5.3196,0.0,5.3196,5.2802,5.2101,5.1777,5.0964,4.9766,4.9228,4.9001,4.9001,4.9001,4.9001,4.9001,4.9001,4.9001,4.9001,4.9001,4.9001,4.9001,4.9001,4.9001,4.9001,4.9001,4.9492,5.0236,5.0981,5.1708,5.2469,5.3281,5.3501,5.3501,5.3501,5.3501,5.3501,5.3501,5.3501,5.3501,5.3501,5.3501,5.3501,5.3501,5.3501,5.3501,5.3501,5.3501,5.3501,5.3501,5.3501,5.3501,5.3501,5.3501,5.3501,5.3501,5.3501,5.3501,5.3501,5.3501,5.3501,5.3501,5.3501,5.3501,5.3501,5.3501,5.3501,5.3501,5.3501,5.3501,5.3501,5.3501,5.3501,5.3501,5.3501,5.3501,4.1095,4.3452,4.6085,4.6856,0.0,4.8296,4.8296,4.8296,4.8296,4.8296,4.8296,0.0,0.0,0.0,0.0,0.0,0.0,0.0,0.0,0.0,0.0,0.0,0.0,0.0,0.0,0.0,0.0,0.0,0.0,0.0,0.0,5.3196,5.3196,5.3196,5.3196,5.3196,5.3196,5.3196,5.3196,5.3196,5.3196,5.2999,5.2599,5.1934,5.1228,5.05,5.016,5.0007,4.9979,4.9622,4.9477,4.9464,4.9138,4.9001,4.9001,4.9001,4.9001,4.9001,4.9001,4.9001,4.9001,4.9001,4.9255,4.9712,5.0456,5.12,5.1944,5.2706,5.3213,5.3501,5.3501,5.3501,5.3501,5.3501,5.3501,5.3501,5.3501,5.3501,5.3501,5.3501,5.3501,5.3501,5.3501,5.3501,5.3501,5.3501,5.3501,5.3501,5.3501,5.3501,5.3501,5.3501,5.3501,5.3501,5.3501,5.3501,5.3501,5.3501,5.3501,5.3501,5.3501,5.3501,5.3501,5.3501,5.3501,5.3501,5.3501,5.3501,5.3501,5.3501,5.3501,5.3501,4.1095,4.3452,4.625,4.7728,4.8205,0.0,4.8296,4.8296,4.8296,4.8296,4.8296,0.0,0.0,0.0,0.0,0.0,0.0,0.0,0.0,0.0,0.0,0.0,0.0,0.0,0.0,0.0,0.0,0.0,0.0,0.0,5.3196,5.3196,5.3196,5.3196,5.3196,5.3196,5.3196,5.3196,5.3196,5.3196,5.3196,5.3196,5.3164,5.1988,5.1381,5.1266,5.1151,5.1099,5.1047,5.0431,5.0115,4.9947,4.9389,4.9107,4.9001,4.9001,4.9001,4.9001,4.9001,4.9001,4.9001,4.9001,4.9001,4.9137,4.988,5.0625,5.1353,5.2097,5.2892,5.3501,5.3501,5.3501,5.3501,5.3501,5.3501,5.3501,5.3501,5.3501,5.3501,5.3501,5.3501,5.3501,5.3501,5.3501,5.3501,5.3501,5.3501,5.3501,5.3501,5.3501,5.3501,5.3501,5.3501,5.3501,5.3501,5.3501,5.3501,5.3501,5.3501,5.3501,5.3501,5.3501,5.3501,5.3501,5.3501,5.3501,5.3501,5.3501,5.3501,5.3501,5.3501,5.3501,4.1095,4.3452,4.6122,0.0,4.7783,4.8296,0.0,0.0,4.8296,0.0,0.0,0.0,0.0,0.0,0.0,0.0,0.0,0.0,0.0,0.0,0.0,0.0,0.0,0.0,0.0,0.0,0.0,0.0,0.0,0.0,5.3196,5.3196,5.3196,5.3196,5.3196,5.3196,5.3196,5.3196,5.3196,5.3196,5.3196,5.3196,5.3185,5.2999,5.2565,5.1928,5.1343,5.1099,5.1086,5.0995,5.0581,4.999,4.989,4.9521,4.9001,4.9001,4.9001,4.9001,4.9001,4.9001,4.9001,4.9001,4.9001,4.9137,4.988,5.0625,5.1353,5.2097,5.2892,5.3501,5.3501,5.3501,5.3501,5.3501,5.3501,5.3501,5.3501,5.3501,5.3501,5.3501,5.3501,5.3501,5.3501,5.3501,5.3501,5.3501,5.3501,5.3501,5.3501,5.3501,5.3501,5.3501,5.3501,5.3501,5.3501,5.3501,5.3501,5.3501,5.3501,5.3501,5.3501,5.3501,5.3501,5.3501,5.3501,5.3501,5.3501,5.3501,5.3501,5.3501,5.3501,5.3501,4.2746,4.4488,4.6085,0.0,4.7709,4.8296,4.8296,4.8296,4.8296,4.8296,0.0,0.0,0.0,0.0,0.0,0.0,0.0,0.0,0.0,0.0,0.0,0.0,0.0,0.0,0.0,0.0,0.0,0.0,5.3196,5.3196,5.3196,5.3196,5.3196,5.3196,5.3196,5.3196,5.3196,5.3196,5.3196,5.3196,5.3196,5.3196,5.3196,5.3196,5.302,5.2695,5.2399,5.2284,5.2231,5.182,5.1469,5.1146,5.077,5.0435,5.0135,4.9707,4.9548,4.9506,4.9138,4.9001,4.9001,4.9001,4.9001,4.9069,4.939,5.0304,5.1269,5.159,5.257,5.3501,5.3501,5.3501,5.3501,5.3501,5.3501,5.3501,5.3501,5.3501,5.3501,5.3501,5.3501,5.3501,5.3501,5.3501,5.3501,5.3501,5.3501,5.3501,5.3501,5.3501,5.3501,5.3501,5.3501,5.3501,5.3501,5.3501,5.3501,5.3501,5.3501,5.3501,5.3501,5.3501,5.3501,5.3501,5.3501,5.3501,5.3501,5.3501,5.3501,5.3501,5.3501,5.3501,4.3782,0.0,4.5792,4.659,4.7397,4.8058,0.0,0.0,4.8296,0.0,0.0,0.0,0.0,0.0,0.0,0.0,0.0,0.0,0.0,0.0,0.0,0.0,0.0,0.0,0.0,0.0,0.0,0.0,5.3196,5.3196,5.3196,5.3196,5.3196,5.3196,5.3196,5.3196,5.3196,5.3196,5.3196,5.3196,5.3196,5.3196,5.3196,5.3196,5.3196,5.3196,5.3196,5.3196,5.3164,5.2617,5.2271,5.2035,5.1544,5.1254,5.1034,5.0472,5.0157,4.9947,4.9637,4.9301,4.9032,4.9197,4.9136,4.9001,4.9001,4.9899,5.0964,5.115,5.2148,5.3247,5.345,5.3501,5.3501,5.3501,5.3501,5.3501,5.3501,5.3501,5.3501,5.3501,5.3501,5.3501,5.3501,5.3501,5.3501,5.3501,5.3501,5.3501,5.3501,5.3501,5.3501,5.3501,5.3501,5.3501,5.3501,5.3501,5.3501,5.3501,5.3501,5.3501,5.3501,5.3501,5.3501,5.3501,5.3501,5.3501,5.3501,5.3501,5.3501,5.3501,5.3501,5.3501,0.0,4.4158,0.0,4.5755,4.6571,4.7351,0.0,0.0,0.0,0.0,0.0,0.0,0.0,0.0,0.0,0.0,0.0,0.0,0.0,0.0,0.0,0.0,0.0,0.0,0.0,0.0,0.0,0.0,5.3196,5.3196,5.3196,5.3196,5.3196,5.3196,5.3196,5.3196,5.3196,5.3196,5.3196,5.3196,5.3196,5.3196,5.3196,5.3196,5.3196,5.3196,5.3196,5.3196,5.3196,5.3164,5.2736,5.2101,5.2059,5.1655,5.1099,5.106,5.0595,5.0086,5.0756,5.0121,4.9107,4.9751,4.9521,4.9001,4.9001,4.9543,5.0287,5.0998,5.1759,5.2536,5.3298,5.3501,5.3501,5.3501,5.3501,5.3501,5.3501,5.3501,5.3501,5.3501,5.3501,5.3501,5.3501,5.3501,5.3501,5.3501,5.3501,5.3501,5.3501,5.3501,5.3501,5.3501,5.3501,5.3501,5.3501,5.3501,5.3501,5.3501,5.3501,5.3501,5.3501,5.3501,5.3501,5.3501,5.3501,5.3501,5.3501,5.3501,5.3501,5.3501,5.3501,5.3501,0.0,0.0,0.0,4.57,4.6498,4.7314,4.8113,4.8296,0.0,0.0,0.0,0.0,0.0,0.0,0.0,0.0,0.0,0.0,0.0,0.0,0.0,0.0,0.0,0.0,0.0,0.0,0.0,0.0,0.0,5.3196,5.3196,5.3196,5.3196,5.3196,5.3196,5.3196,5.3196,5.3196,5.3196,5.3196,5.3196,5.3196,5.3196,5.3196,5.3196,5.3196,5.3196,5.3196,5.3196,5.3196,5.3042,5.2809,5.2809,5.2651,5.2394,5.1922,5.1305,5.0743,5.1008,5.0174,4.9107,4.9777,4.9551,4.9001,4.9001,4.9509,5.0253,5.0981,5.211,5.3255,5.4011,5.456,5.4789,5.4328,5.3849,5.3501,5.3501,5.3501,5.3501,5.3501,5.3501,5.3501,5.3501,5.3501,5.3501,5.3501,5.3501,5.3501,5.3501,5.3501,5.3501,5.3501,5.3501,5.3501,5.3501,5.3501,5.3501,5.3501,5.3501,5.3501,5.3501,5.3501,5.3501,5.3501,5.3501,5.3501,5.3501,5.3501,5.3501,5.3501,5.3501,5.3501,4.3139,0.0,0.0,0.0,4.6296,4.6975,4.8039,0.0,0.0,0.0,0.0,0.0,0.0,0.0,0.0,0.0,0.0,0.0,0.0,0.0,0.0,0.0,0.0,0.0,0.0,0.0,0.0,0.0,0.0,0.0,5.3196,5.3196,5.3196,5.3196,5.3196,5.3196,5.3196,5.3196,5.3196,5.3196,5.3196,5.3196,5.3196,5.3196,5.3196,5.3196,5.3196,5.3196,5.3196,5.3196,5.3196,5.3196,5.3196,5.3196,5.3153,5.2651,5.203,5.1469,5.1728,5.0876,4.9809,5.0486,5.009,4.9346,4.9346,4.9522,4.9932,5.0914,5.1938,5.296,5.3974,5.4591,5.485,5.4359,5.3865,5.3501,5.3501,5.3501,5.3501,5.3501,5.3501,5.3501,5.3501,5.3501,5.3501,5.3501,5.3501,5.3501,5.3501,5.3501,5.3501,5.3501,5.3501,5.3501,5.3501,5.3501,5.3501,5.3501,5.3501,5.3501,5.3501,5.3501,5.3501,5.3501,5.3501,5.3501,5.3501,5.3501,5.3501,5.3501,5.3501,5.3501,0.0,0.0,0.0,0.0,0.0,0.0,4.7929,0.0,0.0,0.0,0.0,0.0,0.0,0.0,0.0,0.0,0.0,0.0,0.0,0.0,0.0,0.0,0.0,0.0,0.0,0.0,0.0,0.0,5.2729,5.3177,5.3196,5.3196,5.3196,5.3196,5.3196,5.3196,5.3196,5.3196,5.3196,5.3196,5.3196,5.3196,5.3196,5.3196,5.3196,5.3196,5.3196,5.3196,5.3196,5.3196,5.3196,5.3196,5.3196,5.3196,5.3196,5.3196,5.2718,5.2213,5.2937,5.2284,5.1202,5.1868,5.1133,5.0004,4.9976,4.9521,4.9323,5.0778,5.1217,5.1605,5.3161,5.3551,5.3534,5.3534,5.3517,5.3501,5.3501,5.3501,5.3501,5.3501,5.3501,5.3501,5.3501,5.3501,5.3501,5.3501,5.3501,5.3501,5.3501,5.3501,5.3501,5.3501,5.3501,5.3501,5.3501,5.3501,5.3501,5.3501,5.3501,5.3501,5.3501,5.3501,5.3501,5.3501,5.3501,5.3501,5.3501,5.3501,5.3501,5.3501,5.3501,5.3501,4.3286,0.0,0.0,0.0,0.0,0.0,0.0,0.0,0.0,0.0,0.0,0.0,0.0,0.0,0.0,0.0,0.0,0.0,0.0,0.0,0.0,0.0,0.0,0.0,0.0,0.0,0.0,0.0,5.2197,5.2582,5.3177,5.3196,5.3196,5.3196,5.3196,5.3196,5.3196,5.3196,5.3196,5.3196,5.3196,5.3196,5.3196,5.3196,5.3196,5.3196,5.3196,5.3196,5.3196,5.3196,5.3196,5.3196,5.3196,5.3196,5.3196,5.3196,5.2718,5.2213,5.2937,5.2284,5.1125,5.1317,5.0756,4.9904,4.9417,4.9153,4.9323,5.0778,5.1627,5.2533,5.4568,5.4697,5.4296,5.4296,5.3881,5.3501,5.3501,5.3501,5.3501,5.3501,5.3501,5.3501,5.3501,5.3501,5.3501,5.3501,5.3501,5.3501,5.3501,5.3501,5.3501,5.3501,5.3501,5.3501,5.3501,5.3501,5.3501,5.3501,5.3501,5.3501,5.3501,5.3501,5.3501,5.3501,5.3501,5.3501,5.3501,5.3501,5.3501,5.3501,5.3501,5.3501,0.0,0.0,0.0,0.0,0.0,0.0,4.7929,4.8296,4.8296,0.0,0.0,0.0,0.0,0.0,0.0,0.0,0.0,0.0,0.0,0.0,0.0,0.0,0.0,0.0,0.0,4.939,4.9986,5.0922,5.1308,5.1848,5.2656,5.3012,5.3196,5.3196,5.3196,5.3196,5.3196,5.3196,5.3196,5.3196,5.3196,5.3196,5.3196,5.3196,5.3196,5.3196,5.3196,5.3196,5.3196,5.3196,5.3196,5.3196,5.3196,5.3196,5.3196,5.3196,5.2926,5.261,5.3042,5.2658,5.1928,5.1624,5.1241,5.0685,4.9707,4.9419,4.9684,5.0857,5.1993,5.3147,5.4458,5.4468,5.4138,5.4138,5.3816,5.3501,5.3501,5.3501,5.3501,5.3501,5.3501,5.3501,5.3501,5.3501,5.3501,5.3501,5.3501,5.3501,5.3501,5.3501,5.3501,5.3501,5.3501,5.3501,5.3501,5.3501,5.3501,5.3501,5.3501,5.3501,5.3501,5.3501,5.3501,5.3501,5.3501,5.3501,5.3501,5.3501,5.3501,5.3501,5.3501,5.3501,0.0,0.0,0.0,0.0,0.0,0.0,4.7948,4.8296,4.8296,4.8296,0.0,0.0,0.0,0.0,0.0,0.0,0.0,0.0,0.0,0.0,0.0,0.0,0.0,0.0,4.8296,4.9003,4.95,4.9592,5.0353,5.1151,5.1969,5.2674,5.3104,5.3196,5.3196,5.3196,5.3196,5.3196,5.3196,5.3196,5.3196,5.3196,5.3196,5.3196,5.3196,5.3196,5.3196,5.3196,5.3196,5.3196,5.3196,5.3196,5.3196,5.3196,5.3196,5.3196,5.3196,5.3196,5.3196,5.3196,5.3082,5.2347,5.2101,5.1838,5.0527,5.0115,5.0287,5.1091,5.2315,5.3399,5.3484,5.3501,5.3501,5.3501,5.3501,5.3501,5.3501,5.3501,5.3501,5.3501,5.3501,5.3501,5.3501,5.3501,5.3501,5.3501,5.3501,5.3501,5.3501,5.3501,5.3501,5.3501,5.3501,5.3501,5.3501,5.3501,5.3501,5.3501,5.3501,5.3501,5.3501,5.3501,5.3501,5.3501,5.3501,5.3501,5.3501,5.3501,5.3501,5.3501,5.3501,5.3501,0.0,0.0,0.0,0.0,0.0,0.0,4.8076,4.8296,4.8296,0.0,0.0,0.0,0.0,0.0,0.0,0.0,0.0,0.0,0.0,0.0,0.0,0.0,0.0,0.0,4.8296,4.8443,4.8838,4.9555,5.0353,5.1151,5.1969,5.2152,5.2527,5.3177,5.3196,5.3196,5.3196,5.3196,5.3196,5.3196,5.3196,5.3196,5.3196,5.3196,5.3196,5.3196,5.3196,5.3196,5.3196,5.3196,5.3196,5.3196,5.3196,5.3196,5.3196,5.3196,5.3196,5.3196,5.3196,5.3196,5.3082,5.2347,5.2101,5.1952,5.1138,5.0889,5.1064,5.186,5.2306,5.2689,5.3331,5.3501,5.3501,5.3501,5.3501,5.3501,5.3501,5.3501,5.3501,5.3501,5.3501,5.3501,5.3501,5.3501,5.3501,5.3501,5.3501,5.3501,5.3501,5.3501,5.3501,5.3501,5.3501,5.3501,5.3501,5.3501,5.3501,5.3501,5.3501,5.3501,5.3501,5.3501,5.3501,5.3501,5.3501,5.3501,5.3501,5.3501,5.3501,5.3501,5.3501,5.3501,0.0,0.0,0.0,4.6296,0.0,0.0,0.0,4.8296,4.8296,4.8296,0.0,0.0,0.0,0.0,0.0,0.0,0.0,0.0,0.0,0.0,0.0,0.0,0.0,0.0,4.8296,4.8296,4.8489,4.8921,4.9729,5.039,5.0775,5.1565,5.2179,5.2601,5.2994,5.3196,5.3196,5.3196,5.3196,5.3196,5.3196,5.3196,5.3196,5.3196,5.3196,5.3196,5.3196,5.3196,5.3196,5.3196,5.3196,5.3196,5.3196,5.3196,5.3196,5.3196,5.3196,5.3196,5.3196,5.3196,5.3082,5.2347,5.2358,5.2445,5.1406,5.1118,5.1298,5.2079,5.2295,5.2486,5.3298,5.3501,5.3501,5.3501,5.3501,5.3501,5.3501,5.3501,5.3501,5.3501,5.3501,5.3501,5.3501,5.3501,5.3501,5.3501,5.3501,5.3501,5.3501,5.3501,5.3501,5.3501,5.3501,5.3501,5.3501,5.3501,5.3501,5.3501,5.3501,5.3501,5.3501,5.3501,5.3501,5.3501,5.3501,5.3501,5.3501,5.3501,5.3501,5.3501,5.3501,5.3501,0.0,0.0,0.0,0.0,0.0,4.7507,0.0,0.0,0.0,0.0,0.0,0.0,0.0,0.0,0.0,0.0,0.0,0.0,0.0,0.0,0.0,0.0,0.0,0.0,0.0,4.8296,4.8296,4.8296,4.8958,4.9417,4.9592,5.0977,5.184,5.2005,5.2774,5.3196,5.3196,5.3196,5.3196,5.3196,5.3196,5.3196,5.3196,5.3196,5.3196,5.3196,5.3196,5.3196,5.3196,5.3196,5.3196,5.3196,5.3196,5.3196,5.3196,5.3196,5.3196,5.3196,5.3196,5.3196,5.3103,5.252,5.2707,5.2988,5.1838,5.1348,5.1361,5.2251,5.2301,5.2317,5.3264,5.3501,5.3501,5.3501,5.3501,5.3501,5.3501,5.3501,5.3501,5.3501,5.3501,5.3501,5.3501,5.3501,5.3501,5.3501,5.3501,5.3501,5.3501,5.3501,5.3501,5.3501,5.3501,5.3501,5.3501,5.3501,5.3501,5.3501,5.3501,5.3501,5.3501,5.3501,5.3501,5.3501,5.3501,5.3501,5.3501,5.3501,5.3501,5.3501,5.3501,5.3501,0.0,0.0,0.0,0.0,4.7636,0.0,0.0,0.0,4.8296,4.8296,0.0,0.0,0.0,0.0,0.0,0.0,0.0,0.0,0.0,0.0,0.0,0.0,0.0,0.0,0.0,4.8296,4.8296,4.8296,4.8388,4.8783,4.9555,5.0453,5.1261,5.1987,5.2774,5.3196,5.3196,5.3196,5.3196,5.3196,5.3196,5.3196,5.3196,5.3196,5.3196,5.3196,5.3196,5.3196,5.3196,5.3196,5.3196,5.3196,5.3196,5.3196,5.3196,5.3196,5.3196,5.3196,5.3196,5.3196,5.3185,5.3103,5.3124,5.3175,5.3009,5.2096,5.1397,5.279,5.2282,5.1658,5.3112,5.3501,5.3501,5.3501,5.3501,5.3501,5.3501,5.3501,5.3501,5.3501,5.3501,5.3501,5.3501,5.3501,5.3501,5.3501,5.3501,5.3501,5.3501,5.3501,5.3501,5.3501,5.3501,5.3501,5.3501,5.3501,5.3501,5.3501,5.3501,5.3501,5.3501,5.3501,5.3501,5.3501,5.3501,5.3501,5.3501,5.3501,5.3501,5.3501,5.3501,5.3501,0.0,0.0,0.0,0.0,0.0,0.0,4.8296,0.0,4.8296,0.0,0.0,0.0,0.0,0.0,0.0,0.0,0.0,0.0,0.0,0.0,0.0,0.0,0.0,0.0,0.0,0.0,0.0,0.0,4.8296,4.8471,4.882,4.9656,5.0482,5.1279,5.2087,5.2729,5.3196,5.3196,5.3196,5.3196,5.3196,5.3196,5.3196,5.3196,5.3196,5.3196,5.3196,5.3196,5.3196,5.3196,5.3196,5.3196,5.3196,5.3196,5.3196,5.3196,5.3196,5.3196,5.3196,5.3196,5.3196,5.3196,5.3196,5.3196,5.3196,5.2486,5.1921,5.2985,5.2593,5.2093,5.3211,5.3501,5.3501,5.3501,5.3501,5.3501,5.3501,5.3501,5.3501,5.3501,5.3501,5.3501,5.3501,5.3501,5.3501,5.3501,5.3501,5.3501,5.3501,5.3501,5.3501,5.3501,5.3501,5.3501,5.3501,5.3501,5.3501,5.3501,5.3501,5.3501,5.3501,5.3501,5.3501,5.3501,5.3501,5.3501,5.3501,5.3501,5.3501,5.3501,5.3501,5.3501,4.8296,0.0,0.0,0.0,0.0,0.0,0.0,0.0,0.0,0.0,0.0,0.0,0.0,0.0,0.0,0.0,0.0,0.0,0.0,0.0,0.0,0.0,0.0,0.0,0.0,0.0,0.0,4.8296,4.8296,4.8296,4.8296,4.9123,4.9858,5.0453,5.1473,5.227,5.2865,5.3086,5.3196,5.3196,5.3196,5.3196,5.3196,5.3196,5.3196,5.3196,5.3196,5.3196,5.3196,5.3196,5.3196,5.3196,5.3196,5.3196,5.3196,5.3196,5.3196,5.3196,5.3196,5.3196,5.3196,5.3196,5.3196,5.3196,5.3196,5.2684,5.23,5.3338,5.2994,5.2535,5.3537,5.3651,5.3501,5.3501,5.3501,5.3501,5.3501,5.3501,5.3501,5.3501,5.3501,5.3501,5.3501,5.3501,5.3501,5.3501,5.3501,5.3501,5.3501,5.3501,5.3501,5.3501,5.3501,5.3501,5.3501,5.3501,5.3501,5.3501,5.3501,5.3501,5.3501,5.3501,5.3501,5.3501,5.3501,5.3501,5.3501,5.3501,5.3501,5.3501,5.3501,5.3501,0.0,0.0,0.0,4.8296,0.0,0.0,0.0,0.0,4.8296,0.0,0.0,0.0,0.0,0.0,0.0,0.0,0.0,0.0,0.0,0.0,0.0,0.0,0.0,0.0,0.0,0.0,0.0,4.8296,4.8296,4.8296,4.8296,4.9123,4.961,4.9647,5.1161,5.2005,5.2042,5.281,5.3196,5.3196,5.3196,5.3196,5.3196,5.3196,5.3196,5.3196,5.3196,5.3196,5.3196,5.3196,5.3196,5.3196,5.3196,5.3196,5.3196,5.3196,5.3196,5.3196,5.3196,5.3196,5.3196,5.3196,5.3196,5.3196,5.3196,5.2684,5.2425,5.4018,5.3427,5.2654,5.416,5.4043,5.3501,5.3501,5.3501,5.3501,5.3501,5.3501,5.3501,5.3501,5.3501,5.3501,5.3501,5.3501,5.3501,5.3501,5.3501,5.3501,5.3501,5.3501,5.3501,5.3501,5.3501,5.3501,5.3501,5.3501,5.3501,5.3501,5.3501,5.3501,5.3501,5.3501,5.3501,5.3501,5.3501,5.3501,5.3501,5.3501,5.3501,5.3501,5.3501,5.3501,0.0,0.0,4.8296,4.8296,0.0,0.0,0.0,0.0,0.0,0.0,0.0,0.0,0.0,0.0,0.0,0.0,0.0,0.0,0.0,0.0,0.0,0.0,0.0,0.0,0.0,0.0,0.0,4.8296,4.8296,4.8296,4.8296,4.8581,4.9003,4.9574,5.0647,5.1463,5.1987,5.2803,5.3196,5.3196,5.3196,5.3196,5.3196,5.3196,5.3196,5.3196,5.3196,5.3196,5.3196,5.3196,5.3196,5.3196,5.3196,5.3196,5.3196,5.3196,5.3196,5.3196,5.3196,5.3196,5.3196,5.3196,5.3196,5.3196,5.3196,5.302,5.3053,5.417,5.3762,5.3217,5.4313,5.4042,5.3501,5.3501,5.3501,5.3501,5.3501,5.3501,5.3501,5.3501,5.3501,5.3501,5.3501,5.3501,5.3501,5.3501,5.3501,5.3501,5.3501,5.3501,5.3501,5.3501,5.3501,5.3501,5.3501,5.3501,5.3501,5.3501,5.3501,5.3501,5.3501,5.3501,5.3501,5.3501,5.3501,5.3501,5.3501,5.3501,5.3501,5.3501,5.3501,5.3501,4.8296,4.8296,0.0,4.8296,4.8296,0.0,4.8296,0.0,0.0,0.0,0.0,0.0,0.0,0.0,0.0,0.0,0.0,0.0,0.0,0.0,0.0,0.0,0.0,0.0,0.0,0.0,4.8296,4.8296,4.8296,4.8296,0.0,0.0,4.8563,4.9123,4.9949,5.0747,5.1565,5.238,5.292,5.3196,5.3196,5.3196,5.3196,5.3196,5.3196,5.3196,5.3196,5.3196,5.3196,5.3196,5.3196,5.3196,5.3196,5.3196,5.3196,5.3196,5.3196,5.3196,5.3196,5.3196,5.3196,5.3196,5.3196,5.3196,5.3196,5.3196,5.344,5.4563,5.4125,5.3566,5.4699,5.4249,5.3501,5.3501,5.3501,5.3501,5.3501,5.3501,5.3501,5.3501,5.3501,5.3501,5.3501,5.3501,5.3501,5.3501,5.3501,5.3501,5.3501,5.3501,5.3501,5.3501,5.3501,5.3501,5.3501,5.3501,5.3501,5.3501,5.3501,5.3501,5.3501,5.3501,5.3501,5.3501,5.3501,5.3501,5.3501,5.3501,5.3501,5.3501,5.3501,5.3501]}]]